﻿<?xml version="1.0" encoding="utf-8"?><gpx creator="Garmin Desktop App" version="1.1" xsi:schemaLocation="http://www.topografix.com/GPX/1/1 http://www.topografix.com/GPX/1/1/gpx.xsd http://www.garmin.com/xmlschemas/WaypointExtension/v1 http://www8.garmin.com/xmlschemas/WaypointExtensionv1.xsd http://www.garmin.com/xmlschemas/TrackPointExtension/v1 http://www.garmin.com/xmlschemas/TrackPointExtensionv1.xsd http://www.garmin.com/xmlschemas/GpxExtensions/v3 http://www8.garmin.com/xmlschemas/GpxExtensionsv3.xsd http://www.garmin.com/xmlschemas/ActivityExtension/v1 http://www8.garmin.com/xmlschemas/ActivityExtensionv1.xsd http://www.garmin.com/xmlschemas/AdventuresExtensions/v1 http://www8.garmin.com/xmlschemas/AdventuresExtensionv1.xsd http://www.garmin.com/xmlschemas/PressureExtension/v1 http://www.garmin.com/xmlschemas/PressureExtensionv1.xsd http://www.garmin.com/xmlschemas/TripExtensions/v1 http://www.garmin.com/xmlschemas/TripExtensionsv1.xsd http://www.garmin.com/xmlschemas/TripMetaDataExtensions/v1 http://www.garmin.com/xmlschemas/TripMetaDataExtensionsv1.xsd http://www.garmin.com/xmlschemas/ViaPointTransportationModeExtensions/v1 http://www.garmin.com/xmlschemas/ViaPointTransportationModeExtensionsv1.xsd http://www.garmin.com/xmlschemas/CreationTimeExtension/v1 http://www.garmin.com/xmlschemas/CreationTimeExtensionsv1.xsd http://www.garmin.com/xmlschemas/AccelerationExtension/v1 http://www.garmin.com/xmlschemas/AccelerationExtensionv1.xsd http://www.garmin.com/xmlschemas/PowerExtension/v1 http://www.garmin.com/xmlschemas/PowerExtensionv1.xsd http://www.garmin.com/xmlschemas/VideoExtension/v1 http://www.garmin.com/xmlschemas/VideoExtensionv1.xsd" xmlns="http://www.topografix.com/GPX/1/1" xmlns:xsi="http://www.w3.org/2001/XMLSchema-instance" xmlns:wptx1="http://www.garmin.com/xmlschemas/WaypointExtension/v1" xmlns:gpxtrx="http://www.garmin.com/xmlschemas/GpxExtensions/v3" xmlns:gpxtpx="http://www.garmin.com/xmlschemas/TrackPointExtension/v1" xmlns:gpxx="http://www.garmin.com/xmlschemas/GpxExtensions/v3" xmlns:trp="http://www.garmin.com/xmlschemas/TripExtensions/v1" xmlns:adv="http://www.garmin.com/xmlschemas/AdventuresExtensions/v1" xmlns:prs="http://www.garmin.com/xmlschemas/PressureExtension/v1" xmlns:tmd="http://www.garmin.com/xmlschemas/TripMetaDataExtensions/v1" xmlns:vptm="http://www.garmin.com/xmlschemas/ViaPointTransportationModeExtensions/v1" xmlns:ctx="http://www.garmin.com/xmlschemas/CreationTimeExtension/v1" xmlns:gpxacc="http://www.garmin.com/xmlschemas/AccelerationExtension/v1" xmlns:gpxpx="http://www.garmin.com/xmlschemas/PowerExtension/v1" xmlns:vidx1="http://www.garmin.com/xmlschemas/VideoExtension/v1">

  <metadata>
    <link href="http://www.garmin.com">
      <text>Garmin International</text>
    </link>
    <time>2024-02-21T14:41:20Z</time>
    <bounds maxlat="50.523826573044062" maxlon="6.40097513794899" minlat="50.446450877934694" minlon="6.200739350169897" />
  </metadata>

  <trk>
    <name>EIF5 2D Ruitzhof Romerhof52- 29 km</name>
    <extensions>
      <gpxx:TrackExtension>
        <gpxx:DisplayColor>Blue</gpxx:DisplayColor>
      </gpxx:TrackExtension>
    </extensions>
    <trkseg>
      <trkpt lat="50.523826573044062" lon="6.200918722897768">
        <ele>550.26999999999998</ele>
        <time>2019-04-24T06:42:31Z</time>
      </trkpt>
      <trkpt lat="50.523795560002327" lon="6.20093934237957">
        <ele>541.90999999999997</ele>
        <time>2019-04-24T06:58:10Z</time>
      </trkpt>
      <trkpt lat="50.523662287741899" lon="6.200820403173566">
        <ele>541.94000000000005</ele>
        <time>2019-04-24T06:59:21Z</time>
      </trkpt>
      <trkpt lat="50.523648457601666" lon="6.200801292434335">
        <ele>541.92999999999995</ele>
        <time>2019-04-24T06:59:34Z</time>
      </trkpt>
      <trkpt lat="50.523637728765607" lon="6.20080154389143">
        <ele>541.91999999999996</ele>
        <time>2019-04-24T06:59:46Z</time>
      </trkpt>
      <trkpt lat="50.523486770689487" lon="6.200741026550531">
        <ele>544.54999999999995</ele>
        <time>2019-04-24T07:00:00Z</time>
      </trkpt>
      <trkpt lat="50.523468162864447" lon="6.200739350169897">
        <ele>544.53999999999996</ele>
        <time>2019-04-24T07:00:03Z</time>
      </trkpt>
      <trkpt lat="50.523291975259781" lon="6.200763657689095">
        <ele>544.5</ele>
        <time>2019-04-24T07:00:19Z</time>
      </trkpt>
      <trkpt lat="50.523208323866129" lon="6.2007668428123">
        <ele>542.07000000000005</ele>
        <time>2019-04-24T07:00:25Z</time>
      </trkpt>
      <trkpt lat="50.523012774065137" lon="6.200761813670397">
        <ele>540.40999999999997</ele>
        <time>2019-04-24T07:00:42Z</time>
      </trkpt>
      <trkpt lat="50.522730723023415" lon="6.200754186138511">
        <ele>538.69000000000005</ele>
        <time>2019-04-24T07:01:07Z</time>
      </trkpt>
      <trkpt lat="50.522542465478182" lon="6.200751503929496">
        <ele>535.09000000000003</ele>
        <time>2019-04-24T07:01:25Z</time>
      </trkpt>
      <trkpt lat="50.522354207932949" lon="6.200741194188595">
        <ele>531.95000000000005</ele>
        <time>2019-04-24T07:01:43Z</time>
      </trkpt>
      <trkpt lat="50.522181708365679" lon="6.200749324634671">
        <ele>529.94000000000005</ele>
        <time>2019-04-24T07:02:03Z</time>
      </trkpt>
      <trkpt lat="50.522170644253492" lon="6.200784360989928">
        <ele>530.52999999999997</ele>
        <time>2019-04-24T07:02:30Z</time>
      </trkpt>
      <trkpt lat="50.522169806063175" lon="6.200788971036673">
        <ele>530.52999999999997</ele>
        <time>2019-04-24T07:02:31Z</time>
      </trkpt>
      <trkpt lat="50.522143822163343" lon="6.200844962149859">
        <ele>530.52999999999997</ele>
        <time>2019-04-24T07:02:36Z</time>
      </trkpt>
      <trkpt lat="50.522109121084213" lon="6.200908832252026">
        <ele>527.89999999999998</ele>
        <time>2019-04-24T07:02:41Z</time>
      </trkpt>
      <trkpt lat="50.522025050595403" lon="6.201042355969548">
        <ele>527.85000000000002</ele>
        <time>2019-04-24T07:02:54Z</time>
      </trkpt>
      <trkpt lat="50.521918684244156" lon="6.201156433671713">
        <ele>526.25999999999999</ele>
        <time>2019-04-24T07:03:08Z</time>
      </trkpt>
      <trkpt lat="50.521875936537981" lon="6.201242264360189">
        <ele>525.50999999999999</ele>
        <time>2019-04-24T07:03:53Z</time>
      </trkpt>
      <trkpt lat="50.521864620968699" lon="6.201250730082393">
        <ele>524.65999999999997</ele>
        <time>2019-04-24T07:04:28Z</time>
      </trkpt>
      <trkpt lat="50.521794883534312" lon="6.201313761994243">
        <ele>524.62</ele>
        <time>2019-04-24T07:04:36Z</time>
      </trkpt>
      <trkpt lat="50.521761858835816" lon="6.201281324028969">
        <ele>524.66999999999996</ele>
        <time>2019-04-24T07:04:44Z</time>
      </trkpt>
      <trkpt lat="50.521738389506936" lon="6.201324826106429">
        <ele>523.91999999999996</ele>
        <time>2019-04-24T07:05:17Z</time>
      </trkpt>
      <trkpt lat="50.521679129451513" lon="6.201400430873036">
        <ele>523.91999999999996</ele>
        <time>2019-04-24T07:05:22Z</time>
      </trkpt>
      <trkpt lat="50.521621126681566" lon="6.201652055606246">
        <ele>524.01999999999998</ele>
        <time>2019-04-24T07:05:36Z</time>
      </trkpt>
      <trkpt lat="50.521622383967042" lon="6.201823214069009">
        <ele>525.49000000000001</ele>
        <time>2019-04-24T07:05:46Z</time>
      </trkpt>
      <trkpt lat="50.521619617938995" lon="6.201956234872341">
        <ele>524.02999999999997</ele>
        <time>2019-04-24T07:05:52Z</time>
      </trkpt>
      <trkpt lat="50.521613247692585" lon="6.202088501304388">
        <ele>526.42999999999995</ele>
        <time>2019-04-24T07:05:57Z</time>
      </trkpt>
      <trkpt lat="50.52160763181746" lon="6.202453365549445">
        <ele>528.25999999999999</ele>
        <time>2019-04-24T07:06:12Z</time>
      </trkpt>
      <trkpt lat="50.521603357046843" lon="6.202585464343429">
        <ele>528.13</ele>
        <time>2019-04-24T07:06:26Z</time>
      </trkpt>
      <trkpt lat="50.521609727293253" lon="6.202862737700343">
        <ele>529.78999999999996</ele>
        <time>2019-04-24T07:06:44Z</time>
      </trkpt>
      <trkpt lat="50.521635040640831" lon="6.20320756919682">
        <ele>531.66999999999996</ele>
        <time>2019-04-24T07:06:59Z</time>
      </trkpt>
      <trkpt lat="50.521671837195754" lon="6.203621299937367">
        <ele>532.04999999999995</ele>
        <time>2019-04-24T07:07:18Z</time>
      </trkpt>
      <trkpt lat="50.521683152765036" lon="6.203910643234849">
        <ele>532.01999999999998</ele>
        <time>2019-04-24T07:07:33Z</time>
      </trkpt>
      <trkpt lat="50.521681644022465" lon="6.203973004594445">
        <ele>529.71000000000004</ele>
        <time>2019-04-24T07:07:36Z</time>
      </trkpt>
      <trkpt lat="50.52168533205986" lon="6.204194203019142">
        <ele>527.91999999999996</ele>
        <time>2019-04-24T07:07:49Z</time>
      </trkpt>
      <trkpt lat="50.52173662930727" lon="6.204488072544336">
        <ele>526.19000000000005</ele>
        <time>2019-04-24T07:08:04Z</time>
      </trkpt>
      <trkpt lat="50.52181139588356" lon="6.204746067523956">
        <ele>524.37</ele>
        <time>2019-04-24T07:08:19Z</time>
      </trkpt>
      <trkpt lat="50.521854227408767" lon="6.204881183803082">
        <ele>522.37</ele>
        <time>2019-04-24T07:08:27Z</time>
      </trkpt>
      <trkpt lat="50.52193108946085" lon="6.205060053616762">
        <ele>520.61000000000001</ele>
        <time>2019-04-24T07:08:41Z</time>
      </trkpt>
      <trkpt lat="50.522018680348992" lon="6.205400861799717">
        <ele>517.33000000000004</ele>
        <time>2019-04-24T07:08:58Z</time>
      </trkpt>
      <trkpt lat="50.522021194919944" lon="6.205418715253472">
        <ele>517.34000000000003</ele>
        <time>2019-04-24T07:08:59Z</time>
      </trkpt>
      <trkpt lat="50.522031337022781" lon="6.205462804064155">
        <ele>519.98000000000002</ele>
        <time>2019-04-24T07:09:01Z</time>
      </trkpt>
      <trkpt lat="50.522060338407755" lon="6.205598842352629">
        <ele>517.40999999999997</ele>
        <time>2019-04-24T07:09:08Z</time>
      </trkpt>
      <trkpt lat="50.522093446925282" lon="6.205907799303532">
        <ele>515.74000000000001</ele>
        <time>2019-04-24T07:09:23Z</time>
      </trkpt>
      <trkpt lat="50.522067630663514" lon="6.206081807613373">
        <ele>512.30999999999995</ele>
        <time>2019-04-24T07:09:38Z</time>
      </trkpt>
      <trkpt lat="50.521928826346993" lon="6.206007460132241">
        <ele>511.32999999999998</ele>
        <time>2019-04-24T07:09:53Z</time>
      </trkpt>
      <trkpt lat="50.521744089201093" lon="6.205765223130584">
        <ele>508.64999999999998</ele>
        <time>2019-04-24T07:10:10Z</time>
      </trkpt>
      <trkpt lat="50.52159883081913" lon="6.20564335025847">
        <ele>507.69999999999999</ele>
        <time>2019-04-24T07:10:23Z</time>
      </trkpt>
      <trkpt lat="50.52157536149025" lon="6.205621054396033">
        <ele>507.72000000000003</ele>
        <time>2019-04-24T07:10:25Z</time>
      </trkpt>
      <trkpt lat="50.521457009017467" lon="6.205527931451798">
        <ele>506.86000000000001</ele>
        <time>2019-04-24T07:10:34Z</time>
      </trkpt>
      <trkpt lat="50.5214449390769" lon="6.20551829226315">
        <ele>506.83999999999997</ele>
        <time>2019-04-24T07:10:35Z</time>
      </trkpt>
      <trkpt lat="50.521384254097939" lon="6.205487782135606">
        <ele>505.89999999999998</ele>
        <time>2019-04-24T07:10:40Z</time>
      </trkpt>
      <trkpt lat="50.521150566637516" lon="6.205349564552307">
        <ele>505.94999999999999</ele>
        <time>2019-04-24T07:10:56Z</time>
      </trkpt>
      <trkpt lat="50.521106645464897" lon="6.205342523753643">
        <ele>505.93000000000001</ele>
        <time>2019-04-24T07:10:59Z</time>
      </trkpt>
      <trkpt lat="50.521021736785769" lon="6.205324837937951">
        <ele>507.25</ele>
        <time>2019-04-24T07:11:05Z</time>
      </trkpt>
      <trkpt lat="50.520960800349712" lon="6.205322407186031">
        <ele>507.23000000000002</ele>
        <time>2019-04-24T07:11:10Z</time>
      </trkpt>
      <trkpt lat="50.52084781229496" lon="6.205488871783018">
        <ele>507.19999999999999</ele>
        <time>2019-04-24T07:11:25Z</time>
      </trkpt>
      <trkpt lat="50.52092551253736" lon="6.205808389931917">
        <ele>507.25999999999999</ele>
        <time>2019-04-24T07:11:43Z</time>
      </trkpt>
      <trkpt lat="50.520894750952721" lon="6.206032186746597">
        <ele>508.37</ele>
        <time>2019-04-24T07:11:53Z</time>
      </trkpt>
      <trkpt lat="50.520983682945371" lon="6.206311052665114">
        <ele>508.36000000000001</ele>
        <time>2019-04-24T07:12:09Z</time>
      </trkpt>
      <trkpt lat="50.521006900817156" lon="6.206315327435732">
        <ele>508.36000000000001</ele>
        <time>2019-04-24T07:12:12Z</time>
      </trkpt>
      <trkpt lat="50.521071776747704" lon="6.206355476751924">
        <ele>508.37</ele>
        <time>2019-04-24T07:12:33Z</time>
      </trkpt>
      <trkpt lat="50.521078146994114" lon="6.206366373226047">
        <ele>508.37</ele>
        <time>2019-04-24T07:12:34Z</time>
      </trkpt>
      <trkpt lat="50.521120307967067" lon="6.206455808132887">
        <ele>508.38999999999999</ele>
        <time>2019-04-24T07:12:39Z</time>
      </trkpt>
      <trkpt lat="50.521172359585762" lon="6.206699470058084">
        <ele>506.93000000000001</ele>
        <time>2019-04-24T07:12:51Z</time>
      </trkpt>
      <trkpt lat="50.521198008209467" lon="6.206785552203655">
        <ele>506.86000000000001</ele>
        <time>2019-04-24T07:12:56Z</time>
      </trkpt>
      <trkpt lat="50.521237570792437" lon="6.206909939646721">
        <ele>508.92000000000002</ele>
        <time>2019-04-24T07:13:02Z</time>
      </trkpt>
      <trkpt lat="50.521322647109628" lon="6.207150332629681">
        <ele>509.02999999999997</ele>
        <time>2019-04-24T07:13:14Z</time>
      </trkpt>
      <trkpt lat="50.52135156467557" lon="6.207222919911146">
        <ele>509.04000000000002</ele>
        <time>2019-04-24T07:13:18Z</time>
      </trkpt>
      <trkpt lat="50.52141459658742" lon="6.207407992333174">
        <ele>509.04000000000002</ele>
        <time>2019-04-24T07:13:29Z</time>
      </trkpt>
      <trkpt lat="50.521527919918299" lon="6.207682332023978">
        <ele>509.05000000000001</ele>
        <time>2019-04-24T07:13:44Z</time>
      </trkpt>
      <trkpt lat="50.521573517471552" lon="6.207831026986241">
        <ele>509.86000000000001</ele>
        <time>2019-04-24T07:13:53Z</time>
      </trkpt>
      <trkpt lat="50.521703436970711" lon="6.208184324204922">
        <ele>510.63</ele>
        <time>2019-04-24T07:14:10Z</time>
      </trkpt>
      <trkpt lat="50.521782897412777" lon="6.208494622260332">
        <ele>511.56999999999999</ele>
        <time>2019-04-24T07:14:25Z</time>
      </trkpt>
      <trkpt lat="50.521822711452842" lon="6.208624541759491">
        <ele>511.56999999999999</ele>
        <time>2019-04-24T07:14:31Z</time>
      </trkpt>
      <trkpt lat="50.521787256002426" lon="6.208867197856307">
        <ele>513.22000000000003</ele>
        <time>2019-04-24T07:14:41Z</time>
      </trkpt>
      <trkpt lat="50.521669825538993" lon="6.209165928885341">
        <ele>514.05999999999995</ele>
        <time>2019-04-24T07:14:54Z</time>
      </trkpt>
      <trkpt lat="50.521593885496259" lon="6.20934865437448">
        <ele>515.14999999999998</ele>
        <time>2019-04-24T07:15:03Z</time>
      </trkpt>
      <trkpt lat="50.521458685398102" lon="6.209635231643915">
        <ele>516.08000000000004</ele>
        <time>2019-04-24T07:15:19Z</time>
      </trkpt>
      <trkpt lat="50.521357851102948" lon="6.209851317107678">
        <ele>512.61000000000001</ele>
        <time>2019-04-24T07:15:31Z</time>
      </trkpt>
      <trkpt lat="50.521357348188758" lon="6.209881156682968">
        <ele>517.32000000000005</ele>
        <time>2019-04-24T07:15:32Z</time>
      </trkpt>
      <trkpt lat="50.521350810304284" lon="6.209941925480962">
        <ele>518.78999999999996</ele>
        <time>2019-04-24T07:15:34Z</time>
      </trkpt>
      <trkpt lat="50.521305967122316" lon="6.210041753947735">
        <ele>518.75999999999999</ele>
        <time>2019-04-24T07:15:39Z</time>
      </trkpt>
      <trkpt lat="50.521287610754371" lon="6.210086764767766">
        <ele>522.48000000000002</ele>
        <time>2019-04-24T07:15:41Z</time>
      </trkpt>
      <trkpt lat="50.521279983222485" lon="6.210114676505327">
        <ele>522.48000000000002</ele>
        <time>2019-04-24T07:15:42Z</time>
      </trkpt>
      <trkpt lat="50.52127143368125" lon="6.210134038701654">
        <ele>522.47000000000003</ele>
        <time>2019-04-24T07:15:43Z</time>
      </trkpt>
      <trkpt lat="50.521233882755041" lon="6.210216097533703">
        <ele>518.64999999999998</ele>
        <time>2019-04-24T07:15:47Z</time>
      </trkpt>
      <trkpt lat="50.521227344870567" lon="6.210239147767425">
        <ele>521.88</ele>
        <time>2019-04-24T07:15:48Z</time>
      </trkpt>
      <trkpt lat="50.52103104069829" lon="6.210363786667585">
        <ele>521.92999999999995</ele>
        <time>2019-04-24T07:16:03Z</time>
      </trkpt>
      <trkpt lat="50.52098318003118" lon="6.210305700078607">
        <ele>521.91999999999996</ele>
        <time>2019-04-24T07:16:08Z</time>
      </trkpt>
      <trkpt lat="50.520952083170414" lon="6.210178295150399">
        <ele>522.88</ele>
        <time>2019-04-24T07:16:14Z</time>
      </trkpt>
      <trkpt lat="50.521045289933681" lon="6.209799684584141">
        <ele>523.74000000000001</ele>
        <time>2019-04-24T07:16:31Z</time>
      </trkpt>
      <trkpt lat="50.521151321008801" lon="6.209446890279651">
        <ele>524.47000000000003</ele>
        <time>2019-04-24T07:16:47Z</time>
      </trkpt>
      <trkpt lat="50.52123237401247" lon="6.209142040461302">
        <ele>525.52999999999997</ele>
        <time>2019-04-24T07:17:02Z</time>
      </trkpt>
      <trkpt lat="50.521282162517309" lon="6.208890834823251">
        <ele>526.41999999999996</ele>
        <time>2019-04-24T07:17:15Z</time>
      </trkpt>
      <trkpt lat="50.521286353468895" lon="6.208836268633604">
        <ele>526.45000000000005</ele>
        <time>2019-04-24T07:17:18Z</time>
      </trkpt>
      <trkpt lat="50.521101867780089" lon="6.208604509010911">
        <ele>527.61000000000001</ele>
        <time>2019-04-24T07:17:35Z</time>
      </trkpt>
      <trkpt lat="50.520952837541699" lon="6.208651950582862">
        <ele>527.63</ele>
        <time>2019-04-24T07:17:45Z</time>
      </trkpt>
      <trkpt lat="50.520711019635201" lon="6.20842220261693">
        <ele>530.48000000000002</ele>
        <time>2019-04-24T07:18:04Z</time>
      </trkpt>
      <trkpt lat="50.520515972748399" lon="6.208201088011265">
        <ele>532.09000000000003</ele>
        <time>2019-04-24T07:18:21Z</time>
      </trkpt>
      <trkpt lat="50.520341880619526" lon="6.208030600100756">
        <ele>534.02999999999997</ele>
        <time>2019-04-24T07:18:36Z</time>
      </trkpt>
      <trkpt lat="50.520265605300665" lon="6.207980727776885">
        <ele>536.11000000000001</ele>
        <time>2019-04-24T07:18:41Z</time>
      </trkpt>
      <trkpt lat="50.519992103800178" lon="6.207831362262368">
        <ele>537.27999999999997</ele>
        <time>2019-04-24T07:18:58Z</time>
      </trkpt>
      <trkpt lat="50.519926892593503" lon="6.207804540172219">
        <ele>539.63</ele>
        <time>2019-04-24T07:19:02Z</time>
      </trkpt>
      <trkpt lat="50.519897807389498" lon="6.207803031429648">
        <ele>537.05999999999995</ele>
        <time>2019-04-24T07:19:04Z</time>
      </trkpt>
      <trkpt lat="50.519837290048599" lon="6.207834715023637">
        <ele>537.09000000000003</ele>
        <time>2019-04-24T07:19:09Z</time>
      </trkpt>
      <trkpt lat="50.519819855690002" lon="6.207901267334819">
        <ele>539.63</ele>
        <time>2019-04-24T07:19:13Z</time>
      </trkpt>
      <trkpt lat="50.519826225936413" lon="6.207938985899091">
        <ele>540.90999999999997</ele>
        <time>2019-04-24T07:19:15Z</time>
      </trkpt>
      <trkpt lat="50.519819520413876" lon="6.208048956468701">
        <ele>542.57000000000005</ele>
        <time>2019-04-24T07:19:20Z</time>
      </trkpt>
      <trkpt lat="50.519789261743426" lon="6.208328576758504">
        <ele>545.73000000000002</ele>
        <time>2019-04-24T07:19:33Z</time>
      </trkpt>
      <trkpt lat="50.519753890112042" lon="6.208540555089712">
        <ele>544.99000000000001</ele>
        <time>2019-04-24T07:19:42Z</time>
      </trkpt>
      <trkpt lat="50.519726146012545" lon="6.208729986101389">
        <ele>548.25999999999999</ele>
        <time>2019-04-24T07:19:50Z</time>
      </trkpt>
      <trkpt lat="50.519652385264635" lon="6.209098035469651">
        <ele>548.98000000000002</ele>
        <time>2019-04-24T07:20:07Z</time>
      </trkpt>
      <trkpt lat="50.519576445221901" lon="6.209425516426563">
        <ele>551.36000000000001</ele>
        <time>2019-04-24T07:20:23Z</time>
      </trkpt>
      <trkpt lat="50.519565800204873" lon="6.209734892472625">
        <ele>551.37</ele>
        <time>2019-04-24T07:20:36Z</time>
      </trkpt>
      <trkpt lat="50.519542498514056" lon="6.210077963769436">
        <ele>552.42999999999995</ele>
        <time>2019-04-24T07:20:51Z</time>
      </trkpt>
      <trkpt lat="50.519518610090017" lon="6.21034643612802">
        <ele>552.41999999999996</ele>
        <time>2019-04-24T07:21:03Z</time>
      </trkpt>
      <trkpt lat="50.519486088305712" lon="6.210641311481595">
        <ele>553.29999999999995</ele>
        <time>2019-04-24T07:21:15Z</time>
      </trkpt>
      <trkpt lat="50.519435796886683" lon="6.211085468530655">
        <ele>554.34000000000003</ele>
        <time>2019-04-24T07:21:33Z</time>
      </trkpt>
      <trkpt lat="50.519411154091358" lon="6.211365507915616">
        <ele>552.01999999999998</ele>
        <time>2019-04-24T07:21:46Z</time>
      </trkpt>
      <trkpt lat="50.519376285374165" lon="6.211762810125947">
        <ele>552.08000000000004</ele>
        <time>2019-04-24T07:22:03Z</time>
      </trkpt>
      <trkpt lat="50.519341416656971" lon="6.211936818435788">
        <ele>552.12</ele>
        <time>2019-04-24T07:22:12Z</time>
      </trkpt>
      <trkpt lat="50.519322054460645" lon="6.21196523308754">
        <ele>554.39999999999998</ele>
        <time>2019-04-24T07:22:14Z</time>
      </trkpt>
      <trkpt lat="50.519203785806894" lon="6.212073443457484">
        <ele>554.40999999999997</ele>
        <time>2019-04-24T07:22:23Z</time>
      </trkpt>
      <trkpt lat="50.519026927649975" lon="6.212137900292873">
        <ele>550.48000000000002</ele>
        <time>2019-04-24T07:22:34Z</time>
      </trkpt>
      <trkpt lat="50.519010918214917" lon="6.212142091244459">
        <ele>555.76999999999998</ele>
        <time>2019-04-24T07:22:35Z</time>
      </trkpt>
      <trkpt lat="50.51899490877986" lon="6.212147371843457">
        <ele>555.76999999999998</ele>
        <time>2019-04-24T07:22:36Z</time>
      </trkpt>
      <trkpt lat="50.518776895478368" lon="6.212204452604055">
        <ele>556.88</ele>
        <time>2019-04-24T07:22:50Z</time>
      </trkpt>
      <trkpt lat="50.518609257414937" lon="6.212240159511566">
        <ele>558.78999999999996</ele>
        <time>2019-04-24T07:23:04Z</time>
      </trkpt>
      <trkpt lat="50.51841001957655" lon="6.212296737357974">
        <ele>559.77999999999997</ele>
        <time>2019-04-24T07:23:19Z</time>
      </trkpt>
      <trkpt lat="50.518229221925139" lon="6.212339736521244">
        <ele>559.78999999999996</ele>
        <time>2019-04-24T07:23:31Z</time>
      </trkpt>
      <trkpt lat="50.518022272735834" lon="6.212391536682844">
        <ele>559.79999999999995</ele>
        <time>2019-04-24T07:23:44Z</time>
      </trkpt>
      <trkpt lat="50.517997713759542" lon="6.212491113692522">
        <ele>560.63</ele>
        <time>2019-04-24T07:23:49Z</time>
      </trkpt>
      <trkpt lat="50.518028475344181" lon="6.212777607142925">
        <ele>563.37</ele>
        <time>2019-04-24T07:24:01Z</time>
      </trkpt>
      <trkpt lat="50.518073569983244" lon="6.21321614831686">
        <ele>563.36000000000001</ele>
        <time>2019-04-24T07:24:14Z</time>
      </trkpt>
      <trkpt lat="50.518121849745512" lon="6.213571792468429">
        <ele>561.87</ele>
        <time>2019-04-24T07:24:22Z</time>
      </trkpt>
      <trkpt lat="50.518193934112787" lon="6.214163219556212">
        <ele>560.72000000000003</ele>
        <time>2019-04-24T07:24:35Z</time>
      </trkpt>
      <trkpt lat="50.518277334049344" lon="6.214850703254342">
        <ele>561.85000000000002</ele>
        <time>2019-04-24T07:24:49Z</time>
      </trkpt>
      <trkpt lat="50.518354447558522" lon="6.215189667418599">
        <ele>561.88999999999999</ele>
        <time>2019-04-24T07:25:02Z</time>
      </trkpt>
      <trkpt lat="50.518462657928467" lon="6.215143483132124">
        <ele>561.88</ele>
        <time>2019-04-24T07:25:14Z</time>
      </trkpt>
      <trkpt lat="50.518567766994238" lon="6.215136609971523">
        <ele>561.82000000000005</ele>
        <time>2019-04-24T07:25:24Z</time>
      </trkpt>
      <trkpt lat="50.518607078120112" lon="6.215190002694726">
        <ele>561.80999999999995</ele>
        <time>2019-04-24T07:25:28Z</time>
      </trkpt>
      <trkpt lat="50.518612610176206" lon="6.215207437053323">
        <ele>561.82000000000005</ele>
        <time>2019-04-24T07:25:29Z</time>
      </trkpt>
      <trkpt lat="50.518616968765855" lon="6.215223362669349">
        <ele>561.82000000000005</ele>
        <time>2019-04-24T07:25:30Z</time>
      </trkpt>
      <trkpt lat="50.518620070070028" lon="6.215239875018597">
        <ele>561.79999999999995</ele>
        <time>2019-04-24T07:25:31Z</time>
      </trkpt>
      <trkpt lat="50.518625853583217" lon="6.215253537520766">
        <ele>561.80999999999995</ele>
        <time>2019-04-24T07:25:32Z</time>
      </trkpt>
      <trkpt lat="50.518668685108423" lon="6.215512286871672">
        <ele>561.78999999999996</ele>
        <time>2019-04-24T07:25:46Z</time>
      </trkpt>
      <trkpt lat="50.518775302916765" lon="6.215899111703038">
        <ele>561.76999999999998</ele>
        <time>2019-04-24T07:26:03Z</time>
      </trkpt>
      <trkpt lat="50.5188322160393" lon="6.216128608211875">
        <ele>561.73000000000002</ele>
        <time>2019-04-24T07:26:17Z</time>
      </trkpt>
      <trkpt lat="50.518868928775191" lon="6.216343520209193">
        <ele>561.74000000000001</ele>
        <time>2019-04-24T07:26:28Z</time>
      </trkpt>
      <trkpt lat="50.518913939595222" lon="6.216638311743736">
        <ele>561.77999999999997</ele>
        <time>2019-04-24T07:26:42Z</time>
      </trkpt>
      <trkpt lat="50.518968254327774" lon="6.216991106048226">
        <ele>562.58000000000004</ele>
        <time>2019-04-24T07:26:58Z</time>
      </trkpt>
      <trkpt lat="50.519018629565835" lon="6.217266786843538">
        <ele>564.05999999999995</ele>
        <time>2019-04-24T07:27:10Z</time>
      </trkpt>
      <trkpt lat="50.519037405028939" lon="6.217360915616155">
        <ele>560.88999999999999</ele>
        <time>2019-04-24T07:27:14Z</time>
      </trkpt>
      <trkpt lat="50.519108399748802" lon="6.217804485931993">
        <ele>563.62</ele>
        <time>2019-04-24T07:27:34Z</time>
      </trkpt>
      <trkpt lat="50.519122900441289" lon="6.218111850321293">
        <ele>564.41999999999996</ele>
        <time>2019-04-24T07:27:49Z</time>
      </trkpt>
      <trkpt lat="50.519130108878016" lon="6.218130625784397">
        <ele>564.41999999999996</ele>
        <time>2019-04-24T07:27:50Z</time>
      </trkpt>
      <trkpt lat="50.519132539629936" lon="6.218151664361358">
        <ele>564.42999999999995</ele>
        <time>2019-04-24T07:27:51Z</time>
      </trkpt>
      <trkpt lat="50.519102280959487" lon="6.218319302424789">
        <ele>566.41999999999996</ele>
        <time>2019-04-24T07:27:59Z</time>
      </trkpt>
      <trkpt lat="50.519098592922091" lon="6.218341765925288">
        <ele>566.41999999999996</ele>
        <time>2019-04-24T07:28:00Z</time>
      </trkpt>
      <trkpt lat="50.519104711711407" lon="6.218370432034135">
        <ele>566.41999999999996</ele>
        <time>2019-04-24T07:28:01Z</time>
      </trkpt>
      <trkpt lat="50.519107980653644" lon="6.218395913019776">
        <ele>566.41999999999996</ele>
        <time>2019-04-24T07:28:02Z</time>
      </trkpt>
      <trkpt lat="50.51910731010139" lon="6.218417705968022">
        <ele>566.42999999999995</ele>
        <time>2019-04-24T07:28:03Z</time>
      </trkpt>
      <trkpt lat="50.519107058644295" lon="6.218474619090557">
        <ele>563.94000000000005</ele>
        <time>2019-04-24T07:28:06Z</time>
      </trkpt>
      <trkpt lat="50.519113428890705" lon="6.218597497791052">
        <ele>563.99000000000001</ele>
        <time>2019-04-24T07:28:19Z</time>
      </trkpt>
      <trkpt lat="50.51911954768002" lon="6.218614429235458">
        <ele>564</ele>
        <time>2019-04-24T07:28:20Z</time>
      </trkpt>
      <trkpt lat="50.519158774986863" lon="6.218709060922265">
        <ele>564.01999999999998</ele>
        <time>2019-04-24T07:28:26Z</time>
      </trkpt>
      <trkpt lat="50.51916841417551" lon="6.218719957396388">
        <ele>564.00999999999999</ele>
        <time>2019-04-24T07:28:27Z</time>
      </trkpt>
      <trkpt lat="50.51918207667768" lon="6.218726830556989">
        <ele>564.01999999999998</ele>
        <time>2019-04-24T07:28:28Z</time>
      </trkpt>
      <trkpt lat="50.519349882379174" lon="6.218828335404396">
        <ele>564.00999999999999</ele>
        <time>2019-04-24T07:28:40Z</time>
      </trkpt>
      <trkpt lat="50.519501259550452" lon="6.218891870230436">
        <ele>564.03999999999996</ele>
        <time>2019-04-24T07:28:52Z</time>
      </trkpt>
      <trkpt lat="50.519511736929417" lon="6.218884577974677">
        <ele>564.04999999999995</ele>
        <time>2019-04-24T07:28:53Z</time>
      </trkpt>
      <trkpt lat="50.519522381946445" lon="6.218883572146297">
        <ele>564.04999999999995</ele>
        <time>2019-04-24T07:28:54Z</time>
      </trkpt>
      <trkpt lat="50.519737126305699" lon="6.219038218259811">
        <ele>563.25</ele>
        <time>2019-04-24T07:29:11Z</time>
      </trkpt>
      <trkpt lat="50.519858663901687" lon="6.219184398651123">
        <ele>564.66999999999996</ele>
        <time>2019-04-24T07:29:24Z</time>
      </trkpt>
      <trkpt lat="50.519864782691002" lon="6.2191959656775">
        <ele>564.67999999999995</ele>
        <time>2019-04-24T07:29:25Z</time>
      </trkpt>
      <trkpt lat="50.520030409097672" lon="6.219364022836089">
        <ele>564.70000000000005</ele>
        <time>2019-04-24T07:29:38Z</time>
      </trkpt>
      <trkpt lat="50.520077683031559" lon="6.219434347003698">
        <ele>562.28999999999996</ele>
        <time>2019-04-24T07:29:43Z</time>
      </trkpt>
      <trkpt lat="50.520229144021869" lon="6.219596033915877">
        <ele>562.36000000000001</ele>
        <time>2019-04-24T07:29:55Z</time>
      </trkpt>
      <trkpt lat="50.520403068512678" lon="6.219786973670125">
        <ele>562.40999999999997</ele>
        <time>2019-04-24T07:30:07Z</time>
      </trkpt>
      <trkpt lat="50.520530557259917" lon="6.219977829605341">
        <ele>562.41999999999996</ele>
        <time>2019-04-24T07:30:19Z</time>
      </trkpt>
      <trkpt lat="50.520605575293303" lon="6.220241859555244">
        <ele>562.5</ele>
        <time>2019-04-24T07:30:33Z</time>
      </trkpt>
      <trkpt lat="50.52052435465157" lon="6.220575962215662">
        <ele>562.62</ele>
        <time>2019-04-24T07:30:47Z</time>
      </trkpt>
      <trkpt lat="50.520476661622524" lon="6.220647795125842">
        <ele>565.19000000000005</ele>
        <time>2019-04-24T07:30:51Z</time>
      </trkpt>
      <trkpt lat="50.520384209230542" lon="6.220747288316488">
        <ele>565.19000000000005</ele>
        <time>2019-04-24T07:30:58Z</time>
      </trkpt>
      <trkpt lat="50.520369289442897" lon="6.220755921676755">
        <ele>565.19000000000005</ele>
        <time>2019-04-24T07:30:59Z</time>
      </trkpt>
      <trkpt lat="50.520356129854918" lon="6.220765979960561">
        <ele>565.19000000000005</ele>
        <time>2019-04-24T07:31:00Z</time>
      </trkpt>
      <trkpt lat="50.520339701324701" lon="6.220775786787272">
        <ele>565.19000000000005</ele>
        <time>2019-04-24T07:31:01Z</time>
      </trkpt>
      <trkpt lat="50.520322686061263" lon="6.220782324671745">
        <ele>565.19000000000005</ele>
        <time>2019-04-24T07:31:02Z</time>
      </trkpt>
      <trkpt lat="50.52030642516911" lon="6.220788694918156">
        <ele>565.20000000000005</ele>
        <time>2019-04-24T07:31:03Z</time>
      </trkpt>
      <trkpt lat="50.520292175933719" lon="6.220796322450042">
        <ele>565.20000000000005</ele>
        <time>2019-04-24T07:31:04Z</time>
      </trkpt>
      <trkpt lat="50.520276753231883" lon="6.220804369077086">
        <ele>560.57000000000005</ele>
        <time>2019-04-24T07:31:05Z</time>
      </trkpt>
      <trkpt lat="50.520258648321033" lon="6.220811242237687">
        <ele>566.59000000000003</ele>
        <time>2019-04-24T07:31:06Z</time>
      </trkpt>
      <trkpt lat="50.520241297781467" lon="6.220817109569907">
        <ele>566.59000000000003</ele>
        <time>2019-04-24T07:31:07Z</time>
      </trkpt>
      <trkpt lat="50.520124454051256" lon="6.220869831740856">
        <ele>562.78999999999996</ele>
        <time>2019-04-24T07:31:15Z</time>
      </trkpt>
      <trkpt lat="50.520111881196499" lon="6.220878381282091">
        <ele>566.13</ele>
        <time>2019-04-24T07:31:16Z</time>
      </trkpt>
      <trkpt lat="50.520065780729055" lon="6.220905119553208">
        <ele>562.51999999999998</ele>
        <time>2019-04-24T07:31:19Z</time>
      </trkpt>
      <trkpt lat="50.520049268379807" lon="6.220910986885428">
        <ele>565.63999999999999</ele>
        <time>2019-04-24T07:31:20Z</time>
      </trkpt>
      <trkpt lat="50.520003503188491" lon="6.220928756520152">
        <ele>567</ele>
        <time>2019-04-24T07:31:23Z</time>
      </trkpt>
      <trkpt lat="50.519937369972467" lon="6.220993716269732">
        <ele>568.51999999999998</ele>
        <time>2019-04-24T07:31:29Z</time>
      </trkpt>
      <trkpt lat="50.519902585074306" lon="6.221051467582583">
        <ele>568.51999999999998</ele>
        <time>2019-04-24T07:31:33Z</time>
      </trkpt>
      <trkpt lat="50.519846845418215" lon="6.221121791750193">
        <ele>568.53999999999996</ele>
        <time>2019-04-24T07:31:40Z</time>
      </trkpt>
      <trkpt lat="50.519824214279652" lon="6.2211939599365">
        <ele>568.53999999999996</ele>
        <time>2019-04-24T07:31:44Z</time>
      </trkpt>
      <trkpt lat="50.51981876604259" lon="6.221209382638335">
        <ele>568.53999999999996</ele>
        <time>2019-04-24T07:31:45Z</time>
      </trkpt>
      <trkpt lat="50.519808288663626" lon="6.221224386245012">
        <ele>568.53999999999996</ele>
        <time>2019-04-24T07:31:46Z</time>
      </trkpt>
      <trkpt lat="50.519793871790171" lon="6.221242155879736">
        <ele>568.53999999999996</ele>
        <time>2019-04-24T07:31:47Z</time>
      </trkpt>
      <trkpt lat="50.51978113129735" lon="6.221258081495762">
        <ele>568.53999999999996</ele>
        <time>2019-04-24T07:31:48Z</time>
      </trkpt>
      <trkpt lat="50.519684152677655" lon="6.221379954367876">
        <ele>568.52999999999997</ele>
        <time>2019-04-24T07:31:56Z</time>
      </trkpt>
      <trkpt lat="50.519669316709042" lon="6.221390515565872">
        <ele>568.51999999999998</ele>
        <time>2019-04-24T07:31:57Z</time>
      </trkpt>
      <trkpt lat="50.519554484635592" lon="6.221478944644332">
        <ele>568.50999999999999</ele>
        <time>2019-04-24T07:32:10Z</time>
      </trkpt>
      <trkpt lat="50.519401431083679" lon="6.221657982096076">
        <ele>568.51999999999998</ele>
        <time>2019-04-24T07:32:24Z</time>
      </trkpt>
      <trkpt lat="50.51930520683527" lon="6.221810532733798">
        <ele>568.51999999999998</ele>
        <time>2019-04-24T07:32:33Z</time>
      </trkpt>
      <trkpt lat="50.519108232110739" lon="6.222107755020261">
        <ele>570.94000000000005</ele>
        <time>2019-04-24T07:32:51Z</time>
      </trkpt>
      <trkpt lat="50.518921902403235" lon="6.222289223223925">
        <ele>570.90999999999997</ele>
        <time>2019-04-24T07:33:05Z</time>
      </trkpt>
      <trkpt lat="50.518856355920434" lon="6.222421992570162">
        <ele>570.88999999999999</ele>
        <time>2019-04-24T07:33:14Z</time>
      </trkpt>
      <trkpt lat="50.518933972343802" lon="6.22276246547699">
        <ele>570.85000000000002</ele>
        <time>2019-04-24T07:33:31Z</time>
      </trkpt>
      <trkpt lat="50.519043188542128" lon="6.22295206412673">
        <ele>565.74000000000001</ele>
        <time>2019-04-24T07:33:45Z</time>
      </trkpt>
      <trkpt lat="50.519053917378187" lon="6.22296622954309">
        <ele>571.04999999999995</ele>
        <time>2019-04-24T07:33:46Z</time>
      </trkpt>
      <trkpt lat="50.51914150826633" lon="6.223145015537739">
        <ele>568.66999999999996</ele>
        <time>2019-04-24T07:33:55Z</time>
      </trkpt>
      <trkpt lat="50.51914687268436" lon="6.223178375512362">
        <ele>568.65999999999997</ele>
        <time>2019-04-24T07:33:57Z</time>
      </trkpt>
      <trkpt lat="50.519144693389535" lon="6.223197150975466">
        <ele>568.67999999999995</ele>
        <time>2019-04-24T07:33:58Z</time>
      </trkpt>
      <trkpt lat="50.519246365875006" lon="6.223351042717695">
        <ele>568.67999999999995</ele>
        <time>2019-04-24T07:33:59Z</time>
      </trkpt>
      <trkpt lat="50.519183501601219" lon="6.223391108214855">
        <ele>567.55999999999995</ele>
        <time>2019-04-24T07:34:00Z</time>
      </trkpt>
      <trkpt lat="50.519164642319083" lon="6.223451374098659">
        <ele>567.54999999999995</ele>
        <time>2019-04-24T07:34:01Z</time>
      </trkpt>
      <trkpt lat="50.519090797752142" lon="6.223610546439886">
        <ele>567.62</ele>
        <time>2019-04-24T07:34:16Z</time>
      </trkpt>
      <trkpt lat="50.519018797203898" lon="6.223803833127022">
        <ele>567.63999999999999</ele>
        <time>2019-04-24T07:34:26Z</time>
      </trkpt>
      <trkpt lat="50.519010331481695" lon="6.223823698237538">
        <ele>567.64999999999998</ele>
        <time>2019-04-24T07:34:27Z</time>
      </trkpt>
      <trkpt lat="50.518992645666003" lon="6.223858566954732">
        <ele>570.01999999999998</ele>
        <time>2019-04-24T07:34:29Z</time>
      </trkpt>
      <trkpt lat="50.518982503563166" lon="6.223872397094965">
        <ele>570.02999999999997</ele>
        <time>2019-04-24T07:34:30Z</time>
      </trkpt>
      <trkpt lat="50.518952663987875" lon="6.223938530310988">
        <ele>567.29999999999995</ele>
        <time>2019-04-24T07:34:34Z</time>
      </trkpt>
      <trkpt lat="50.518926260992885" lon="6.223990749567747">
        <ele>570.78999999999996</ele>
        <time>2019-04-24T07:34:37Z</time>
      </trkpt>
      <trkpt lat="50.518917795270681" lon="6.224005250260234">
        <ele>564.23000000000002</ele>
        <time>2019-04-24T07:34:38Z</time>
      </trkpt>
      <trkpt lat="50.518908072263002" lon="6.22401773929596">
        <ele>570.45000000000005</ele>
        <time>2019-04-24T07:34:39Z</time>
      </trkpt>
      <trkpt lat="50.518889212980866" lon="6.224051937460899">
        <ele>567.23000000000002</ele>
        <time>2019-04-24T07:34:41Z</time>
      </trkpt>
      <trkpt lat="50.518879741430283" lon="6.224068449810147">
        <ele>567.23000000000002</ele>
        <time>2019-04-24T07:34:42Z</time>
      </trkpt>
      <trkpt lat="50.518868006765842" lon="6.224083872511983">
        <ele>567.23000000000002</ele>
        <time>2019-04-24T07:34:43Z</time>
      </trkpt>
      <trkpt lat="50.518658459186554" lon="6.22434027493">
        <ele>567.25</ele>
        <time>2019-04-24T07:35:00Z</time>
      </trkpt>
      <trkpt lat="50.518437344580889" lon="6.224682843312621">
        <ele>565.11000000000001</ele>
        <time>2019-04-24T07:35:22Z</time>
      </trkpt>
      <trkpt lat="50.518420664593577" lon="6.224719053134322">
        <ele>563.49000000000001</ele>
        <time>2019-04-24T07:35:24Z</time>
      </trkpt>
      <trkpt lat="50.51822972483933" lon="6.224971599876881">
        <ele>561.72000000000003</ele>
        <time>2019-04-24T07:35:42Z</time>
      </trkpt>
      <trkpt lat="50.518081029877067" lon="6.225159605965018">
        <ele>561.76999999999998</ele>
        <time>2019-04-24T07:35:57Z</time>
      </trkpt>
      <trkpt lat="50.51793510094285" lon="6.225334955379367">
        <ele>558.30999999999995</ele>
        <time>2019-04-24T07:36:09Z</time>
      </trkpt>
      <trkpt lat="50.517879948019981" lon="6.225396562367678">
        <ele>557.01999999999998</ele>
        <time>2019-04-24T07:36:14Z</time>
      </trkpt>
      <trkpt lat="50.517830746248364" lon="6.225454146042466">
        <ele>555.98000000000002</ele>
        <time>2019-04-24T07:36:19Z</time>
      </trkpt>
      <trkpt lat="50.5178202688694" lon="6.225467389449477">
        <ele>556.09000000000003</ele>
        <time>2019-04-24T07:36:20Z</time>
      </trkpt>
      <trkpt lat="50.517811551690102" lon="6.225481890141964">
        <ele>555.25999999999999</ele>
        <time>2019-04-24T07:36:21Z</time>
      </trkpt>
      <trkpt lat="50.517802415415645" lon="6.225493624806404">
        <ele>555.24000000000001</ele>
        <time>2019-04-24T07:36:22Z</time>
      </trkpt>
      <trkpt lat="50.517789842560887" lon="6.225508125498891">
        <ele>552.27999999999997</ele>
        <time>2019-04-24T07:36:23Z</time>
      </trkpt>
      <trkpt lat="50.517780287191272" lon="6.225520446896553">
        <ele>552.35000000000002</ele>
        <time>2019-04-24T07:36:24Z</time>
      </trkpt>
      <trkpt lat="50.517771570011973" lon="6.225537965074182">
        <ele>554.95000000000005</ele>
        <time>2019-04-24T07:36:25Z</time>
      </trkpt>
      <trkpt lat="50.517762685194612" lon="6.225551376119256">
        <ele>555.00999999999999</ele>
        <time>2019-04-24T07:36:26Z</time>
      </trkpt>
      <trkpt lat="50.517754387110472" lon="6.225565792992711">
        <ele>555.02999999999997</ele>
        <time>2019-04-24T07:36:27Z</time>
      </trkpt>
      <trkpt lat="50.517713986337185" lon="6.225624466314912">
        <ele>557.44000000000005</ele>
        <time>2019-04-24T07:36:31Z</time>
      </trkpt>
      <trkpt lat="50.517652295529842" lon="6.22571524232626">
        <ele>554.65999999999997</ele>
        <time>2019-04-24T07:36:36Z</time>
      </trkpt>
      <trkpt lat="50.517462026327848" lon="6.225897381082177">
        <ele>553.51999999999998</ele>
        <time>2019-04-24T07:36:50Z</time>
      </trkpt>
      <trkpt lat="50.517274271696806" lon="6.226152777671814">
        <ele>553.55999999999995</ele>
        <time>2019-04-24T07:37:05Z</time>
      </trkpt>
      <trkpt lat="50.517081404104829" lon="6.226555779576302">
        <ele>553.59000000000003</ele>
        <time>2019-04-24T07:37:20Z</time>
      </trkpt>
      <trkpt lat="50.51700621843338" lon="6.226771110668778">
        <ele>555.87</ele>
        <time>2019-04-24T07:37:29Z</time>
      </trkpt>
      <trkpt lat="50.51699792034924" lon="6.22679173015058">
        <ele>555.87</ele>
        <time>2019-04-24T07:37:30Z</time>
      </trkpt>
      <trkpt lat="50.516987526789308" lon="6.226815115660429">
        <ele>555.88</ele>
        <time>2019-04-24T07:37:31Z</time>
      </trkpt>
      <trkpt lat="50.516975456848741" lon="6.226840429008007">
        <ele>556.67999999999995</ele>
        <time>2019-04-24T07:37:32Z</time>
      </trkpt>
      <trkpt lat="50.516962464898825" lon="6.226874208077788">
        <ele>556.69000000000005</ele>
        <time>2019-04-24T07:37:33Z</time>
      </trkpt>
      <trkpt lat="50.516947545111179" lon="6.226914692670107">
        <ele>557.59000000000003</ele>
        <time>2019-04-24T07:37:34Z</time>
      </trkpt>
      <trkpt lat="50.516853667795658" lon="6.227117199450731">
        <ele>558.80999999999995</ele>
        <time>2019-04-24T07:37:39Z</time>
      </trkpt>
      <trkpt lat="50.516649736091495" lon="6.227580802515149">
        <ele>561.47000000000003</ele>
        <time>2019-04-24T07:37:53Z</time>
      </trkpt>
      <trkpt lat="50.51644966006279" lon="6.227923538535833">
        <ele>561.48000000000002</ele>
        <time>2019-04-24T07:38:05Z</time>
      </trkpt>
      <trkpt lat="50.516167525202036" lon="6.228097379207611">
        <ele>563.86000000000001</ele>
        <time>2019-04-24T07:38:16Z</time>
      </trkpt>
      <trkpt lat="50.515768714249134" lon="6.228297958150506">
        <ele>563.88</ele>
        <time>2019-04-24T07:38:30Z</time>
      </trkpt>
      <trkpt lat="50.515631837770343" lon="6.22835973277688">
        <ele>560.92999999999995</ele>
        <time>2019-04-24T07:38:34Z</time>
      </trkpt>
      <trkpt lat="50.515564195811749" lon="6.228390829637647">
        <ele>564.98000000000002</ele>
        <time>2019-04-24T07:38:36Z</time>
      </trkpt>
      <trkpt lat="50.515502085909247" lon="6.228420501574874">
        <ele>566.46000000000004</ele>
        <time>2019-04-24T07:38:38Z</time>
      </trkpt>
      <trkpt lat="50.515435030683875" lon="6.228451263159514">
        <ele>562.36000000000001</ele>
        <time>2019-04-24T07:38:40Z</time>
      </trkpt>
      <trkpt lat="50.515403933823109" lon="6.228469535708427">
        <ele>562.36000000000001</ele>
        <time>2019-04-24T07:38:41Z</time>
      </trkpt>
      <trkpt lat="50.514970170333982" lon="6.228734906762838">
        <ele>562.38</ele>
        <time>2019-04-24T07:38:56Z</time>
      </trkpt>
      <trkpt lat="50.514767495915294" lon="6.229015029966831">
        <ele>564.65999999999997</ele>
        <time>2019-04-24T07:39:03Z</time>
      </trkpt>
      <trkpt lat="50.514603378251195" lon="6.229255758225918">
        <ele>568.45000000000005</ele>
        <time>2019-04-24T07:39:09Z</time>
      </trkpt>
      <trkpt lat="50.514582255855203" lon="6.229293309152126">
        <ele>568.42999999999995</ele>
        <time>2019-04-24T07:39:10Z</time>
      </trkpt>
      <trkpt lat="50.514466501772404" lon="6.229464216157794">
        <ele>569.49000000000001</ele>
        <time>2019-04-24T07:39:19Z</time>
      </trkpt>
      <trkpt lat="50.514432806521654" lon="6.229517189785838">
        <ele>571.55999999999995</ele>
        <time>2019-04-24T07:39:22Z</time>
      </trkpt>
      <trkpt lat="50.51426550373435" lon="6.229728246107698">
        <ele>571.58000000000004</ele>
        <time>2019-04-24T07:39:35Z</time>
      </trkpt>
      <trkpt lat="50.514235077425838" lon="6.229775184765458">
        <ele>574.60000000000002</ele>
        <time>2019-04-24T07:39:38Z</time>
      </trkpt>
      <trkpt lat="50.514225019142032" lon="6.229787589982152">
        <ele>574.60000000000002</ele>
        <time>2019-04-24T07:39:39Z</time>
      </trkpt>
      <trkpt lat="50.514061488211155" lon="6.230046004056931">
        <ele>576.16999999999996</ele>
        <time>2019-04-24T07:39:52Z</time>
      </trkpt>
      <trkpt lat="50.513785472139716" lon="6.230484880506992">
        <ele>578.92999999999995</ele>
        <time>2019-04-24T07:40:05Z</time>
      </trkpt>
      <trkpt lat="50.513622192665935" lon="6.230744635686278">
        <ele>582.39999999999998</ele>
        <time>2019-04-24T07:40:13Z</time>
      </trkpt>
      <trkpt lat="50.5135946162045" lon="6.230781767517328">
        <ele>582.39999999999998</ele>
        <time>2019-04-24T07:40:14Z</time>
      </trkpt>
      <trkpt lat="50.513328490778804" lon="6.231227265670896">
        <ele>583.25999999999999</ele>
        <time>2019-04-24T07:40:26Z</time>
      </trkpt>
      <trkpt lat="50.513072591274977" lon="6.231631943956018">
        <ele>584.34000000000003</ele>
        <time>2019-04-24T07:40:39Z</time>
      </trkpt>
      <trkpt lat="50.512945186346769" lon="6.231799498200417">
        <ele>585.84000000000003</ele>
        <time>2019-04-24T07:40:47Z</time>
      </trkpt>
      <trkpt lat="50.512844435870647" lon="6.231973506510258">
        <ele>582.78999999999996</ele>
        <time>2019-04-24T07:40:57Z</time>
      </trkpt>
      <trkpt lat="50.51283186301589" lon="6.231993874534965">
        <ele>582.78999999999996</ele>
        <time>2019-04-24T07:40:58Z</time>
      </trkpt>
      <trkpt lat="50.512786181643605" lon="6.232075011357665">
        <ele>585.12</ele>
        <time>2019-04-24T07:41:02Z</time>
      </trkpt>
      <trkpt lat="50.512628266587853" lon="6.232345495373011">
        <ele>582.29999999999995</ele>
        <time>2019-04-24T07:41:16Z</time>
      </trkpt>
      <trkpt lat="50.512556685134768" lon="6.232468709349632">
        <ele>585.96000000000004</ele>
        <time>2019-04-24T07:41:23Z</time>
      </trkpt>
      <trkpt lat="50.512546626850963" lon="6.232486562803388">
        <ele>585.96000000000004</ele>
        <time>2019-04-24T07:41:24Z</time>
      </trkpt>
      <trkpt lat="50.512473285198212" lon="6.232616314664483">
        <ele>583.48000000000002</ele>
        <time>2019-04-24T07:41:31Z</time>
      </trkpt>
      <trkpt lat="50.512451240792871" lon="6.232654033228755">
        <ele>578.51999999999998</ele>
        <time>2019-04-24T07:41:33Z</time>
      </trkpt>
      <trkpt lat="50.512439757585526" lon="6.23267188668251">
        <ele>582.03999999999996</ele>
        <time>2019-04-24T07:41:34Z</time>
      </trkpt>
      <trkpt lat="50.512390471994877" lon="6.232758220285177">
        <ele>583.63999999999999</ele>
        <time>2019-04-24T07:41:39Z</time>
      </trkpt>
      <trkpt lat="50.512192575260997" lon="6.232890821993351">
        <ele>583.70000000000005</ele>
        <time>2019-04-24T07:41:55Z</time>
      </trkpt>
      <trkpt lat="50.511919492855668" lon="6.232951758429408">
        <ele>581.5</ele>
        <time>2019-04-24T07:42:15Z</time>
      </trkpt>
      <trkpt lat="50.511905997991562" lon="6.232954440638423">
        <ele>581.50999999999999</ele>
        <time>2019-04-24T07:42:16Z</time>
      </trkpt>
      <trkpt lat="50.511700557544827" lon="6.232979921624064">
        <ele>579.64999999999998</ele>
        <time>2019-04-24T07:42:31Z</time>
      </trkpt>
      <trkpt lat="50.511471480131149" lon="6.232883781194687">
        <ele>578.71000000000004</ele>
        <time>2019-04-24T07:42:46Z</time>
      </trkpt>
      <trkpt lat="50.511288587003946" lon="6.232774900272489">
        <ele>577</ele>
        <time>2019-04-24T07:42:58Z</time>
      </trkpt>
      <trkpt lat="50.511273667216301" lon="6.232764003798366">
        <ele>580.72000000000003</ele>
        <time>2019-04-24T07:42:59Z</time>
      </trkpt>
      <trkpt lat="50.511258412152529" lon="6.232752185314894">
        <ele>580.75</ele>
        <time>2019-04-24T07:43:00Z</time>
      </trkpt>
      <trkpt lat="50.511006284505129" lon="6.232559233903885">
        <ele>582.61000000000001</ele>
        <time>2019-04-24T07:43:18Z</time>
      </trkpt>
      <trkpt lat="50.510894386097789" lon="6.23247591778636">
        <ele>583.94000000000005</ele>
        <time>2019-04-24T07:43:26Z</time>
      </trkpt>
      <trkpt lat="50.510607054457068" lon="6.232240302488208">
        <ele>583.69000000000005</ele>
        <time>2019-04-24T07:43:46Z</time>
      </trkpt>
      <trkpt lat="50.510397339239717" lon="6.231957916170359">
        <ele>586.58000000000004</ele>
        <time>2019-04-24T07:44:04Z</time>
      </trkpt>
      <trkpt lat="50.510248728096485" lon="6.231771921738982">
        <ele>587.30999999999995</ele>
        <time>2019-04-24T07:44:18Z</time>
      </trkpt>
      <trkpt lat="50.510073881596327" lon="6.231557680293918">
        <ele>588.88999999999999</ele>
        <time>2019-04-24T07:44:32Z</time>
      </trkpt>
      <trkpt lat="50.510048484429717" lon="6.231525577604771">
        <ele>590.04999999999995</ele>
        <time>2019-04-24T07:44:34Z</time>
      </trkpt>
      <trkpt lat="50.509976400062442" lon="6.231442261487246">
        <ele>591.27999999999997</ele>
        <time>2019-04-24T07:44:40Z</time>
      </trkpt>
      <trkpt lat="50.509777497500181" lon="6.231232797726989">
        <ele>591.21000000000004</ele>
        <time>2019-04-24T07:44:57Z</time>
      </trkpt>
      <trkpt lat="50.509657301008701" lon="6.231084354221821">
        <ele>592.57000000000005</ele>
        <time>2019-04-24T07:45:10Z</time>
      </trkpt>
      <trkpt lat="50.509536433964968" lon="6.230944460257888">
        <ele>592.70000000000005</ele>
        <time>2019-04-24T07:45:29Z</time>
      </trkpt>
      <trkpt lat="50.509511539712548" lon="6.230963738635182">
        <ele>592.75</ele>
        <time>2019-04-24T07:45:32Z</time>
      </trkpt>
      <trkpt lat="50.509337279945612" lon="6.231171190738678">
        <ele>592.72000000000003</ele>
        <time>2019-04-24T07:45:48Z</time>
      </trkpt>
      <trkpt lat="50.509254215285182" lon="6.231302032247186">
        <ele>592.63999999999999</ele>
        <time>2019-04-24T07:45:57Z</time>
      </trkpt>
      <trkpt lat="50.509180789813399" lon="6.231397418305278">
        <ele>592.71000000000004</ele>
        <time>2019-04-24T07:46:04Z</time>
      </trkpt>
      <trkpt lat="50.509094791486859" lon="6.231548879295588">
        <ele>592.70000000000005</ele>
        <time>2019-04-24T07:46:13Z</time>
      </trkpt>
      <trkpt lat="50.508948862552643" lon="6.231779213994741">
        <ele>593.88999999999999</ele>
        <time>2019-04-24T07:46:26Z</time>
      </trkpt>
      <trkpt lat="50.508769322186708" lon="6.232037544250488">
        <ele>593.75</ele>
        <time>2019-04-24T07:46:42Z</time>
      </trkpt>
      <trkpt lat="50.508737722411752" lon="6.232093703001738">
        <ele>591.11000000000001</ele>
        <time>2019-04-24T07:46:45Z</time>
      </trkpt>
      <trkpt lat="50.508554996922612" lon="6.232391428202391">
        <ele>591.12</ele>
        <time>2019-04-24T07:47:02Z</time>
      </trkpt>
      <trkpt lat="50.508333966135979" lon="6.232641879469156">
        <ele>590.36000000000001</ele>
        <time>2019-04-24T07:47:19Z</time>
      </trkpt>
      <trkpt lat="50.508246123790741" lon="6.232725530862808">
        <ele>592.85000000000002</ele>
        <time>2019-04-24T07:47:26Z</time>
      </trkpt>
      <trkpt lat="50.508214943110943" lon="6.232759226113558">
        <ele>590.30999999999995</ele>
        <time>2019-04-24T07:47:28Z</time>
      </trkpt>
      <trkpt lat="50.50799148157239" lon="6.233053766191006">
        <ele>590.15999999999997</ele>
        <time>2019-04-24T07:47:38Z</time>
      </trkpt>
      <trkpt lat="50.507729966193438" lon="6.23363446444273">
        <ele>590.27999999999997</ele>
        <time>2019-04-24T07:47:52Z</time>
      </trkpt>
      <trkpt lat="50.507593844085932" lon="6.233954234048724">
        <ele>590.20000000000005</ele>
        <time>2019-04-24T07:48:03Z</time>
      </trkpt>
      <trkpt lat="50.507504157721996" lon="6.234133271500468">
        <ele>589.03999999999996</ele>
        <time>2019-04-24T07:48:15Z</time>
      </trkpt>
      <trkpt lat="50.507499631494284" lon="6.234154142439365">
        <ele>589.08000000000004</ele>
        <time>2019-04-24T07:48:16Z</time>
      </trkpt>
      <trkpt lat="50.507491417229176" lon="6.234170570969582">
        <ele>589.08000000000004</ele>
        <time>2019-04-24T07:48:17Z</time>
      </trkpt>
      <trkpt lat="50.507485549896955" lon="6.234190352261066">
        <ele>589.08000000000004</ele>
        <time>2019-04-24T07:48:18Z</time>
      </trkpt>
      <trkpt lat="50.507474904879928" lon="6.234206361696124">
        <ele>589.03999999999996</ele>
        <time>2019-04-24T07:48:19Z</time>
      </trkpt>
      <trkpt lat="50.507465936243534" lon="6.234225807711482">
        <ele>589.07000000000005</ele>
        <time>2019-04-24T07:48:20Z</time>
      </trkpt>
      <trkpt lat="50.507457554340363" lon="6.234245589002967">
        <ele>589.10000000000002</ele>
        <time>2019-04-24T07:48:21Z</time>
      </trkpt>
      <trkpt lat="50.507292430847883" lon="6.234613973647356">
        <ele>586.73000000000002</ele>
        <time>2019-04-24T07:48:39Z</time>
      </trkpt>
      <trkpt lat="50.507284300401807" lon="6.234635096043348">
        <ele>586.71000000000004</ele>
        <time>2019-04-24T07:48:40Z</time>
      </trkpt>
      <trkpt lat="50.507159158587456" lon="6.234906166791916">
        <ele>585.01999999999998</ele>
        <time>2019-04-24T07:48:56Z</time>
      </trkpt>
      <trkpt lat="50.507052876055241" lon="6.235098531469703">
        <ele>585.05999999999995</ele>
        <time>2019-04-24T07:49:08Z</time>
      </trkpt>
      <trkpt lat="50.507017755880952" lon="6.235183104872704">
        <ele>584.88</ele>
        <time>2019-04-24T07:49:12Z</time>
      </trkpt>
      <trkpt lat="50.506945671513677" lon="6.235373206436634">
        <ele>584.95000000000005</ele>
        <time>2019-04-24T07:49:21Z</time>
      </trkpt>
      <trkpt lat="50.506924465298653" lon="6.235418217256665">
        <ele>584.12</ele>
        <time>2019-04-24T07:49:23Z</time>
      </trkpt>
      <trkpt lat="50.506856488063931" lon="6.23564762994647">
        <ele>583.20000000000005</ele>
        <time>2019-04-24T07:49:35Z</time>
      </trkpt>
      <trkpt lat="50.506790606305003" lon="6.235842844471335">
        <ele>581.51999999999998</ele>
        <time>2019-04-24T07:49:46Z</time>
      </trkpt>
      <trkpt lat="50.506732519716024" lon="6.236160267144442">
        <ele>580.04999999999995</ele>
        <time>2019-04-24T07:50:01Z</time>
      </trkpt>
      <trkpt lat="50.506720449775457" lon="6.236247606575489">
        <ele>581.60000000000002</ele>
        <time>2019-04-24T07:50:04Z</time>
      </trkpt>
      <trkpt lat="50.506685664877295" lon="6.236460171639919">
        <ele>579.46000000000004</ele>
        <time>2019-04-24T07:50:12Z</time>
      </trkpt>
      <trkpt lat="50.50660721026361" lon="6.237042294815183">
        <ele>577.29999999999995</ele>
        <time>2019-04-24T07:50:26Z</time>
      </trkpt>
      <trkpt lat="50.506533365696669" lon="6.237808652222157">
        <ele>573.75</ele>
        <time>2019-04-24T07:50:37Z</time>
      </trkpt>
      <trkpt lat="50.50651928409934" lon="6.237933207303286">
        <ele>572.83000000000004</ele>
        <time>2019-04-24T07:50:39Z</time>
      </trkpt>
      <trkpt lat="50.506477793678641" lon="6.238290276378393">
        <ele>571.49000000000001</ele>
        <time>2019-04-24T07:50:45Z</time>
      </trkpt>
      <trkpt lat="50.506440494209528" lon="6.238495130091906">
        <ele>570.86000000000001</ele>
        <time>2019-04-24T07:50:52Z</time>
      </trkpt>
      <trkpt lat="50.506440075114369" lon="6.238537039607763">
        <ele>569.64999999999998</ele>
        <time>2019-04-24T07:50:53Z</time>
      </trkpt>
      <trkpt lat="50.506436135619879" lon="6.238597808405757">
        <ele>568.60000000000002</ele>
        <time>2019-04-24T07:50:54Z</time>
      </trkpt>
      <trkpt lat="50.506433034315705" lon="6.23865514062345">
        <ele>567.69000000000005</ele>
        <time>2019-04-24T07:50:55Z</time>
      </trkpt>
      <trkpt lat="50.506438901647925" lon="6.238713143393397">
        <ele>567.75</ele>
        <time>2019-04-24T07:50:56Z</time>
      </trkpt>
      <trkpt lat="50.50642691552639" lon="6.238751783967018">
        <ele>567.82000000000005</ele>
        <time>2019-04-24T07:50:57Z</time>
      </trkpt>
      <trkpt lat="50.506419623270631" lon="6.238805260509253">
        <ele>567.85000000000002</ele>
        <time>2019-04-24T07:50:59Z</time>
      </trkpt>
      <trkpt lat="50.506435045972466" lon="6.238952614367008">
        <ele>566.76999999999998</ele>
        <time>2019-04-24T07:51:05Z</time>
      </trkpt>
      <trkpt lat="50.506433201953769" lon="6.238980777561665">
        <ele>566.76999999999998</ele>
        <time>2019-04-24T07:51:06Z</time>
      </trkpt>
      <trkpt lat="50.506430938839912" lon="6.23902989551425">
        <ele>566.71000000000004</ele>
        <time>2019-04-24T07:51:08Z</time>
      </trkpt>
      <trkpt lat="50.506427753716707" lon="6.239061746746302">
        <ele>566.70000000000005</ele>
        <time>2019-04-24T07:51:09Z</time>
      </trkpt>
      <trkpt lat="50.506424652412534" lon="6.239092340692878">
        <ele>566.73000000000002</ele>
        <time>2019-04-24T07:51:10Z</time>
      </trkpt>
      <trkpt lat="50.50641031935811" lon="6.23930255882442">
        <ele>565.48000000000002</ele>
        <time>2019-04-24T07:51:15Z</time>
      </trkpt>
      <trkpt lat="50.506409397348762" lon="6.23960112221539">
        <ele>563.50999999999999</ele>
        <time>2019-04-24T07:51:23Z</time>
      </trkpt>
      <trkpt lat="50.506412917748094" lon="6.23963431455195">
        <ele>563.5</ele>
        <time>2019-04-24T07:51:24Z</time>
      </trkpt>
      <trkpt lat="50.506414845585823" lon="6.239664070308209">
        <ele>562.65999999999997</ele>
        <time>2019-04-24T07:51:25Z</time>
      </trkpt>
      <trkpt lat="50.506420461460948" lon="6.23969491571188">
        <ele>562.69000000000005</ele>
        <time>2019-04-24T07:51:26Z</time>
      </trkpt>
      <trkpt lat="50.506424233317375" lon="6.239725844934583">
        <ele>561.70000000000005</ele>
        <time>2019-04-24T07:51:27Z</time>
      </trkpt>
      <trkpt lat="50.506424652412534" lon="6.239757863804698">
        <ele>561.73000000000002</ele>
        <time>2019-04-24T07:51:28Z</time>
      </trkpt>
      <trkpt lat="50.50644057802856" lon="6.240021558478475">
        <ele>561.67999999999995</ele>
        <time>2019-04-24T07:51:37Z</time>
      </trkpt>
      <trkpt lat="50.506439320743084" lon="6.240046536549926">
        <ele>561.69000000000005</ele>
        <time>2019-04-24T07:51:38Z</time>
      </trkpt>
      <trkpt lat="50.506439823657274" lon="6.240096157416701">
        <ele>560.34000000000003</ele>
        <time>2019-04-24T07:51:40Z</time>
      </trkpt>
      <trkpt lat="50.506435800343752" lon="6.24018894508481">
        <ele>560.38</ele>
        <time>2019-04-24T07:51:52Z</time>
      </trkpt>
      <trkpt lat="50.506420377641916" lon="6.240245858207345">
        <ele>560.32000000000005</ele>
        <time>2019-04-24T07:52:02Z</time>
      </trkpt>
      <trkpt lat="50.506418449804187" lon="6.240268656983972">
        <ele>559.40999999999997</ele>
        <time>2019-04-24T07:52:03Z</time>
      </trkpt>
      <trkpt lat="50.506415432319045" lon="6.240294640883803">
        <ele>559.41999999999996</ele>
        <time>2019-04-24T07:52:04Z</time>
      </trkpt>
      <trkpt lat="50.506414007395506" lon="6.240320289507508">
        <ele>559.44000000000005</ele>
        <time>2019-04-24T07:52:05Z</time>
      </trkpt>
      <trkpt lat="50.506413839757442" lon="6.240344513207674">
        <ele>559.44000000000005</ele>
        <time>2019-04-24T07:52:06Z</time>
      </trkpt>
      <trkpt lat="50.506415264680982" lon="6.240370078012347">
        <ele>559.42999999999995</ele>
        <time>2019-04-24T07:52:07Z</time>
      </trkpt>
      <trkpt lat="50.50641811452806" lon="6.240393966436386">
        <ele>559.42999999999995</ele>
        <time>2019-04-24T07:52:08Z</time>
      </trkpt>
      <trkpt lat="50.506418449804187" lon="6.240417351946235">
        <ele>559.42999999999995</ele>
        <time>2019-04-24T07:52:09Z</time>
      </trkpt>
      <trkpt lat="50.506419036537409" lon="6.240441240370274">
        <ele>559.42999999999995</ele>
        <time>2019-04-24T07:52:10Z</time>
      </trkpt>
      <trkpt lat="50.506419539451599" lon="6.240463787689805">
        <ele>559.41999999999996</ele>
        <time>2019-04-24T07:52:11Z</time>
      </trkpt>
      <trkpt lat="50.506421132013202" lon="6.240487759932876">
        <ele>559.40999999999997</ele>
        <time>2019-04-24T07:52:12Z</time>
      </trkpt>
      <trkpt lat="50.506422054022551" lon="6.240509217604995">
        <ele>559.39999999999998</ele>
        <time>2019-04-24T07:52:13Z</time>
      </trkpt>
      <trkpt lat="50.50642398186028" lon="6.240529417991638">
        <ele>559.40999999999997</ele>
        <time>2019-04-24T07:52:14Z</time>
      </trkpt>
      <trkpt lat="50.506424400955439" lon="6.240550121292472">
        <ele>559.38999999999999</ele>
        <time>2019-04-24T07:52:15Z</time>
      </trkpt>
      <trkpt lat="50.506425322964787" lon="6.240573842078447">
        <ele>559.39999999999998</ele>
        <time>2019-04-24T07:52:16Z</time>
      </trkpt>
      <trkpt lat="50.506427166983485" lon="6.240598987787962">
        <ele>559.38</ele>
        <time>2019-04-24T07:52:17Z</time>
      </trkpt>
      <trkpt lat="50.506428424268961" lon="6.240622960031033">
        <ele>557.12</ele>
        <time>2019-04-24T07:52:18Z</time>
      </trkpt>
      <trkpt lat="50.506427334621549" lon="6.240646680817008">
        <ele>560.51999999999998</ele>
        <time>2019-04-24T07:52:19Z</time>
      </trkpt>
      <trkpt lat="50.5064264126122" lon="6.240671407431364">
        <ele>560.51999999999998</ele>
        <time>2019-04-24T07:52:20Z</time>
      </trkpt>
      <trkpt lat="50.506428172811866" lon="6.240695379674435">
        <ele>560.50999999999999</ele>
        <time>2019-04-24T07:52:21Z</time>
      </trkpt>
      <trkpt lat="50.506432866677642" lon="6.240719771012664">
        <ele>560.52999999999997</ele>
        <time>2019-04-24T07:52:22Z</time>
      </trkpt>
      <trkpt lat="50.50643621943891" lon="6.240743156522512">
        <ele>560.52999999999997</ele>
        <time>2019-04-24T07:52:23Z</time>
      </trkpt>
      <trkpt lat="50.506442086771131" lon="6.24086226336658">
        <ele>558.04999999999995</ele>
        <time>2019-04-24T07:52:28Z</time>
      </trkpt>
      <trkpt lat="50.506539568305016" lon="6.241232575848699">
        <ele>555.76999999999998</ele>
        <time>2019-04-24T07:52:46Z</time>
      </trkpt>
      <trkpt lat="50.506691699847579" lon="6.241493672132492">
        <ele>555.12</ele>
        <time>2019-04-24T07:53:00Z</time>
      </trkpt>
      <trkpt lat="50.50683150999248" lon="6.241712020710111">
        <ele>554.33000000000004</ele>
        <time>2019-04-24T07:53:13Z</time>
      </trkpt>
      <trkpt lat="50.506840813905001" lon="6.241735406219959">
        <ele>554.30999999999995</ele>
        <time>2019-04-24T07:53:14Z</time>
      </trkpt>
      <trkpt lat="50.507028233259916" lon="6.242061881348491">
        <ele>551.75999999999999</ele>
        <time>2019-04-24T07:53:33Z</time>
      </trkpt>
      <trkpt lat="50.507215233519673" lon="6.242324402555823">
        <ele>549.94000000000005</ele>
        <time>2019-04-24T07:53:50Z</time>
      </trkpt>
      <trkpt lat="50.507339369505644" lon="6.24247376807034">
        <ele>548.96000000000004</ele>
        <time>2019-04-24T07:54:03Z</time>
      </trkpt>
      <trkpt lat="50.507344650104642" lon="6.242453819140792">
        <ele>547.17999999999995</ele>
        <time>2019-04-24T07:54:25Z</time>
      </trkpt>
      <trkpt lat="50.507335513830185" lon="6.242447784170508">
        <ele>540.29999999999995</ele>
        <time>2019-04-24T07:54:30Z</time>
      </trkpt>
      <trkpt lat="50.507333837449551" lon="6.242446107789874">
        <ele>543.60000000000002</ele>
        <time>2019-04-24T07:54:31Z</time>
      </trkpt>
      <trkpt lat="50.50733232870698" lon="6.242443006485701">
        <ele>555.83000000000004</ele>
        <time>2019-04-24T07:54:32Z</time>
      </trkpt>
      <trkpt lat="50.507329730316997" lon="6.24244200065732">
        <ele>550.00999999999999</ele>
        <time>2019-04-24T07:54:33Z</time>
      </trkpt>
      <trkpt lat="50.507329311221838" lon="6.242440827190876">
        <ele>548.67999999999995</ele>
        <time>2019-04-24T07:54:35Z</time>
      </trkpt>
      <trkpt lat="50.507451938465238" lon="6.242555323988199">
        <ele>548.63999999999999</ele>
        <time>2019-04-24T07:54:49Z</time>
      </trkpt>
      <trkpt lat="50.507609602063894" lon="6.242727236822248">
        <ele>549.16999999999996</ele>
        <time>2019-04-24T07:55:02Z</time>
      </trkpt>
      <trkpt lat="50.507844295352697" lon="6.242996128275991">
        <ele>549.28999999999996</ele>
        <time>2019-04-24T07:55:22Z</time>
      </trkpt>
      <trkpt lat="50.508075384423137" lon="6.243228139355779">
        <ele>549.27999999999997</ele>
        <time>2019-04-24T07:55:42Z</time>
      </trkpt>
      <trkpt lat="50.508123664185405" lon="6.243284801021218">
        <ele>546.83000000000004</ele>
        <time>2019-04-24T07:55:46Z</time>
      </trkpt>
      <trkpt lat="50.508267330005765" lon="6.243467861786485">
        <ele>545.10000000000002</ele>
        <time>2019-04-24T07:56:01Z</time>
      </trkpt>
      <trkpt lat="50.508237825706601" lon="6.243557715788484">
        <ele>543.52999999999997</ele>
        <time>2019-04-24T07:56:08Z</time>
      </trkpt>
      <trkpt lat="50.50823044963181" lon="6.243575317785144">
        <ele>543.53999999999996</ele>
        <time>2019-04-24T07:56:09Z</time>
      </trkpt>
      <trkpt lat="50.508221061900258" lon="6.243591913953424">
        <ele>543.52999999999997</ele>
        <time>2019-04-24T07:56:10Z</time>
      </trkpt>
      <trkpt lat="50.508211925625801" lon="6.243607252836227">
        <ele>543.54999999999995</ele>
        <time>2019-04-24T07:56:11Z</time>
      </trkpt>
      <trkpt lat="50.508204801008105" lon="6.243622172623873">
        <ele>543.54999999999995</ele>
        <time>2019-04-24T07:56:12Z</time>
      </trkpt>
      <trkpt lat="50.508153084665537" lon="6.243761563673616">
        <ele>540.51999999999998</ele>
        <time>2019-04-24T07:56:20Z</time>
      </trkpt>
      <trkpt lat="50.508145205676556" lon="6.243779668584466">
        <ele>540.53999999999996</ele>
        <time>2019-04-24T07:56:21Z</time>
      </trkpt>
      <trkpt lat="50.508118299767375" lon="6.243837000802159">
        <ele>542.91999999999996</ele>
        <time>2019-04-24T07:56:24Z</time>
      </trkpt>
      <trkpt lat="50.50810337997973" lon="6.243872791528702">
        <ele>540.63999999999999</ele>
        <time>2019-04-24T07:56:26Z</time>
      </trkpt>
      <trkpt lat="50.508087705820799" lon="6.243932135403156">
        <ele>539.64999999999998</ele>
        <time>2019-04-24T07:56:29Z</time>
      </trkpt>
      <trkpt lat="50.50807848572731" lon="6.243956023827195">
        <ele>539.63999999999999</ele>
        <time>2019-04-24T07:56:30Z</time>
      </trkpt>
      <trkpt lat="50.508065242320299" lon="6.243975386023521">
        <ele>539.63999999999999</ele>
        <time>2019-04-24T07:56:31Z</time>
      </trkpt>
      <trkpt lat="50.508001036942005" lon="6.244101785123348">
        <ele>537.67999999999995</ele>
        <time>2019-04-24T07:56:38Z</time>
      </trkpt>
      <trkpt lat="50.507993241772056" lon="6.24412139877677">
        <ele>537.69000000000005</ele>
        <time>2019-04-24T07:56:39Z</time>
      </trkpt>
      <trkpt lat="50.507886121049523" lon="6.244342178106308">
        <ele>533.98000000000002</ele>
        <time>2019-04-24T07:56:54Z</time>
      </trkpt>
      <trkpt lat="50.507802218198776" lon="6.244568405672908">
        <ele>530.58000000000004</ele>
        <time>2019-04-24T07:57:11Z</time>
      </trkpt>
      <trkpt lat="50.507773049175739" lon="6.244723135605454">
        <ele>526.73000000000002</ele>
        <time>2019-04-24T07:57:24Z</time>
      </trkpt>
      <trkpt lat="50.507725859060884" lon="6.244922960177064">
        <ele>524.00999999999999</ele>
        <time>2019-04-24T07:57:40Z</time>
      </trkpt>
      <trkpt lat="50.507707335054874" lon="6.245005438104272">
        <ele>523.26999999999998</ele>
        <time>2019-04-24T07:58:19Z</time>
      </trkpt>
      <trkpt lat="50.507724266499281" lon="6.245029410347343">
        <ele>524.20000000000005</ele>
        <time>2019-04-24T07:58:36Z</time>
      </trkpt>
      <trkpt lat="50.507726278156042" lon="6.245049191638827">
        <ele>524.21000000000004</ele>
        <time>2019-04-24T07:58:37Z</time>
      </trkpt>
      <trkpt lat="50.50775645300746" lon="6.245167376473546">
        <ele>524.20000000000005</ele>
        <time>2019-04-24T07:58:44Z</time>
      </trkpt>
      <trkpt lat="50.50776575691998" lon="6.245196126401424">
        <ele>524.21000000000004</ele>
        <time>2019-04-24T07:58:46Z</time>
      </trkpt>
      <trkpt lat="50.507765673100948" lon="6.245213728398085">
        <ele>524.22000000000003</ele>
        <time>2019-04-24T07:58:47Z</time>
      </trkpt>
      <trkpt lat="50.507766092196107" lon="6.245299223810434">
        <ele>524.25999999999999</ele>
        <time>2019-04-24T07:58:52Z</time>
      </trkpt>
      <trkpt lat="50.507770283147693" lon="6.245323028415442">
        <ele>524.26999999999998</ele>
        <time>2019-04-24T07:58:53Z</time>
      </trkpt>
      <trkpt lat="50.507783023640513" lon="6.245373236015439">
        <ele>525.07000000000005</ele>
        <time>2019-04-24T07:58:55Z</time>
      </trkpt>
      <trkpt lat="50.507787382230163" lon="6.245395950973034">
        <ele>525.13</ele>
        <time>2019-04-24T07:58:56Z</time>
      </trkpt>
      <trkpt lat="50.507794506847858" lon="6.245417995378375">
        <ele>525.15999999999997</ele>
        <time>2019-04-24T07:58:57Z</time>
      </trkpt>
      <trkpt lat="50.507793920114636" lon="6.245572557672858">
        <ele>527.03999999999996</ele>
        <time>2019-04-24T07:59:04Z</time>
      </trkpt>
      <trkpt lat="50.507719907909632" lon="6.245925603434444">
        <ele>528.51999999999998</ele>
        <time>2019-04-24T07:59:20Z</time>
      </trkpt>
      <trkpt lat="50.507705491036177" lon="6.245940020307899">
        <ele>528.51999999999998</ele>
        <time>2019-04-24T07:59:21Z</time>
      </trkpt>
      <trkpt lat="50.507631981745362" lon="6.246038507670164">
        <ele>529.24000000000001</ele>
        <time>2019-04-24T07:59:28Z</time>
      </trkpt>
      <trkpt lat="50.507622510194778" lon="6.246054349467158">
        <ele>529.25</ele>
        <time>2019-04-24T07:59:29Z</time>
      </trkpt>
      <trkpt lat="50.507534667849541" lon="6.246197428554297">
        <ele>531.04999999999995</ele>
        <time>2019-04-24T07:59:40Z</time>
      </trkpt>
      <trkpt lat="50.507502565160394" lon="6.246244618669152">
        <ele>531.05999999999995</ele>
        <time>2019-04-24T07:59:43Z</time>
      </trkpt>
      <trkpt lat="50.507409609854221" lon="6.246383422985673">
        <ele>531.96000000000004</ele>
        <time>2019-04-24T07:59:55Z</time>
      </trkpt>
      <trkpt lat="50.507298801094294" lon="6.24652205966413">
        <ele>531.99000000000001</ele>
        <time>2019-04-24T08:00:02Z</time>
      </trkpt>
      <trkpt lat="50.507281702011824" lon="6.246548630297184">
        <ele>531.99000000000001</ele>
        <time>2019-04-24T08:00:03Z</time>
      </trkpt>
      <trkpt lat="50.507268458604813" lon="6.246566148474813">
        <ele>531.98000000000002</ele>
        <time>2019-04-24T08:00:04Z</time>
      </trkpt>
      <trkpt lat="50.507211377844214" lon="6.246673772111535">
        <ele>531.97000000000003</ele>
        <time>2019-04-24T08:00:10Z</time>
      </trkpt>
      <trkpt lat="50.507201068103313" lon="6.246693385764957">
        <ele>531.97000000000003</ele>
        <time>2019-04-24T08:00:11Z</time>
      </trkpt>
      <trkpt lat="50.507191764190793" lon="6.246710401028395">
        <ele>532.75999999999999</ele>
        <time>2019-04-24T08:00:12Z</time>
      </trkpt>
      <trkpt lat="50.507132085040212" lon="6.246863454580307">
        <ele>532.73000000000002</ele>
        <time>2019-04-24T08:00:25Z</time>
      </trkpt>
      <trkpt lat="50.50702840089798" lon="6.247073253616691">
        <ele>529.32000000000005</ele>
        <time>2019-04-24T08:27:55Z</time>
      </trkpt>
      <trkpt lat="50.506899235770106" lon="6.247311551123858">
        <ele>529.33000000000004</ele>
        <time>2019-04-24T08:28:09Z</time>
      </trkpt>
      <trkpt lat="50.50681340508163" lon="6.247433004900813">
        <ele>529.28999999999996</ele>
        <time>2019-04-24T08:28:18Z</time>
      </trkpt>
      <trkpt lat="50.506803011521697" lon="6.247458653524518">
        <ele>529.26999999999998</ele>
        <time>2019-04-24T08:28:19Z</time>
      </trkpt>
      <trkpt lat="50.506794797256589" lon="6.247483631595969">
        <ele>529.29999999999995</ele>
        <time>2019-04-24T08:28:20Z</time>
      </trkpt>
      <trkpt lat="50.506783984601498" lon="6.247500479221344">
        <ele>529.30999999999995</ele>
        <time>2019-04-24T08:28:21Z</time>
      </trkpt>
      <trkpt lat="50.50677040591836" lon="6.247517997398973">
        <ele>529.29999999999995</ele>
        <time>2019-04-24T08:28:22Z</time>
      </trkpt>
      <trkpt lat="50.506584830582142" lon="6.247777920216322">
        <ele>530.24000000000001</ele>
        <time>2019-04-24T08:28:35Z</time>
      </trkpt>
      <trkpt lat="50.506554823368788" lon="6.24780960381031">
        <ele>531.07000000000005</ele>
        <time>2019-04-24T08:28:37Z</time>
      </trkpt>
      <trkpt lat="50.506539819762111" lon="6.247824188321829">
        <ele>531.13999999999999</ele>
        <time>2019-04-24T08:28:38Z</time>
      </trkpt>
      <trkpt lat="50.506372265517712" lon="6.247974056750536">
        <ele>532.23000000000002</ele>
        <time>2019-04-24T08:28:51Z</time>
      </trkpt>
      <trkpt lat="50.506223738193512" lon="6.248150076717138">
        <ele>533.82000000000005</ele>
        <time>2019-04-24T08:29:04Z</time>
      </trkpt>
      <trkpt lat="50.505982507020235" lon="6.248590629547834">
        <ele>533.57000000000005</ele>
        <time>2019-04-24T08:29:30Z</time>
      </trkpt>
      <trkpt lat="50.505900783464313" lon="6.248763715848327">
        <ele>530.82000000000005</ele>
        <time>2019-04-24T08:29:41Z</time>
      </trkpt>
      <trkpt lat="50.505753764882684" lon="6.249102428555489">
        <ele>530.62</ele>
        <time>2019-04-24T08:30:02Z</time>
      </trkpt>
      <trkpt lat="50.505565088242292" lon="6.249432926997542">
        <ele>525.95000000000005</ele>
        <time>2019-04-24T08:30:22Z</time>
      </trkpt>
      <trkpt lat="50.505348080769181" lon="6.249733502045274">
        <ele>525.73000000000002</ele>
        <time>2019-04-24T08:30:42Z</time>
      </trkpt>
      <trkpt lat="50.505144903436303" lon="6.250072298571467">
        <ele>524.66999999999996</ele>
        <time>2019-04-24T08:31:04Z</time>
      </trkpt>
      <trkpt lat="50.504964608699083" lon="6.250329036265612">
        <ele>521.95000000000005</ele>
        <time>2019-04-24T08:31:23Z</time>
      </trkpt>
      <trkpt lat="50.504743661731482" lon="6.250556940212846">
        <ele>518.94000000000005</ele>
        <time>2019-04-24T08:31:43Z</time>
      </trkpt>
      <trkpt lat="50.504655400291085" lon="6.250690631568432">
        <ele>518.89999999999998</ele>
        <time>2019-04-24T08:31:49Z</time>
      </trkpt>
      <trkpt lat="50.504524642601609" lon="6.25092901289463">
        <ele>516.32000000000005</ele>
        <time>2019-04-24T08:32:05Z</time>
      </trkpt>
      <trkpt lat="50.504362536594272" lon="6.251083742827177">
        <ele>511.19999999999999</ele>
        <time>2019-04-24T08:32:17Z</time>
      </trkpt>
      <trkpt lat="50.504346443340182" lon="6.251090029254556">
        <ele>515.60000000000002</ele>
        <time>2019-04-24T08:32:18Z</time>
      </trkpt>
      <trkpt lat="50.504160951822996" lon="6.251206956803799">
        <ele>513.13</ele>
        <time>2019-04-24T08:32:33Z</time>
      </trkpt>
      <trkpt lat="50.503938244655728" lon="6.251363949850202">
        <ele>512.21000000000004</ele>
        <time>2019-04-24T08:32:47Z</time>
      </trkpt>
      <trkpt lat="50.503719979897141" lon="6.251505352556706">
        <ele>510.17000000000002</ele>
        <time>2019-04-24T08:33:02Z</time>
      </trkpt>
      <trkpt lat="50.503566926345229" lon="6.251735268160701">
        <ele>507.25</ele>
        <time>2019-04-24T08:33:17Z</time>
      </trkpt>
      <trkpt lat="50.50344480201602" lon="6.251946240663528">
        <ele>507.38999999999999</ele>
        <time>2019-04-24T08:33:29Z</time>
      </trkpt>
      <trkpt lat="50.503438096493483" lon="6.251968536525965">
        <ele>507.38999999999999</ele>
        <time>2019-04-24T08:33:30Z</time>
      </trkpt>
      <trkpt lat="50.503395348787308" lon="6.252069287002087">
        <ele>507.43000000000001</ele>
        <time>2019-04-24T08:33:35Z</time>
      </trkpt>
      <trkpt lat="50.503377998247743" lon="6.252117482945323">
        <ele>507.44</ele>
        <time>2019-04-24T08:33:38Z</time>
      </trkpt>
      <trkpt lat="50.503373807296157" lon="6.25214078463614">
        <ele>507.43000000000001</ele>
        <time>2019-04-24T08:33:39Z</time>
      </trkpt>
      <trkpt lat="50.503365928307176" lon="6.252163331955671">
        <ele>507.43000000000001</ele>
        <time>2019-04-24T08:33:40Z</time>
      </trkpt>
      <trkpt lat="50.503354361280799" lon="6.252190824598074">
        <ele>507.42000000000002</ele>
        <time>2019-04-24T08:33:41Z</time>
      </trkpt>
      <trkpt lat="50.503345727920532" lon="6.25220725312829">
        <ele>507.43000000000001</ele>
        <time>2019-04-24T08:33:42Z</time>
      </trkpt>
      <trkpt lat="50.503334496170282" lon="6.252234410494566">
        <ele>507.44999999999999</ele>
        <time>2019-04-24T08:33:43Z</time>
      </trkpt>
      <trkpt lat="50.503329131752253" lon="6.252255449071527">
        <ele>507.43000000000001</ele>
        <time>2019-04-24T08:33:44Z</time>
      </trkpt>
      <trkpt lat="50.503290072083473" lon="6.252346811816096">
        <ele>507.41000000000003</ele>
        <time>2019-04-24T08:33:49Z</time>
      </trkpt>
      <trkpt lat="50.503215221688151" lon="6.252580666914582">
        <ele>509.63999999999999</ele>
        <time>2019-04-24T08:34:01Z</time>
      </trkpt>
      <trkpt lat="50.503206253051758" lon="6.252608159556985">
        <ele>509.63</ele>
        <time>2019-04-24T08:34:02Z</time>
      </trkpt>
      <trkpt lat="50.503150513395667" lon="6.252815779298544">
        <ele>511.35000000000002</ele>
        <time>2019-04-24T08:34:11Z</time>
      </trkpt>
      <trkpt lat="50.503147495910525" lon="6.252833800390363">
        <ele>511.33999999999997</ele>
        <time>2019-04-24T08:34:12Z</time>
      </trkpt>
      <trkpt lat="50.50299184396863" lon="6.253208387643099">
        <ele>511.18000000000001</ele>
        <time>2019-04-24T08:34:30Z</time>
      </trkpt>
      <trkpt lat="50.502859828993678" lon="6.253499742597342">
        <ele>512.04999999999995</ele>
        <time>2019-04-24T08:34:44Z</time>
      </trkpt>
      <trkpt lat="50.502792606130242" lon="6.253620022907853">
        <ele>511.97000000000003</ele>
        <time>2019-04-24T08:34:51Z</time>
      </trkpt>
      <trkpt lat="50.502783721312881" lon="6.253641815856099">
        <ele>511.95999999999998</ele>
        <time>2019-04-24T08:34:52Z</time>
      </trkpt>
      <trkpt lat="50.502770897001028" lon="6.253659166395664">
        <ele>511.94999999999999</ele>
        <time>2019-04-24T08:34:53Z</time>
      </trkpt>
      <trkpt lat="50.502758072689176" lon="6.253676852211356">
        <ele>511.94</ele>
        <time>2019-04-24T08:34:54Z</time>
      </trkpt>
      <trkpt lat="50.502744829282165" lon="6.253694789484143">
        <ele>511.93000000000001</ele>
        <time>2019-04-24T08:34:55Z</time>
      </trkpt>
      <trkpt lat="50.502726472914219" lon="6.253721360117197">
        <ele>511.92000000000002</ele>
        <time>2019-04-24T08:34:56Z</time>
      </trkpt>
      <trkpt lat="50.502601163461804" lon="6.253813309594989">
        <ele>511.77999999999997</ele>
        <time>2019-04-24T08:35:05Z</time>
      </trkpt>
      <trkpt lat="50.502585573121905" lon="6.253811800852418">
        <ele>511.76999999999998</ele>
        <time>2019-04-24T08:35:06Z</time>
      </trkpt>
      <trkpt lat="50.502569144591689" lon="6.253820937126875">
        <ele>511.77999999999997</ele>
        <time>2019-04-24T08:35:07Z</time>
      </trkpt>
      <trkpt lat="50.5025530513376" lon="6.253831163048744">
        <ele>511.76999999999998</ele>
        <time>2019-04-24T08:35:08Z</time>
      </trkpt>
      <trkpt lat="50.502539472654462" lon="6.253836359828711">
        <ele>511.74000000000001</ele>
        <time>2019-04-24T08:35:09Z</time>
      </trkpt>
      <trkpt lat="50.502524888142943" lon="6.253851782530546">
        <ele>511.70999999999998</ele>
        <time>2019-04-24T08:35:10Z</time>
      </trkpt>
      <trkpt lat="50.502510638907552" lon="6.253862343728542">
        <ele>511.69999999999999</ele>
        <time>2019-04-24T08:35:11Z</time>
      </trkpt>
      <trkpt lat="50.502495719119906" lon="6.253868462517858">
        <ele>511.67000000000002</ele>
        <time>2019-04-24T08:35:12Z</time>
      </trkpt>
      <trkpt lat="50.50247828476131" lon="6.253873156383634">
        <ele>511.63999999999999</ele>
        <time>2019-04-24T08:35:13Z</time>
      </trkpt>
      <trkpt lat="50.502461269497871" lon="6.253879442811012">
        <ele>511.63999999999999</ele>
        <time>2019-04-24T08:35:14Z</time>
      </trkpt>
      <trkpt lat="50.502445260062814" lon="6.253887573257089">
        <ele>511.63</ele>
        <time>2019-04-24T08:35:15Z</time>
      </trkpt>
      <trkpt lat="50.502428747713566" lon="6.25390131957829">
        <ele>511.63</ele>
        <time>2019-04-24T08:35:16Z</time>
      </trkpt>
      <trkpt lat="50.502410558983684" lon="6.253909030929208">
        <ele>511.62</ele>
        <time>2019-04-24T08:35:17Z</time>
      </trkpt>
      <trkpt lat="50.502393878996372" lon="6.253914646804333">
        <ele>511.60000000000002</ele>
        <time>2019-04-24T08:35:18Z</time>
      </trkpt>
      <trkpt lat="50.502377199009061" lon="6.253920262679458">
        <ele>511.57999999999998</ele>
        <time>2019-04-24T08:35:19Z</time>
      </trkpt>
      <trkpt lat="50.502361189574003" lon="6.253922944888473">
        <ele>511.60000000000002</ele>
        <time>2019-04-24T08:35:20Z</time>
      </trkpt>
      <trkpt lat="50.502316011115909" lon="6.253936607390642">
        <ele>511.56999999999999</ele>
        <time>2019-04-24T08:35:23Z</time>
      </trkpt>
      <trkpt lat="50.502287596464157" lon="6.253951527178288">
        <ele>509.20999999999998</ele>
        <time>2019-04-24T08:35:25Z</time>
      </trkpt>
      <trkpt lat="50.502267731353641" lon="6.253954712301493">
        <ele>509.14999999999998</ele>
        <time>2019-04-24T08:35:27Z</time>
      </trkpt>
      <trkpt lat="50.502251638099551" lon="6.25395555049181">
        <ele>509.17000000000002</ele>
        <time>2019-04-24T08:35:28Z</time>
      </trkpt>
      <trkpt lat="50.502231270074844" lon="6.253958316519857">
        <ele>509.16000000000003</ele>
        <time>2019-04-24T08:35:29Z</time>
      </trkpt>
      <trkpt lat="50.501995822414756" lon="6.254020258784294">
        <ele>507.17000000000002</ele>
        <time>2019-04-24T08:35:42Z</time>
      </trkpt>
      <trkpt lat="50.501979561522603" lon="6.254027718678117">
        <ele>507.14999999999998</ele>
        <time>2019-04-24T08:35:43Z</time>
      </trkpt>
      <trkpt lat="50.501963132992387" lon="6.254034591838718">
        <ele>507.13</ele>
        <time>2019-04-24T08:35:44Z</time>
      </trkpt>
      <trkpt lat="50.501944944262505" lon="6.254038196057081">
        <ele>506.36000000000001</ele>
        <time>2019-04-24T08:35:45Z</time>
      </trkpt>
      <trkpt lat="50.501927426084876" lon="6.254041381180286">
        <ele>506.33999999999997</ele>
        <time>2019-04-24T08:35:46Z</time>
      </trkpt>
      <trkpt lat="50.501908818259835" lon="6.254042135551572">
        <ele>506.31</ele>
        <time>2019-04-24T08:35:47Z</time>
      </trkpt>
      <trkpt lat="50.501892389729619" lon="6.25404741615057">
        <ele>506.27999999999997</ele>
        <time>2019-04-24T08:35:48Z</time>
      </trkpt>
      <trkpt lat="50.501819299533963" lon="6.254082536324859">
        <ele>500.55000000000001</ele>
        <time>2019-04-24T08:35:53Z</time>
      </trkpt>
      <trkpt lat="50.501796752214432" lon="6.254100976511836">
        <ele>507.05000000000001</ele>
        <time>2019-04-24T08:35:54Z</time>
      </trkpt>
      <trkpt lat="50.501449322327971" lon="6.254693912342191">
        <ele>504.02999999999997</ele>
        <time>2019-04-24T08:36:50Z</time>
      </trkpt>
      <trkpt lat="50.501313535496593" lon="6.255100769922137">
        <ele>503.23000000000002</ele>
        <time>2019-04-24T08:37:37Z</time>
      </trkpt>
      <trkpt lat="50.501102646812797" lon="6.255288859829307">
        <ele>503.20999999999998</ele>
        <time>2019-04-24T08:37:52Z</time>
      </trkpt>
      <trkpt lat="50.500991586595774" lon="6.255301851779223">
        <ele>503.18000000000001</ele>
        <time>2019-04-24T08:38:00Z</time>
      </trkpt>
      <trkpt lat="50.500743314623833" lon="6.255383072420955">
        <ele>504.00999999999999</ele>
        <time>2019-04-24T08:38:18Z</time>
      </trkpt>
      <trkpt lat="50.500708278268576" lon="6.255389275029302">
        <ele>505.45999999999998</ele>
        <time>2019-04-24T08:38:21Z</time>
      </trkpt>
      <trkpt lat="50.500454222783446" lon="6.255381647497416">
        <ele>505.44</ele>
        <time>2019-04-24T08:38:36Z</time>
      </trkpt>
      <trkpt lat="50.500211231410503" lon="6.255343509837985">
        <ele>505.51999999999998</ele>
        <time>2019-04-24T08:38:50Z</time>
      </trkpt>
      <trkpt lat="50.499936137348413" lon="6.255429424345493">
        <ele>506.5</ele>
        <time>2019-04-24T08:39:07Z</time>
      </trkpt>
      <trkpt lat="50.49988710321486" lon="6.255477452650666">
        <ele>508.91000000000003</ele>
        <time>2019-04-24T08:39:11Z</time>
      </trkpt>
      <trkpt lat="50.499636987224221" lon="6.255671912804246">
        <ele>508.89999999999998</ele>
        <time>2019-04-24T08:39:29Z</time>
      </trkpt>
      <trkpt lat="50.499592311680317" lon="6.255729831755161">
        <ele>508.94999999999999</ele>
        <time>2019-04-24T08:39:33Z</time>
      </trkpt>
      <trkpt lat="50.499393660575151" lon="6.255973409861326">
        <ele>509.82999999999998</ele>
        <time>2019-04-24T08:39:51Z</time>
      </trkpt>
      <trkpt lat="50.499361641705036" lon="6.256102491170168">
        <ele>510.66000000000003</ele>
        <time>2019-04-24T08:40:43Z</time>
      </trkpt>
      <trkpt lat="50.499357366934419" lon="6.256485376507044">
        <ele>512.38</ele>
        <time>2019-04-24T08:40:59Z</time>
      </trkpt>
      <trkpt lat="50.499350409954786" lon="6.25680573284626">
        <ele>515.19000000000005</ele>
        <time>2019-04-24T08:41:13Z</time>
      </trkpt>
      <trkpt lat="50.499362144619226" lon="6.256877146661282">
        <ele>515.99000000000001</ele>
        <time>2019-04-24T08:41:17Z</time>
      </trkpt>
      <trkpt lat="50.499457279220223" lon="6.257723215967417">
        <ele>518.69000000000005</ele>
        <time>2019-04-24T08:41:50Z</time>
      </trkpt>
      <trkpt lat="50.499490974470973" lon="6.258055558428168">
        <ele>521.38999999999999</ele>
        <time>2019-04-24T08:42:07Z</time>
      </trkpt>
      <trkpt lat="50.49948007799685" lon="6.258146585896611">
        <ele>524.03999999999996</ele>
        <time>2019-04-24T08:42:11Z</time>
      </trkpt>
      <trkpt lat="50.499477395787835" lon="6.258163768798113">
        <ele>524.09000000000003</ele>
        <time>2019-04-24T08:42:12Z</time>
      </trkpt>
      <trkpt lat="50.499494411051273" lon="6.258269883692265">
        <ele>521.67999999999995</ele>
        <time>2019-04-24T08:42:16Z</time>
      </trkpt>
      <trkpt lat="50.499515365809202" lon="6.259105894714594">
        <ele>524.55999999999995</ele>
        <time>2019-04-24T08:42:49Z</time>
      </trkpt>
      <trkpt lat="50.499489884823561" lon="6.25933145172894">
        <ele>525.37</ele>
        <time>2019-04-24T08:42:57Z</time>
      </trkpt>
      <trkpt lat="50.499471528455615" lon="6.259434213861823">
        <ele>526.66999999999996</ele>
        <time>2019-04-24T08:43:01Z</time>
      </trkpt>
      <trkpt lat="50.499478736892343" lon="6.259466232731938">
        <ele>526.63999999999999</ele>
        <time>2019-04-24T08:43:03Z</time>
      </trkpt>
      <trkpt lat="50.499470103532076" lon="6.259601935744286">
        <ele>526.53999999999996</ele>
        <time>2019-04-24T08:43:09Z</time>
      </trkpt>
      <trkpt lat="50.499440683051944" lon="6.259781308472157">
        <ele>529.10000000000002</ele>
        <time>2019-04-24T08:43:16Z</time>
      </trkpt>
      <trkpt lat="50.499362898990512" lon="6.260237786918879">
        <ele>530.10000000000002</ele>
        <time>2019-04-24T08:43:34Z</time>
      </trkpt>
      <trkpt lat="50.499332137405872" lon="6.260406179353595">
        <ele>530.08000000000004</ele>
        <time>2019-04-24T08:43:41Z</time>
      </trkpt>
      <trkpt lat="50.499265249818563" lon="6.260770792141557">
        <ele>530.88</ele>
        <time>2019-04-24T08:43:57Z</time>
      </trkpt>
      <trkpt lat="50.49920255318284" lon="6.261242609471083">
        <ele>532.45000000000005</ele>
        <time>2019-04-24T08:44:16Z</time>
      </trkpt>
      <trkpt lat="50.499176485463977" lon="6.261416617780924">
        <ele>534.52999999999997</ele>
        <time>2019-04-24T08:44:23Z</time>
      </trkpt>
      <trkpt lat="50.499171875417233" lon="6.261439919471741">
        <ele>534.52999999999997</ele>
        <time>2019-04-24T08:44:24Z</time>
      </trkpt>
      <trkpt lat="50.499159386381507" lon="6.261497335508466">
        <ele>534.17999999999995</ele>
        <time>2019-04-24T08:44:26Z</time>
      </trkpt>
      <trkpt lat="50.499142790213227" lon="6.261844346299768">
        <ele>535.27999999999997</ele>
        <time>2019-04-24T08:44:41Z</time>
      </trkpt>
      <trkpt lat="50.499149244278669" lon="6.261928332969546">
        <ele>535.32000000000005</ele>
        <time>2019-04-24T08:44:45Z</time>
      </trkpt>
      <trkpt lat="50.499263154342771" lon="6.262175096198916">
        <ele>536.94000000000005</ele>
        <time>2019-04-24T08:45:00Z</time>
      </trkpt>
      <trkpt lat="50.499301124364138" lon="6.262207701802254">
        <ele>536.96000000000004</ele>
        <time>2019-04-24T08:45:03Z</time>
      </trkpt>
      <trkpt lat="50.499328030273318" lon="6.262232176959515">
        <ele>540.30999999999995</ele>
        <time>2019-04-24T08:45:05Z</time>
      </trkpt>
      <trkpt lat="50.49935594201088" lon="6.262254472821951">
        <ele>538.00999999999999</ele>
        <time>2019-04-24T08:45:07Z</time>
      </trkpt>
      <trkpt lat="50.499509163200855" lon="6.262442395091057">
        <ele>537.97000000000003</ele>
        <time>2019-04-24T08:45:20Z</time>
      </trkpt>
      <trkpt lat="50.499662384390831" lon="6.262552030384541">
        <ele>540.55999999999995</ele>
        <time>2019-04-24T08:45:32Z</time>
      </trkpt>
      <trkpt lat="50.499825831502676" lon="6.262749759480357">
        <ele>542.37</ele>
        <time>2019-04-24T08:45:48Z</time>
      </trkpt>
      <trkpt lat="50.4999990016222" lon="6.26295804977417">
        <ele>542.36000000000001</ele>
        <time>2019-04-24T08:46:02Z</time>
      </trkpt>
      <trkpt lat="50.500194132328033" lon="6.263146810233593">
        <ele>543.15999999999997</ele>
        <time>2019-04-24T08:46:18Z</time>
      </trkpt>
      <trkpt lat="50.500241154804826" lon="6.263189977034926">
        <ele>543.14999999999998</ele>
        <time>2019-04-24T08:46:22Z</time>
      </trkpt>
      <trkpt lat="50.500401835888624" lon="6.263394244015217">
        <ele>544.01999999999998</ele>
        <time>2019-04-24T08:46:37Z</time>
      </trkpt>
      <trkpt lat="50.500598223879933" lon="6.263605216518045">
        <ele>545.70000000000005</ele>
        <time>2019-04-24T08:46:54Z</time>
      </trkpt>
      <trkpt lat="50.500760413706303" lon="6.263724574819207">
        <ele>545.63999999999999</ele>
        <time>2019-04-24T08:47:07Z</time>
      </trkpt>
      <trkpt lat="50.500805089250207" lon="6.26376916654408">
        <ele>546.73000000000002</ele>
        <time>2019-04-24T08:47:20Z</time>
      </trkpt>
      <trkpt lat="50.500815650448203" lon="6.263761958107352">
        <ele>548.07000000000005</ele>
        <time>2019-04-24T08:47:33Z</time>
      </trkpt>
      <trkpt lat="50.500779105350375" lon="6.263771345838904">
        <ele>545.67999999999995</ele>
        <time>2019-04-24T08:47:43Z</time>
      </trkpt>
      <trkpt lat="50.500787571072578" lon="6.263781571760774">
        <ele>544.36000000000001</ele>
        <time>2019-04-24T08:47:51Z</time>
      </trkpt>
      <trkpt lat="50.500778099521995" lon="6.263762880116701">
        <ele>544.41999999999996</ele>
        <time>2019-04-24T08:48:13Z</time>
      </trkpt>
      <trkpt lat="50.500800646841526" lon="6.263744942843914">
        <ele>543.11000000000001</ele>
        <time>2019-04-24T08:48:35Z</time>
      </trkpt>
      <trkpt lat="50.500805843621492" lon="6.263743182644248">
        <ele>546.74000000000001</ele>
        <time>2019-04-24T08:48:36Z</time>
      </trkpt>
      <trkpt lat="50.500812968239188" lon="6.263749469071627">
        <ele>546.75999999999999</ele>
        <time>2019-04-24T08:48:37Z</time>
      </trkpt>
      <trkpt lat="50.500984126701951" lon="6.263966141268611">
        <ele>546.79999999999995</ele>
        <time>2019-04-24T08:48:53Z</time>
      </trkpt>
      <trkpt lat="50.501011284068227" lon="6.263999836519361">
        <ele>546.79999999999995</ele>
        <time>2019-04-24T08:48:55Z</time>
      </trkpt>
      <trkpt lat="50.501113459467888" lon="6.264115087687969">
        <ele>548.75999999999999</ele>
        <time>2019-04-24T08:49:03Z</time>
      </trkpt>
      <trkpt lat="50.501166768372059" lon="6.264188680797815">
        <ele>545.49000000000001</ele>
        <time>2019-04-24T08:49:07Z</time>
      </trkpt>
      <trkpt lat="50.501179257407784" lon="6.264203935861588">
        <ele>549.25</ele>
        <time>2019-04-24T08:49:08Z</time>
      </trkpt>
      <trkpt lat="50.501270536333323" lon="6.264314660802484">
        <ele>545.94000000000005</ele>
        <time>2019-04-24T08:49:15Z</time>
      </trkpt>
      <trkpt lat="50.50128604285419" lon="6.264328239485622">
        <ele>545.95000000000005</ele>
        <time>2019-04-24T08:49:16Z</time>
      </trkpt>
      <trkpt lat="50.501364162191749" lon="6.264399066567421">
        <ele>548.63</ele>
        <time>2019-04-24T08:49:20Z</time>
      </trkpt>
      <trkpt lat="50.501631880179048" lon="6.264738198369741">
        <ele>548.73000000000002</ele>
        <time>2019-04-24T08:49:32Z</time>
      </trkpt>
      <trkpt lat="50.501751154661179" lon="6.264843894168735">
        <ele>552.73000000000002</ele>
        <time>2019-04-24T08:49:36Z</time>
      </trkpt>
      <trkpt lat="50.501778647303581" lon="6.264869375154376">
        <ele>552.73000000000002</ele>
        <time>2019-04-24T08:49:37Z</time>
      </trkpt>
      <trkpt lat="50.501902364194393" lon="6.264969119802117">
        <ele>550.49000000000001</ele>
        <time>2019-04-24T08:49:42Z</time>
      </trkpt>
      <trkpt lat="50.502180894836783" lon="6.265068780630827">
        <ele>552.97000000000003</ele>
        <time>2019-04-24T08:49:51Z</time>
      </trkpt>
      <trkpt lat="50.502442242577672" lon="6.265029804781079">
        <ele>554.60000000000002</ele>
        <time>2019-04-24T08:50:02Z</time>
      </trkpt>
      <trkpt lat="50.502661094069481" lon="6.26497364602983">
        <ele>557.34000000000003</ele>
        <time>2019-04-24T08:50:10Z</time>
      </trkpt>
      <trkpt lat="50.502772489562631" lon="6.264955624938011">
        <ele>558.63999999999999</ele>
        <time>2019-04-24T08:50:14Z</time>
      </trkpt>
      <trkpt lat="50.502987401559949" lon="6.265168022364378">
        <ele>559.48000000000002</ele>
        <time>2019-04-24T08:50:23Z</time>
      </trkpt>
      <trkpt lat="50.503016067668796" lon="6.265275897458196">
        <ele>559.47000000000003</ele>
        <time>2019-04-24T08:50:29Z</time>
      </trkpt>
      <trkpt lat="50.503048924729228" lon="6.265319064259529">
        <ele>559.47000000000003</ele>
        <time>2019-04-24T08:50:32Z</time>
      </trkpt>
      <trkpt lat="50.503144729882479" lon="6.265615867450833">
        <ele>559.47000000000003</ele>
        <time>2019-04-24T08:50:46Z</time>
      </trkpt>
      <trkpt lat="50.503163253888488" lon="6.265731705352664">
        <ele>559.47000000000003</ele>
        <time>2019-04-24T08:50:51Z</time>
      </trkpt>
      <trkpt lat="50.503170546144247" lon="6.265779985114932">
        <ele>553.72000000000003</ele>
        <time>2019-04-24T08:50:53Z</time>
      </trkpt>
      <trkpt lat="50.503174820914865" lon="6.265804627910256">
        <ele>558.90999999999997</ele>
        <time>2019-04-24T08:50:54Z</time>
      </trkpt>
      <trkpt lat="50.503181107342243" lon="6.26582533121109">
        <ele>553.96000000000004</ele>
        <time>2019-04-24T08:50:55Z</time>
      </trkpt>
      <trkpt lat="50.503185968846083" lon="6.265844022855163">
        <ele>558.42999999999995</ele>
        <time>2019-04-24T08:50:56Z</time>
      </trkpt>
      <trkpt lat="50.503241457045078" lon="6.266055749729276">
        <ele>558.40999999999997</ele>
        <time>2019-04-24T08:51:06Z</time>
      </trkpt>
      <trkpt lat="50.503233578056097" lon="6.266215173527598">
        <ele>558.39999999999998</ele>
        <time>2019-04-24T08:51:11Z</time>
      </trkpt>
      <trkpt lat="50.503256628289819" lon="6.266446011140943">
        <ele>558.41999999999996</ele>
        <time>2019-04-24T08:51:20Z</time>
      </trkpt>
      <trkpt lat="50.503402892500162" lon="6.266819005832076">
        <ele>558.41999999999996</ele>
        <time>2019-04-24T08:51:38Z</time>
      </trkpt>
      <trkpt lat="50.503540774807334" lon="6.26706057228148">
        <ele>558.39999999999998</ele>
        <time>2019-04-24T08:51:52Z</time>
      </trkpt>
      <trkpt lat="50.50362316891551" lon="6.267169453203678">
        <ele>558.40999999999997</ele>
        <time>2019-04-24T08:51:59Z</time>
      </trkpt>
      <trkpt lat="50.503679495304823" lon="6.267234245315194">
        <ele>558.40999999999997</ele>
        <time>2019-04-24T08:52:04Z</time>
      </trkpt>
      <trkpt lat="50.50386062823236" lon="6.267404733225703">
        <ele>559.23000000000002</ele>
        <time>2019-04-24T08:52:19Z</time>
      </trkpt>
      <trkpt lat="50.504049807786942" lon="6.267580250278115">
        <ele>560.22000000000003</ele>
        <time>2019-04-24T08:52:35Z</time>
      </trkpt>
      <trkpt lat="50.504263378679752" lon="6.267812512814999">
        <ele>561.13999999999999</ele>
        <time>2019-04-24T08:52:53Z</time>
      </trkpt>
      <trkpt lat="50.504387430846691" lon="6.268134377896786">
        <ele>561.16999999999996</ele>
        <time>2019-04-24T08:53:09Z</time>
      </trkpt>
      <trkpt lat="50.504530258476734" lon="6.268453812226653">
        <ele>561.23000000000002</ele>
        <time>2019-04-24T08:53:26Z</time>
      </trkpt>
      <trkpt lat="50.504690352827311" lon="6.268846420571208">
        <ele>562.15999999999997</ele>
        <time>2019-04-24T08:53:46Z</time>
      </trkpt>
      <trkpt lat="50.504843825474381" lon="6.269099973142147">
        <ele>563.02999999999997</ele>
        <time>2019-04-24T08:54:01Z</time>
      </trkpt>
      <trkpt lat="50.505011295899749" lon="6.269339611753821">
        <ele>563.08000000000004</ele>
        <time>2019-04-24T08:54:16Z</time>
      </trkpt>
      <trkpt lat="50.505164684727788" lon="6.269578747451305">
        <ele>563.16999999999996</ele>
        <time>2019-04-24T08:54:31Z</time>
      </trkpt>
      <trkpt lat="50.505309021100402" lon="6.269856942817569">
        <ele>563.99000000000001</ele>
        <time>2019-04-24T08:54:46Z</time>
      </trkpt>
      <trkpt lat="50.505417482927442" lon="6.270025838166475">
        <ele>564.02999999999997</ele>
        <time>2019-04-24T08:54:58Z</time>
      </trkpt>
      <trkpt lat="50.505487807095051" lon="6.270148046314716">
        <ele>564.89999999999998</ele>
        <time>2019-04-24T08:55:06Z</time>
      </trkpt>
      <trkpt lat="50.505502140149474" lon="6.270190207287669">
        <ele>564.89999999999998</ele>
        <time>2019-04-24T08:55:08Z</time>
      </trkpt>
      <trkpt lat="50.505572631955147" lon="6.27037737518549">
        <ele>566.58000000000004</ele>
        <time>2019-04-24T08:55:18Z</time>
      </trkpt>
      <trkpt lat="50.505630299448967" lon="6.270532356575131">
        <ele>566.52999999999997</ele>
        <time>2019-04-24T08:55:26Z</time>
      </trkpt>
      <trkpt lat="50.505776982754469" lon="6.270829578861594">
        <ele>566.45000000000005</ele>
        <time>2019-04-24T08:55:40Z</time>
      </trkpt>
      <trkpt lat="50.505980243906379" lon="6.271094111725688">
        <ele>566.33000000000004</ele>
        <time>2019-04-24T08:55:56Z</time>
      </trkpt>
      <trkpt lat="50.50617135129869" lon="6.271247416734695">
        <ele>566.25</ele>
        <time>2019-04-24T08:56:10Z</time>
      </trkpt>
      <trkpt lat="50.506290961056948" lon="6.271406002342701">
        <ele>566.92999999999995</ele>
        <time>2019-04-24T08:56:22Z</time>
      </trkpt>
      <trkpt lat="50.506524397060275" lon="6.271646479144692">
        <ele>567.62</ele>
        <time>2019-04-24T08:56:39Z</time>
      </trkpt>
      <trkpt lat="50.506585417315364" lon="6.27172501757741">
        <ele>568.48000000000002</ele>
        <time>2019-04-24T08:56:45Z</time>
      </trkpt>
      <trkpt lat="50.506702261045575" lon="6.271818140521646">
        <ele>569.17999999999995</ele>
        <time>2019-04-24T08:57:00Z</time>
      </trkpt>
      <trkpt lat="50.506915580481291" lon="6.272031040862203">
        <ele>569.95000000000005</ele>
        <time>2019-04-24T08:57:18Z</time>
      </trkpt>
      <trkpt lat="50.50694240257144" lon="6.272039506584406">
        <ele>570.77999999999997</ele>
        <time>2019-04-24T08:57:20Z</time>
      </trkpt>
      <trkpt lat="50.50717156380415" lon="6.27226690761745">
        <ele>571.44000000000005</ele>
        <time>2019-04-24T08:57:38Z</time>
      </trkpt>
      <trkpt lat="50.507200481370091" lon="6.272288113832474">
        <ele>571.42999999999995</ele>
        <time>2019-04-24T08:57:39Z</time>
      </trkpt>
      <trkpt lat="50.507384045049548" lon="6.272376039996743">
        <ele>572.02999999999997</ele>
        <time>2019-04-24T08:57:57Z</time>
      </trkpt>
      <trkpt lat="50.507451603189111" lon="6.272445945069194">
        <ele>572.72000000000003</ele>
        <time>2019-04-24T08:58:07Z</time>
      </trkpt>
      <trkpt lat="50.507560400292277" lon="6.272557843476534">
        <ele>572.67999999999995</ele>
        <time>2019-04-24T08:58:15Z</time>
      </trkpt>
      <trkpt lat="50.507734576240182" lon="6.272754985839129">
        <ele>573.38999999999999</ele>
        <time>2019-04-24T08:58:29Z</time>
      </trkpt>
      <trkpt lat="50.507933814078569" lon="6.272914744913578">
        <ele>574.28999999999996</ele>
        <time>2019-04-24T08:58:44Z</time>
      </trkpt>
      <trkpt lat="50.508084269240499" lon="6.273050950840116">
        <ele>574.25</ele>
        <time>2019-04-24T08:58:57Z</time>
      </trkpt>
      <trkpt lat="50.508276466280222" lon="6.273258067667484">
        <ele>574.96000000000004</ele>
        <time>2019-04-24T08:59:14Z</time>
      </trkpt>
      <trkpt lat="50.508451899513602" lon="6.273362590000033">
        <ele>575.66999999999996</ele>
        <time>2019-04-24T08:59:27Z</time>
      </trkpt>
      <trkpt lat="50.508483666926622" lon="6.273386478424072">
        <ele>575.65999999999997</ele>
        <time>2019-04-24T08:59:29Z</time>
      </trkpt>
      <trkpt lat="50.508705284446478" lon="6.273518661037087">
        <ele>575.53999999999996</ele>
        <time>2019-04-24T08:59:45Z</time>
      </trkpt>
      <trkpt lat="50.50889303907752" lon="6.273689987137914">
        <ele>575.42999999999995</ele>
        <time>2019-04-24T09:00:03Z</time>
      </trkpt>
      <trkpt lat="50.509063946083188" lon="6.273841364309192">
        <ele>576.10000000000002</ele>
        <time>2019-04-24T09:00:17Z</time>
      </trkpt>
      <trkpt lat="50.509198224171996" lon="6.273937337100506">
        <ele>576.02999999999997</ele>
        <time>2019-04-24T09:00:27Z</time>
      </trkpt>
      <trkpt lat="50.509338621050119" lon="6.274068681523204">
        <ele>576.73000000000002</ele>
        <time>2019-04-24T09:00:37Z</time>
      </trkpt>
      <trkpt lat="50.509403496980667" lon="6.274144118651748">
        <ele>576.69000000000005</ele>
        <time>2019-04-24T09:00:43Z</time>
      </trkpt>
      <trkpt lat="50.509567447006702" lon="6.274242522194982">
        <ele>576.60000000000002</ele>
        <time>2019-04-24T09:00:55Z</time>
      </trkpt>
      <trkpt lat="50.509685212746263" lon="6.274368669837713">
        <ele>576.52999999999997</ele>
        <time>2019-04-24T09:01:07Z</time>
      </trkpt>
      <trkpt lat="50.509899957105517" lon="6.274587940424681">
        <ele>576.47000000000003</ele>
        <time>2019-04-24T09:01:22Z</time>
      </trkpt>
      <trkpt lat="50.510000875219703" lon="6.274729343131185">
        <ele>576.42999999999995</ele>
        <time>2019-04-24T09:01:32Z</time>
      </trkpt>
      <trkpt lat="50.510079162195325" lon="6.274763960391283">
        <ele>574.04999999999995</ele>
        <time>2019-04-24T09:01:37Z</time>
      </trkpt>
      <trkpt lat="50.510204052552581" lon="6.274930089712143">
        <ele>573.20000000000005</ele>
        <time>2019-04-24T09:01:50Z</time>
      </trkpt>
      <trkpt lat="50.510260798037052" lon="6.274965880438685">
        <ele>573.21000000000004</ele>
        <time>2019-04-24T09:01:54Z</time>
      </trkpt>
      <trkpt lat="50.510331792756915" lon="6.275026984512806">
        <ele>572.41999999999996</ele>
        <time>2019-04-24T09:02:00Z</time>
      </trkpt>
      <trkpt lat="50.51054167561233" lon="6.275207698345184">
        <ele>572.41999999999996</ele>
        <time>2019-04-24T09:02:16Z</time>
      </trkpt>
      <trkpt lat="50.510692466050386" lon="6.27532621845603">
        <ele>571.53999999999996</ele>
        <time>2019-04-24T09:02:28Z</time>
      </trkpt>
      <trkpt lat="50.510831521824002" lon="6.275482540950179">
        <ele>567.92999999999995</ele>
        <time>2019-04-24T09:02:42Z</time>
      </trkpt>
      <trkpt lat="50.510846525430679" lon="6.275498382747173">
        <ele>571.38</ele>
        <time>2019-04-24T09:02:43Z</time>
      </trkpt>
      <trkpt lat="50.51092573441565" lon="6.275560492649674">
        <ele>571.40999999999997</ele>
        <time>2019-04-24T09:02:48Z</time>
      </trkpt>
      <trkpt lat="50.5109818931669" lon="6.275594355538487">
        <ele>571.40999999999997</ele>
        <time>2019-04-24T09:02:52Z</time>
      </trkpt>
      <trkpt lat="50.51113972440362" lon="6.275673732161522">
        <ele>571.42999999999995</ele>
        <time>2019-04-24T09:03:00Z</time>
      </trkpt>
      <trkpt lat="50.511306691914797" lon="6.2758216727525">
        <ele>571.42999999999995</ele>
        <time>2019-04-24T09:03:13Z</time>
      </trkpt>
      <trkpt lat="50.511338040232658" lon="6.275876658037305">
        <ele>571.45000000000005</ele>
        <time>2019-04-24T09:03:17Z</time>
      </trkpt>
      <trkpt lat="50.511392019689083" lon="6.275902977213264">
        <ele>569.12</ele>
        <time>2019-04-24T09:03:21Z</time>
      </trkpt>
      <trkpt lat="50.511537613347173" lon="6.276070112362504">
        <ele>564.14999999999998</ele>
        <time>2019-04-24T09:03:35Z</time>
      </trkpt>
      <trkpt lat="50.511547168716788" lon="6.276083942502737">
        <ele>570.49000000000001</ele>
        <time>2019-04-24T09:03:36Z</time>
      </trkpt>
      <trkpt lat="50.511594442650676" lon="6.276114033535123">
        <ele>567.89999999999998</ele>
        <time>2019-04-24T09:03:39Z</time>
      </trkpt>
      <trkpt lat="50.511680776253343" lon="6.276185614988208">
        <ele>564.88</ele>
        <time>2019-04-24T09:03:47Z</time>
      </trkpt>
      <trkpt lat="50.511691505089402" lon="6.27619206905365">
        <ele>568.21000000000004</ele>
        <time>2019-04-24T09:03:48Z</time>
      </trkpt>
      <trkpt lat="50.511699803173542" lon="6.276205228641629">
        <ele>564.60000000000002</ele>
        <time>2019-04-24T09:03:49Z</time>
      </trkpt>
      <trkpt lat="50.511706424877048" lon="6.276214197278023">
        <ele>567.24000000000001</ele>
        <time>2019-04-24T09:03:50Z</time>
      </trkpt>
      <trkpt lat="50.511735007166862" lon="6.276252586394548">
        <ele>566.98000000000002</ele>
        <time>2019-04-24T09:03:53Z</time>
      </trkpt>
      <trkpt lat="50.511895017698407" lon="6.276470934972167">
        <ele>566.91999999999996</ele>
        <time>2019-04-24T09:04:06Z</time>
      </trkpt>
      <trkpt lat="50.511909602209926" lon="6.27655366435647">
        <ele>564.35000000000002</ele>
        <time>2019-04-24T09:04:09Z</time>
      </trkpt>
      <trkpt lat="50.511910021305084" lon="6.276574954390526">
        <ele>564.34000000000003</ele>
        <time>2019-04-24T09:04:10Z</time>
      </trkpt>
      <trkpt lat="50.511883199214935" lon="6.276766732335091">
        <ele>564.32000000000005</ele>
        <time>2019-04-24T09:04:19Z</time>
      </trkpt>
      <trkpt lat="50.511767109856009" lon="6.277147857472301">
        <ele>563.5</ele>
        <time>2019-04-24T09:04:37Z</time>
      </trkpt>
      <trkpt lat="50.511759147047997" lon="6.277175266295672">
        <ele>563.50999999999999</ele>
        <time>2019-04-24T09:04:38Z</time>
      </trkpt>
      <trkpt lat="50.511667197570205" lon="6.277486318722367">
        <ele>561.75</ele>
        <time>2019-04-24T09:04:52Z</time>
      </trkpt>
      <trkpt lat="50.511610032990575" lon="6.277839364483953">
        <ele>560.09000000000003</ele>
        <time>2019-04-24T09:05:08Z</time>
      </trkpt>
      <trkpt lat="50.511531913653016" lon="6.278126193210483">
        <ele>554.10000000000002</ele>
        <time>2019-04-24T09:05:21Z</time>
      </trkpt>
      <trkpt lat="50.511524872854352" lon="6.278145052492619">
        <ele>560.38</ele>
        <time>2019-04-24T09:05:22Z</time>
      </trkpt>
      <trkpt lat="50.511488495394588" lon="6.278229290619493">
        <ele>557.92999999999995</ele>
        <time>2019-04-24T09:05:25Z</time>
      </trkpt>
      <trkpt lat="50.511343739926815" lon="6.27870119176805">
        <ele>554.63</ele>
        <time>2019-04-24T09:05:37Z</time>
      </trkpt>
      <trkpt lat="50.511292610317469" lon="6.278910990804434">
        <ele>553.14999999999998</ele>
        <time>2019-04-24T09:05:42Z</time>
      </trkpt>
      <trkpt lat="50.511275008320808" lon="6.279447600245476">
        <ele>553.20000000000005</ele>
        <time>2019-04-24T09:05:54Z</time>
      </trkpt>
      <trkpt lat="50.511275762692094" lon="6.279863007366657">
        <ele>551.19000000000005</ele>
        <time>2019-04-24T09:06:06Z</time>
      </trkpt>
      <trkpt lat="50.511313984170556" lon="6.280293669551611">
        <ele>550.38999999999999</ele>
        <time>2019-04-24T09:06:19Z</time>
      </trkpt>
      <trkpt lat="50.511325551196933" lon="6.280764397233725">
        <ele>550.44000000000005</ele>
        <time>2019-04-24T09:06:30Z</time>
      </trkpt>
      <trkpt lat="50.511344326660037" lon="6.281381053850055">
        <ele>549.5</ele>
        <time>2019-04-24T09:06:41Z</time>
      </trkpt>
      <trkpt lat="50.511392271146178" lon="6.282643536105752">
        <ele>546.38999999999999</ele>
        <time>2019-04-24T09:07:09Z</time>
      </trkpt>
      <trkpt lat="50.511439964175224" lon="6.283022565767169">
        <ele>546.38</ele>
        <time>2019-04-24T09:07:30Z</time>
      </trkpt>
      <trkpt lat="50.511566363275051" lon="6.283380808308721">
        <ele>546.35000000000002</ele>
        <time>2019-04-24T09:07:46Z</time>
      </trkpt>
      <trkpt lat="50.511662838980556" lon="6.283769393339753">
        <ele>544.50999999999999</ele>
        <time>2019-04-24T09:08:04Z</time>
      </trkpt>
      <trkpt lat="50.511671053245664" lon="6.28378439694643">
        <ele>544.51999999999998</ele>
        <time>2019-04-24T09:08:05Z</time>
      </trkpt>
      <trkpt lat="50.511703994125128" lon="6.284070806577802">
        <ele>542.62</ele>
        <time>2019-04-24T09:08:18Z</time>
      </trkpt>
      <trkpt lat="50.51175638101995" lon="6.284441789612174">
        <ele>541.90999999999997</ele>
        <time>2019-04-24T09:08:33Z</time>
      </trkpt>
      <trkpt lat="50.511830896139145" lon="6.284747309982777">
        <ele>540.24000000000001</ele>
        <time>2019-04-24T09:08:46Z</time>
      </trkpt>
      <trkpt lat="50.512020997703075" lon="6.285218624398112">
        <ele>537.78999999999996</ele>
        <time>2019-04-24T09:09:15Z</time>
      </trkpt>
      <trkpt lat="50.512234233319759" lon="6.285438565537334">
        <ele>536.91999999999996</ele>
        <time>2019-04-24T09:09:33Z</time>
      </trkpt>
      <trkpt lat="50.512416707351804" lon="6.285651549696922">
        <ele>534.99000000000001</ele>
        <time>2019-04-24T09:09:48Z</time>
      </trkpt>
      <trkpt lat="50.512492060661316" lon="6.285723969340324">
        <ele>532.78999999999996</ele>
        <time>2019-04-24T09:09:53Z</time>
      </trkpt>
      <trkpt lat="50.512512009590864" lon="6.28576286137104">
        <ele>535.40999999999997</ele>
        <time>2019-04-24T09:09:55Z</time>
      </trkpt>
      <trkpt lat="50.512602366507053" lon="6.285840813070536">
        <ele>533.00999999999999</ele>
        <time>2019-04-24T09:10:01Z</time>
      </trkpt>
      <trkpt lat="50.512801771983504" lon="6.28606528043747">
        <ele>531.98000000000002</ele>
        <time>2019-04-24T09:10:17Z</time>
      </trkpt>
      <trkpt lat="50.51282063126564" lon="6.286140801385045">
        <ele>531.97000000000003</ele>
        <time>2019-04-24T09:10:20Z</time>
      </trkpt>
      <trkpt lat="50.512862037867308" lon="6.28616695292294">
        <ele>531.02999999999997</ele>
        <time>2019-04-24T09:10:23Z</time>
      </trkpt>
      <trkpt lat="50.513043673709035" lon="6.2863296456635">
        <ele>530.13</ele>
        <time>2019-04-24T09:10:38Z</time>
      </trkpt>
      <trkpt lat="50.513080386444926" lon="6.286380859091878">
        <ele>530.12</ele>
        <time>2019-04-24T09:10:41Z</time>
      </trkpt>
      <trkpt lat="50.513144508004189" lon="6.286526704207063">
        <ele>529.19000000000005</ele>
        <time>2019-04-24T09:10:48Z</time>
      </trkpt>
      <trkpt lat="50.513026155531406" lon="6.286681685596705">
        <ele>531.84000000000003</ele>
        <time>2019-04-24T09:11:00Z</time>
      </trkpt>
      <trkpt lat="50.512949042022228" lon="6.286746058613062">
        <ele>531.75999999999999</ele>
        <time>2019-04-24T09:11:06Z</time>
      </trkpt>
      <trkpt lat="50.512899085879326" lon="6.286787381395698">
        <ele>531.70000000000005</ele>
        <time>2019-04-24T09:11:10Z</time>
      </trkpt>
      <trkpt lat="50.512740248814225" lon="6.286893412470818">
        <ele>531.57000000000005</ele>
        <time>2019-04-24T09:11:24Z</time>
      </trkpt>
      <trkpt lat="50.512536820024252" lon="6.28698100335896">
        <ele>531.38</ele>
        <time>2019-04-24T09:11:37Z</time>
      </trkpt>
      <trkpt lat="50.512315118685365" lon="6.287019392475486">
        <ele>531.21000000000004</ele>
        <time>2019-04-24T09:11:51Z</time>
      </trkpt>
      <trkpt lat="50.511939860880375" lon="6.287296749651432">
        <ele>530.96000000000004</ele>
        <time>2019-04-24T09:12:17Z</time>
      </trkpt>
      <trkpt lat="50.511918067932129" lon="6.287332456558943">
        <ele>530.96000000000004</ele>
        <time>2019-04-24T09:12:19Z</time>
      </trkpt>
      <trkpt lat="50.511854365468025" lon="6.287429770454764">
        <ele>530.94000000000005</ele>
        <time>2019-04-24T09:12:25Z</time>
      </trkpt>
      <trkpt lat="50.511736935004592" lon="6.287687513977289">
        <ele>531.92999999999995</ele>
        <time>2019-04-24T09:12:39Z</time>
      </trkpt>
      <trkpt lat="50.511695863679051" lon="6.287729423493147">
        <ele>531.91999999999996</ele>
        <time>2019-04-24T09:12:45Z</time>
      </trkpt>
      <trkpt lat="50.511605842038989" lon="6.287842746824026">
        <ele>531.89999999999998</ele>
        <time>2019-04-24T09:12:52Z</time>
      </trkpt>
      <trkpt lat="50.511547001078725" lon="6.287926901131868">
        <ele>534.70000000000005</ele>
        <time>2019-04-24T09:12:57Z</time>
      </trkpt>
      <trkpt lat="50.511360922828317" lon="6.288154805079103">
        <ele>536.82000000000005</ele>
        <time>2019-04-24T09:13:11Z</time>
      </trkpt>
      <trkpt lat="50.51116612739861" lon="6.288326214998961">
        <ele>536.70000000000005</ele>
        <time>2019-04-24T09:13:23Z</time>
      </trkpt>
      <trkpt lat="50.510855158790946" lon="6.288694515824318">
        <ele>538.83000000000004</ele>
        <time>2019-04-24T09:13:36Z</time>
      </trkpt>
      <trkpt lat="50.510618789121509" lon="6.28915585577488">
        <ele>541.05999999999995</ele>
        <time>2019-04-24T09:13:48Z</time>
      </trkpt>
      <trkpt lat="50.510439751669765" lon="6.289499178528786">
        <ele>543.14999999999998</ele>
        <time>2019-04-24T09:13:56Z</time>
      </trkpt>
      <trkpt lat="50.510194413363934" lon="6.290061268955469">
        <ele>543.96000000000004</ele>
        <time>2019-04-24T09:14:08Z</time>
      </trkpt>
      <trkpt lat="50.510106068104506" lon="6.290525291115046">
        <ele>545.96000000000004</ele>
        <time>2019-04-24T09:14:18Z</time>
      </trkpt>
      <trkpt lat="50.510058039799333" lon="6.291225096210837">
        <ele>545.99000000000001</ele>
        <time>2019-04-24T09:14:32Z</time>
      </trkpt>
      <trkpt lat="50.510028284043074" lon="6.291513852775097">
        <ele>545.94000000000005</ele>
        <time>2019-04-24T09:14:38Z</time>
      </trkpt>
      <trkpt lat="50.510021578520536" lon="6.291568838059902">
        <ele>545.95000000000005</ele>
        <time>2019-04-24T09:14:39Z</time>
      </trkpt>
      <trkpt lat="50.509933484718204" lon="6.292166048660874">
        <ele>546.07000000000005</ele>
        <time>2019-04-24T09:14:51Z</time>
      </trkpt>
      <trkpt lat="50.509863747283816" lon="6.292551197111607">
        <ele>546.05999999999995</ele>
        <time>2019-04-24T09:15:03Z</time>
      </trkpt>
      <trkpt lat="50.509790992364287" lon="6.292968448251486">
        <ele>547.87</ele>
        <time>2019-04-24T09:15:19Z</time>
      </trkpt>
      <trkpt lat="50.509722596034408" lon="6.293290061876178">
        <ele>544.84000000000003</ele>
        <time>2019-04-24T09:15:32Z</time>
      </trkpt>
      <trkpt lat="50.509716477245092" lon="6.293309507891536">
        <ele>548.09000000000003</ele>
        <time>2019-04-24T09:15:33Z</time>
      </trkpt>
      <trkpt lat="50.5095917545259" lon="6.293639587238431">
        <ele>545.52999999999997</ele>
        <time>2019-04-24T09:15:49Z</time>
      </trkpt>
      <trkpt lat="50.509475162252784" lon="6.294000344350934">
        <ele>545.55999999999995</ele>
        <time>2019-04-24T09:16:06Z</time>
      </trkpt>
      <trkpt lat="50.509374663233757" lon="6.294319778680801">
        <ele>544.64999999999998</ele>
        <time>2019-04-24T09:16:21Z</time>
      </trkpt>
      <trkpt lat="50.509277181699872" lon="6.294572073966265">
        <ele>542.15999999999997</ele>
        <time>2019-04-24T09:16:33Z</time>
      </trkpt>
      <trkpt lat="50.509266369044781" lon="6.294590011239052">
        <ele>546.72000000000003</ele>
        <time>2019-04-24T09:16:34Z</time>
      </trkpt>
      <trkpt lat="50.509256310760975" lon="6.294607361778617">
        <ele>546.73000000000002</ele>
        <time>2019-04-24T09:16:35Z</time>
      </trkpt>
      <trkpt lat="50.509245498105884" lon="6.294624796137214">
        <ele>543.25</ele>
        <time>2019-04-24T09:16:36Z</time>
      </trkpt>
      <trkpt lat="50.509236697107553" lon="6.294644325971603">
        <ele>543.23000000000002</ele>
        <time>2019-04-24T09:16:37Z</time>
      </trkpt>
      <trkpt lat="50.509199313819408" lon="6.294758738949895">
        <ele>542.53999999999996</ele>
        <time>2019-04-24T09:16:42Z</time>
      </trkpt>
      <trkpt lat="50.509196799248457" lon="6.294783968478441">
        <ele>542.54999999999995</ele>
        <time>2019-04-24T09:16:43Z</time>
      </trkpt>
      <trkpt lat="50.50919302739203" lon="6.294812550768256">
        <ele>542.53999999999996</ele>
        <time>2019-04-24T09:16:44Z</time>
      </trkpt>
      <trkpt lat="50.509231835603714" lon="6.29507708363235">
        <ele>542.59000000000003</ele>
        <time>2019-04-24T09:16:55Z</time>
      </trkpt>
      <trkpt lat="50.50924239680171" lon="6.295093176886439">
        <ele>541.60000000000002</ele>
        <time>2019-04-24T09:16:56Z</time>
      </trkpt>
      <trkpt lat="50.509251616895199" lon="6.295107007026672">
        <ele>541.62</ele>
        <time>2019-04-24T09:16:57Z</time>
      </trkpt>
      <trkpt lat="50.509307440370321" lon="6.295260395854712">
        <ele>541.66999999999996</ele>
        <time>2019-04-24T09:17:05Z</time>
      </trkpt>
      <trkpt lat="50.50931615754962" lon="6.295280763879418">
        <ele>541.67999999999995</ele>
        <time>2019-04-24T09:17:06Z</time>
      </trkpt>
      <trkpt lat="50.50938849337399" lon="6.295363074168563">
        <ele>541.73000000000002</ele>
        <time>2019-04-24T09:17:14Z</time>
      </trkpt>
      <trkpt lat="50.509405843913555" lon="6.295359553769231">
        <ele>541.73000000000002</ele>
        <time>2019-04-24T09:17:15Z</time>
      </trkpt>
      <trkpt lat="50.509422942996025" lon="6.295353770256043">
        <ele>541.73000000000002</ele>
        <time>2019-04-24T09:17:16Z</time>
      </trkpt>
      <trkpt lat="50.509548336267471" lon="6.295275231823325">
        <ele>541.72000000000003</ele>
        <time>2019-04-24T09:17:25Z</time>
      </trkpt>
      <trkpt lat="50.509589072316885" lon="6.295265257358551">
        <ele>541.64999999999998</ele>
        <time>2019-04-24T09:17:28Z</time>
      </trkpt>
      <trkpt lat="50.509600723162293" lon="6.295260144397616">
        <ele>541.65999999999997</ele>
        <time>2019-04-24T09:17:29Z</time>
      </trkpt>
      <trkpt lat="50.509717902168632" lon="6.295241033658385">
        <ele>541.73000000000002</ele>
        <time>2019-04-24T09:17:38Z</time>
      </trkpt>
      <trkpt lat="50.509846564382315" lon="6.295280177146196">
        <ele>541.74000000000001</ele>
        <time>2019-04-24T09:17:51Z</time>
      </trkpt>
      <trkpt lat="50.509865758940578" lon="6.29531848244369">
        <ele>541.72000000000003</ele>
        <time>2019-04-24T09:17:54Z</time>
      </trkpt>
      <trkpt lat="50.510087460279465" lon="6.295509003102779">
        <ele>543.51999999999998</ele>
        <time>2019-04-24T09:18:06Z</time>
      </trkpt>
      <trkpt lat="50.510114450007677" lon="6.295695416629314">
        <ele>543.49000000000001</ele>
        <time>2019-04-24T09:18:07Z</time>
      </trkpt>
      <trkpt lat="50.510087460279465" lon="6.295724082738161">
        <ele>543.51999999999998</ele>
        <time>2019-04-24T09:18:08Z</time>
      </trkpt>
      <trkpt lat="50.510105397552252" lon="6.295652417466044">
        <ele>543.51999999999998</ele>
        <time>2019-04-24T09:18:09Z</time>
      </trkpt>
      <trkpt lat="50.510147893801332" lon="6.296395305544138">
        <ele>545.29999999999995</ele>
        <time>2019-04-24T09:18:48Z</time>
      </trkpt>
      <trkpt lat="50.510143032297492" lon="6.296520950272679">
        <ele>547.83000000000004</ele>
        <time>2019-04-24T09:18:54Z</time>
      </trkpt>
      <trkpt lat="50.510022584348917" lon="6.296835104003549">
        <ele>547.72000000000003</ele>
        <time>2019-04-24T09:19:09Z</time>
      </trkpt>
      <trkpt lat="50.510009843856096" lon="6.296856896951795">
        <ele>548.5</ele>
        <time>2019-04-24T09:19:11Z</time>
      </trkpt>
      <trkpt lat="50.510002635419369" lon="6.296872654929757">
        <ele>548.49000000000001</ele>
        <time>2019-04-24T09:19:12Z</time>
      </trkpt>
      <trkpt lat="50.509990314021707" lon="6.296886317431927">
        <ele>548.5</ele>
        <time>2019-04-24T09:19:13Z</time>
      </trkpt>
      <trkpt lat="50.509982435032725" lon="6.296898806467652">
        <ele>548.49000000000001</ele>
        <time>2019-04-24T09:19:14Z</time>
      </trkpt>
      <trkpt lat="50.509941531345248" lon="6.296936525031924">
        <ele>549.44000000000005</ele>
        <time>2019-04-24T09:19:18Z</time>
      </trkpt>
      <trkpt lat="50.50993281416595" lon="6.296947253867984">
        <ele>549.46000000000004</ele>
        <time>2019-04-24T09:19:19Z</time>
      </trkpt>
      <trkpt lat="50.509804571047425" lon="6.297080358490348">
        <ele>551.16999999999996</ele>
        <time>2019-04-24T09:19:31Z</time>
      </trkpt>
      <trkpt lat="50.509657384827733" lon="6.297207344323397">
        <ele>553.44000000000005</ele>
        <time>2019-04-24T09:19:43Z</time>
      </trkpt>
      <trkpt lat="50.509475246071815" lon="6.297351764515042">
        <ele>554.94000000000005</ele>
        <time>2019-04-24T09:19:57Z</time>
      </trkpt>
      <trkpt lat="50.509409196674824" lon="6.297432901337743">
        <ele>558.46000000000004</ele>
        <time>2019-04-24T09:20:04Z</time>
      </trkpt>
      <trkpt lat="50.509279444813728" lon="6.29752853885293">
        <ele>559.13999999999999</ele>
        <time>2019-04-24T09:20:14Z</time>
      </trkpt>
      <trkpt lat="50.509267626330256" lon="6.297538010403514">
        <ele>559.13999999999999</ele>
        <time>2019-04-24T09:20:15Z</time>
      </trkpt>
      <trkpt lat="50.50925656221807" lon="6.297547901049256">
        <ele>559.08000000000004</ele>
        <time>2019-04-24T09:20:16Z</time>
      </trkpt>
      <trkpt lat="50.509119099006057" lon="6.2976492382586">
        <ele>561.33000000000004</ele>
        <time>2019-04-24T09:20:26Z</time>
      </trkpt>
      <trkpt lat="50.508915837854147" lon="6.297768009826541">
        <ele>561.00999999999999</ele>
        <time>2019-04-24T09:20:41Z</time>
      </trkpt>
      <trkpt lat="50.508765382692218" lon="6.297858450561762">
        <ele>560.88999999999999</ele>
        <time>2019-04-24T09:20:51Z</time>
      </trkpt>
      <trkpt lat="50.508754486218095" lon="6.297864988446236">
        <ele>560.84000000000003</ele>
        <time>2019-04-24T09:20:52Z</time>
      </trkpt>
      <trkpt lat="50.508741913363338" lon="6.297881081700325">
        <ele>560.82000000000005</ele>
        <time>2019-04-24T09:20:53Z</time>
      </trkpt>
      <trkpt lat="50.508557846769691" lon="6.298097921535373">
        <ele>562.37</ele>
        <time>2019-04-24T09:21:05Z</time>
      </trkpt>
      <trkpt lat="50.508374031633139" lon="6.298363041132689">
        <ele>563.32000000000005</ele>
        <time>2019-04-24T09:21:15Z</time>
      </trkpt>
      <trkpt lat="50.508127016946673" lon="6.298607541248202">
        <ele>564.97000000000003</ele>
        <time>2019-04-24T09:21:25Z</time>
      </trkpt>
      <trkpt lat="50.507801799103618" lon="6.299010962247849">
        <ele>565.59000000000003</ele>
        <time>2019-04-24T09:21:37Z</time>
      </trkpt>
      <trkpt lat="50.507739270105958" lon="6.299127638339996">
        <ele>567.87</ele>
        <time>2019-04-24T09:21:40Z</time>
      </trkpt>
      <trkpt lat="50.507530309259892" lon="6.299499543383718">
        <ele>567.57000000000005</ele>
        <time>2019-04-24T09:21:50Z</time>
      </trkpt>
      <trkpt lat="50.50724389962852" lon="6.300042103976011">
        <ele>567.16999999999996</ele>
        <time>2019-04-24T09:22:03Z</time>
      </trkpt>
      <trkpt lat="50.507191009819508" lon="6.300138076767325">
        <ele>564.75</ele>
        <time>2019-04-24T09:22:05Z</time>
      </trkpt>
      <trkpt lat="50.506875934079289" lon="6.300620958209038">
        <ele>562.85000000000002</ele>
        <time>2019-04-24T09:22:17Z</time>
      </trkpt>
      <trkpt lat="50.506562618538737" lon="6.301188413053751">
        <ele>562.74000000000001</ele>
        <time>2019-04-24T09:22:29Z</time>
      </trkpt>
      <trkpt lat="50.506511069834232" lon="6.301270974799991">
        <ele>566.24000000000001</ele>
        <time>2019-04-24T09:22:31Z</time>
      </trkpt>
      <trkpt lat="50.506491456180811" lon="6.30129779689014">
        <ele>566.22000000000003</ele>
        <time>2019-04-24T09:22:32Z</time>
      </trkpt>
      <trkpt lat="50.506251147016883" lon="6.301674647256732">
        <ele>568.37</ele>
        <time>2019-04-24T09:22:42Z</time>
      </trkpt>
      <trkpt lat="50.506234550848603" lon="6.301702810451388">
        <ele>568.38999999999999</ele>
        <time>2019-04-24T09:22:43Z</time>
      </trkpt>
      <trkpt lat="50.506213763728738" lon="6.301741115748882">
        <ele>568.35000000000002</ele>
        <time>2019-04-24T09:22:44Z</time>
      </trkpt>
      <trkpt lat="50.505992481485009" lon="6.302038002759218">
        <ele>571.25999999999999</ele>
        <time>2019-04-24T09:22:52Z</time>
      </trkpt>
      <trkpt lat="50.505755357444286" lon="6.302376128733158">
        <ele>571.98000000000002</ele>
        <time>2019-04-24T09:23:02Z</time>
      </trkpt>
      <trkpt lat="50.505625689402223" lon="6.302570169791579">
        <ele>572.78999999999996</ele>
        <time>2019-04-24T09:23:09Z</time>
      </trkpt>
      <trkpt lat="50.505614122375846" lon="6.30258777178824">
        <ele>572.76999999999998</ele>
        <time>2019-04-24T09:23:10Z</time>
      </trkpt>
      <trkpt lat="50.505600459873676" lon="6.302608475089073">
        <ele>572.76999999999998</ele>
        <time>2019-04-24T09:23:11Z</time>
      </trkpt>
      <trkpt lat="50.505555616691709" lon="6.302661448717117">
        <ele>572.62</ele>
        <time>2019-04-24T09:23:17Z</time>
      </trkpt>
      <trkpt lat="50.505541199818254" lon="6.30267477594316">
        <ele>573.38</ele>
        <time>2019-04-24T09:23:19Z</time>
      </trkpt>
      <trkpt lat="50.505443969741464" lon="6.302887592464685">
        <ele>574.86000000000001</ele>
        <time>2019-04-24T09:23:41Z</time>
      </trkpt>
      <trkpt lat="50.505408346652985" lon="6.302992533892393">
        <ele>574.76999999999998</ele>
        <time>2019-04-24T09:24:04Z</time>
      </trkpt>
      <trkpt lat="50.505358977243304" lon="6.302994880825281">
        <ele>574.80999999999995</ele>
        <time>2019-04-24T09:24:26Z</time>
      </trkpt>
      <trkpt lat="50.505303405225277" lon="6.303161177784205">
        <ele>574.88</ele>
        <time>2019-04-24T09:24:49Z</time>
      </trkpt>
      <trkpt lat="50.505255712196231" lon="6.303225718438625">
        <ele>575.72000000000003</ele>
        <time>2019-04-24T09:24:54Z</time>
      </trkpt>
      <trkpt lat="50.505234589800239" lon="6.303249690681696">
        <ele>575.67999999999995</ele>
        <time>2019-04-24T09:24:56Z</time>
      </trkpt>
      <trkpt lat="50.505224782973528" lon="6.303258910775185">
        <ele>575.75</ele>
        <time>2019-04-24T09:24:57Z</time>
      </trkpt>
      <trkpt lat="50.505211455747485" lon="6.303270058706403">
        <ele>577.82000000000005</ele>
        <time>2019-04-24T09:24:58Z</time>
      </trkpt>
      <trkpt lat="50.505203325301409" lon="6.303280955180526">
        <ele>577.82000000000005</ele>
        <time>2019-04-24T09:24:59Z</time>
      </trkpt>
      <trkpt lat="50.505194440484047" lon="6.30329336039722">
        <ele>577.83000000000004</ele>
        <time>2019-04-24T09:25:00Z</time>
      </trkpt>
      <trkpt lat="50.505102155730128" lon="6.303445156663656">
        <ele>577.84000000000003</ele>
        <time>2019-04-24T09:25:10Z</time>
      </trkpt>
      <trkpt lat="50.50508514046669" lon="6.303466781973839">
        <ele>577.83000000000004</ele>
        <time>2019-04-24T09:25:11Z</time>
      </trkpt>
      <trkpt lat="50.50504457205534" lon="6.303526293486357">
        <ele>577.84000000000003</ele>
        <time>2019-04-24T09:25:15Z</time>
      </trkpt>
      <trkpt lat="50.505029065534472" lon="6.303550936281681">
        <ele>577.86000000000001</ele>
        <time>2019-04-24T09:25:16Z</time>
      </trkpt>
      <trkpt lat="50.504961675032973" lon="6.303648166358471">
        <ele>575.47000000000003</ele>
        <time>2019-04-24T09:25:22Z</time>
      </trkpt>
      <trkpt lat="50.504796802997589" lon="6.303906412795186">
        <ele>575.63</ele>
        <time>2019-04-24T09:25:43Z</time>
      </trkpt>
      <trkpt lat="50.504756402224302" lon="6.303965840488672">
        <ele>577.98000000000002</ele>
        <time>2019-04-24T09:25:47Z</time>
      </trkpt>
      <trkpt lat="50.504678701981902" lon="6.304060472175479">
        <ele>578.77999999999997</ele>
        <time>2019-04-24T09:25:53Z</time>
      </trkpt>
      <trkpt lat="50.504666632041335" lon="6.304076900705695">
        <ele>578.78999999999996</ele>
        <time>2019-04-24T09:25:54Z</time>
      </trkpt>
      <trkpt lat="50.504654813557863" lon="6.304090982303023">
        <ele>578.79999999999995</ele>
        <time>2019-04-24T09:25:55Z</time>
      </trkpt>
      <trkpt lat="50.504644503816962" lon="6.304104896262288">
        <ele>578.79999999999995</ele>
        <time>2019-04-24T09:25:56Z</time>
      </trkpt>
      <trkpt lat="50.504631763324142" lon="6.304125851020217">
        <ele>578.79999999999995</ele>
        <time>2019-04-24T09:25:57Z</time>
      </trkpt>
      <trkpt lat="50.504619441926479" lon="6.304145213216543">
        <ele>578.78999999999996</ele>
        <time>2019-04-24T09:25:58Z</time>
      </trkpt>
      <trkpt lat="50.504607958719134" lon="6.304158791899681">
        <ele>578.79999999999995</ele>
        <time>2019-04-24T09:25:59Z</time>
      </trkpt>
      <trkpt lat="50.504597648978233" lon="6.304174466058612">
        <ele>578.78999999999996</ele>
        <time>2019-04-24T09:26:00Z</time>
      </trkpt>
      <trkpt lat="50.50445674918592" lon="6.304382001981139">
        <ele>578.75999999999999</ele>
        <time>2019-04-24T09:26:14Z</time>
      </trkpt>
      <trkpt lat="50.504247872158885" lon="6.30473580211401">
        <ele>578.80999999999995</ele>
        <time>2019-04-24T09:26:29Z</time>
      </trkpt>
      <trkpt lat="50.504116946831346" lon="6.304992036893964">
        <ele>579.85000000000002</ele>
        <time>2019-04-24T09:26:42Z</time>
      </trkpt>
      <trkpt lat="50.504034552723169" lon="6.305157579481602">
        <ele>581.60000000000002</ele>
        <time>2019-04-24T09:26:55Z</time>
      </trkpt>
      <trkpt lat="50.503897676244378" lon="6.30540668964386">
        <ele>581.37</ele>
        <time>2019-04-24T09:27:12Z</time>
      </trkpt>
      <trkpt lat="50.503716208040714" lon="6.305665019899607">
        <ele>582.32000000000005</ele>
        <time>2019-04-24T09:27:31Z</time>
      </trkpt>
      <trkpt lat="50.503706568852067" lon="6.305684130638838">
        <ele>582.32000000000005</ele>
        <time>2019-04-24T09:27:32Z</time>
      </trkpt>
      <trkpt lat="50.503696510568261" lon="6.305698379874229">
        <ele>582.32000000000005</ele>
        <time>2019-04-24T09:27:33Z</time>
      </trkpt>
      <trkpt lat="50.503685781732202" lon="6.305714221671224">
        <ele>583.61000000000001</ele>
        <time>2019-04-24T09:27:34Z</time>
      </trkpt>
      <trkpt lat="50.503673627972603" lon="6.305731488391757">
        <ele>583.62</ele>
        <time>2019-04-24T09:27:35Z</time>
      </trkpt>
      <trkpt lat="50.503529375419021" lon="6.305933408439159">
        <ele>583.50999999999999</ele>
        <time>2019-04-24T09:27:51Z</time>
      </trkpt>
      <trkpt lat="50.503362407907844" lon="6.306266086176038">
        <ele>583.38999999999999</ele>
        <time>2019-04-24T09:28:09Z</time>
      </trkpt>
      <trkpt lat="50.503220167011023" lon="6.3065529987216">
        <ele>584.02999999999997</ele>
        <time>2019-04-24T09:28:24Z</time>
      </trkpt>
      <trkpt lat="50.503111034631729" lon="6.306749302893877">
        <ele>584.64999999999998</ele>
        <time>2019-04-24T09:28:37Z</time>
      </trkpt>
      <trkpt lat="50.502973990514874" lon="6.30695759318769">
        <ele>584.41999999999996</ele>
        <time>2019-04-24T09:28:52Z</time>
      </trkpt>
      <trkpt lat="50.502794785425067" lon="6.307195723056793">
        <ele>585.14999999999998</ele>
        <time>2019-04-24T09:29:07Z</time>
      </trkpt>
      <trkpt lat="50.502783386036754" lon="6.307216007262468">
        <ele>585.14999999999998</ele>
        <time>2019-04-24T09:29:08Z</time>
      </trkpt>
      <trkpt lat="50.502741057425737" lon="6.307268226519227">
        <ele>586.04999999999995</ele>
        <time>2019-04-24T09:29:12Z</time>
      </trkpt>
      <trkpt lat="50.502654891461134" lon="6.307426476851106">
        <ele>585.85000000000002</ele>
        <time>2019-04-24T09:29:24Z</time>
      </trkpt>
      <trkpt lat="50.502532180398703" lon="6.307631582021713">
        <ele>588.24000000000001</ele>
        <time>2019-04-24T09:29:35Z</time>
      </trkpt>
      <trkpt lat="50.502471160143614" lon="6.307723028585315">
        <ele>588.13</ele>
        <time>2019-04-24T09:29:41Z</time>
      </trkpt>
      <trkpt lat="50.502441991120577" lon="6.307751275599003">
        <ele>588.12</ele>
        <time>2019-04-24T09:29:43Z</time>
      </trkpt>
      <trkpt lat="50.502265719696879" lon="6.307989824563265">
        <ele>587.70000000000005</ele>
        <time>2019-04-24T09:29:59Z</time>
      </trkpt>
      <trkpt lat="50.502253649756312" lon="6.308006001636386">
        <ele>585.03999999999996</ele>
        <time>2019-04-24T09:30:00Z</time>
      </trkpt>
      <trkpt lat="50.502240993082523" lon="6.308019496500492">
        <ele>589.48000000000002</ele>
        <time>2019-04-24T09:30:01Z</time>
      </trkpt>
      <trkpt lat="50.502228084951639" lon="6.308040786534548">
        <ele>589.44000000000005</ele>
        <time>2019-04-24T09:30:02Z</time>
      </trkpt>
      <trkpt lat="50.502043850719929" lon="6.308379583060741">
        <ele>588.96000000000004</ele>
        <time>2019-04-24T09:30:24Z</time>
      </trkpt>
      <trkpt lat="50.50188560038805" lon="6.308715781196952">
        <ele>588.38</ele>
        <time>2019-04-24T09:30:44Z</time>
      </trkpt>
      <trkpt lat="50.501885516569018" lon="6.308735143393278">
        <ele>588.38</ele>
        <time>2019-04-24T09:30:45Z</time>
      </trkpt>
      <trkpt lat="50.501886270940304" lon="6.308754254132509">
        <ele>588.36000000000001</ele>
        <time>2019-04-24T09:30:46Z</time>
      </trkpt>
      <trkpt lat="50.501887947320938" lon="6.30877529270947">
        <ele>588.35000000000002</ele>
        <time>2019-04-24T09:30:47Z</time>
      </trkpt>
      <trkpt lat="50.501885684207082" lon="6.308795576915145">
        <ele>588.34000000000003</ele>
        <time>2019-04-24T09:30:48Z</time>
      </trkpt>
      <trkpt lat="50.501953242346644" lon="6.309304945170879">
        <ele>588.63999999999999</ele>
        <time>2019-04-24T09:31:11Z</time>
      </trkpt>
      <trkpt lat="50.501965479925275" lon="6.309691686183214">
        <ele>589.13</ele>
        <time>2019-04-24T09:31:28Z</time>
      </trkpt>
      <trkpt lat="50.501977633684874" lon="6.309763770550489">
        <ele>589.00999999999999</ele>
        <time>2019-04-24T09:31:32Z</time>
      </trkpt>
      <trkpt lat="50.50200286321342" lon="6.309874663129449">
        <ele>588.87</ele>
        <time>2019-04-24T09:31:37Z</time>
      </trkpt>
      <trkpt lat="50.502034546807408" lon="6.310023861005902">
        <ele>589.67999999999995</ele>
        <time>2019-04-24T09:31:43Z</time>
      </trkpt>
      <trkpt lat="50.502038234844804" lon="6.31007163785398">
        <ele>590.63999999999999</ele>
        <time>2019-04-24T09:31:45Z</time>
      </trkpt>
      <trkpt lat="50.50206589512527" lon="6.310430970042944">
        <ele>590.20000000000005</ele>
        <time>2019-04-24T09:32:00Z</time>
      </trkpt>
      <trkpt lat="50.502069415524602" lon="6.310584861785173">
        <ele>591.38999999999999</ele>
        <time>2019-04-24T09:32:07Z</time>
      </trkpt>
      <trkpt lat="50.502072684466839" lon="6.31063406355679">
        <ele>588</ele>
        <time>2019-04-24T09:32:09Z</time>
      </trkpt>
      <trkpt lat="50.502077965065837" lon="6.31065652705729">
        <ele>591.25999999999999</ele>
        <time>2019-04-24T09:32:10Z</time>
      </trkpt>
      <trkpt lat="50.502083245664835" lon="6.310699777677655">
        <ele>592.09000000000003</ele>
        <time>2019-04-24T09:32:12Z</time>
      </trkpt>
      <trkpt lat="50.502084586769342" lon="6.310719978064299">
        <ele>588.58000000000004</ele>
        <time>2019-04-24T09:32:13Z</time>
      </trkpt>
      <trkpt lat="50.50209422595799" lon="6.310735149309039">
        <ele>588.53999999999996</ele>
        <time>2019-04-24T09:32:14Z</time>
      </trkpt>
      <trkpt lat="50.502103948965669" lon="6.310753505676985">
        <ele>593.13</ele>
        <time>2019-04-24T09:32:15Z</time>
      </trkpt>
      <trkpt lat="50.502112917602062" lon="6.310778651386499">
        <ele>593.12</ele>
        <time>2019-04-24T09:32:16Z</time>
      </trkpt>
      <trkpt lat="50.502148373052478" lon="6.31085048429668">
        <ele>590.63999999999999</ele>
        <time>2019-04-24T09:32:19Z</time>
      </trkpt>
      <trkpt lat="50.502161700278521" lon="6.310920808464289">
        <ele>590.53999999999996</ele>
        <time>2019-04-24T09:32:22Z</time>
      </trkpt>
      <trkpt lat="50.502178966999054" lon="6.311158183962107">
        <ele>590.25</ele>
        <time>2019-04-24T09:32:31Z</time>
      </trkpt>
      <trkpt lat="50.502191539853811" lon="6.31122431717813">
        <ele>590.14999999999998</ele>
        <time>2019-04-24T09:32:34Z</time>
      </trkpt>
      <trkpt lat="50.502208722755313" lon="6.311472421512008">
        <ele>589.78999999999996</ele>
        <time>2019-04-24T09:32:45Z</time>
      </trkpt>
      <trkpt lat="50.502240490168333" lon="6.311558168381453">
        <ele>589.64999999999998</ele>
        <time>2019-04-24T09:32:49Z</time>
      </trkpt>
      <trkpt lat="50.502288937568665" lon="6.311867963522673">
        <ele>589.21000000000004</ele>
        <time>2019-04-24T09:33:02Z</time>
      </trkpt>
      <trkpt lat="50.502324057742953" lon="6.312092011794448">
        <ele>588.94000000000005</ele>
        <time>2019-04-24T09:33:11Z</time>
      </trkpt>
      <trkpt lat="50.502330344170332" lon="6.312237521633506">
        <ele>588.76999999999998</ele>
        <time>2019-04-24T09:33:17Z</time>
      </trkpt>
      <trkpt lat="50.502406284213066" lon="6.312574138864875">
        <ele>588.37</ele>
        <time>2019-04-24T09:33:32Z</time>
      </trkpt>
      <trkpt lat="50.502406619489193" lon="6.312782680615783">
        <ele>584.62</ele>
        <time>2019-04-24T09:33:40Z</time>
      </trkpt>
      <trkpt lat="50.502405613660812" lon="6.312809754163027">
        <ele>590.16999999999996</ele>
        <time>2019-04-24T09:33:41Z</time>
      </trkpt>
      <trkpt lat="50.502402344718575" lon="6.312834732234478">
        <ele>590.13999999999999</ele>
        <time>2019-04-24T09:33:42Z</time>
      </trkpt>
      <trkpt lat="50.502399997785687" lon="6.313075292855501">
        <ele>587.00999999999999</ele>
        <time>2019-04-24T09:33:51Z</time>
      </trkpt>
      <trkpt lat="50.502402763813734" lon="6.313092475757003">
        <ele>591.08000000000004</ele>
        <time>2019-04-24T09:33:52Z</time>
      </trkpt>
      <trkpt lat="50.502405697479844" lon="6.313171433284879">
        <ele>588.15999999999997</ele>
        <time>2019-04-24T09:33:55Z</time>
      </trkpt>
      <trkpt lat="50.502433776855469" lon="6.313279811292887">
        <ele>588.01999999999998</ele>
        <time>2019-04-24T09:34:00Z</time>
      </trkpt>
      <trkpt lat="50.502443416044116" lon="6.313438983634114">
        <ele>587.92999999999995</ele>
        <time>2019-04-24T09:34:06Z</time>
      </trkpt>
      <trkpt lat="50.502450121566653" lon="6.313502602279186">
        <ele>587.86000000000001</ele>
        <time>2019-04-24T09:34:09Z</time>
      </trkpt>
      <trkpt lat="50.502504939213395" lon="6.313897054642439">
        <ele>587.51999999999998</ele>
        <time>2019-04-24T09:34:25Z</time>
      </trkpt>
      <trkpt lat="50.502523044124246" lon="6.31409109570086">
        <ele>587.30999999999995</ele>
        <time>2019-04-24T09:34:34Z</time>
      </trkpt>
      <trkpt lat="50.502544837072492" lon="6.314176423475146">
        <ele>587.21000000000004</ele>
        <time>2019-04-24T09:34:38Z</time>
      </trkpt>
      <trkpt lat="50.502554560080171" lon="6.314232582226396">
        <ele>587.15999999999997</ele>
        <time>2019-04-24T09:34:40Z</time>
      </trkpt>
      <trkpt lat="50.502575431019068" lon="6.314342804253101">
        <ele>587.04999999999995</ele>
        <time>2019-04-24T09:34:45Z</time>
      </trkpt>
      <trkpt lat="50.502627063542604" lon="6.314938003197312">
        <ele>586.54999999999995</ele>
        <time>2019-04-24T09:35:11Z</time>
      </trkpt>
      <trkpt lat="50.502646090462804" lon="6.315244026482105">
        <ele>586.30999999999995</ele>
        <time>2019-04-24T09:35:22Z</time>
      </trkpt>
      <trkpt lat="50.502681126818061" lon="6.315369252115488">
        <ele>584.10000000000002</ele>
        <time>2019-04-24T09:35:27Z</time>
      </trkpt>
      <trkpt lat="50.502687329426408" lon="6.315391631796956">
        <ele>588.48000000000002</ele>
        <time>2019-04-24T09:35:28Z</time>
      </trkpt>
      <trkpt lat="50.502910036593676" lon="6.317583164200187">
        <ele>587.91999999999996</ele>
        <time>2019-04-24T09:37:04Z</time>
      </trkpt>
      <trkpt lat="50.502902828156948" lon="6.317704450339079">
        <ele>587.83000000000004</ele>
        <time>2019-04-24T09:37:15Z</time>
      </trkpt>
      <trkpt lat="50.50279788672924" lon="6.317850630730391">
        <ele>587.75</ele>
        <time>2019-04-24T09:37:27Z</time>
      </trkpt>
      <trkpt lat="50.502774501219392" lon="6.317949201911688">
        <ele>587.73000000000002</ele>
        <time>2019-04-24T09:37:31Z</time>
      </trkpt>
      <trkpt lat="50.502793360501528" lon="6.318094292655587">
        <ele>587.71000000000004</ele>
        <time>2019-04-24T09:37:38Z</time>
      </trkpt>
      <trkpt lat="50.502833928912878" lon="6.318318340927362">
        <ele>587.65999999999997</ele>
        <time>2019-04-24T09:37:48Z</time>
      </trkpt>
      <trkpt lat="50.50288095138967" lon="6.318684127181768">
        <ele>587.62</ele>
        <time>2019-04-24T09:38:04Z</time>
      </trkpt>
      <trkpt lat="50.502945324406028" lon="6.319162985309959">
        <ele>587.55999999999995</ele>
        <time>2019-04-24T09:38:24Z</time>
      </trkpt>
      <trkpt lat="50.502968207001686" lon="6.319377729669213">
        <ele>587.53999999999996</ele>
        <time>2019-04-24T09:38:31Z</time>
      </trkpt>
      <trkpt lat="50.503015983849764" lon="6.319548133760691">
        <ele>587.52999999999997</ele>
        <time>2019-04-24T09:38:38Z</time>
      </trkpt>
      <trkpt lat="50.503081111237407" lon="6.319761956110597">
        <ele>587.52999999999997</ele>
        <time>2019-04-24T09:38:48Z</time>
      </trkpt>
      <trkpt lat="50.50312084145844" lon="6.319766314700246">
        <ele>588.40999999999997</ele>
        <time>2019-04-24T09:38:50Z</time>
      </trkpt>
      <trkpt lat="50.503230225294828" lon="6.320140985772014">
        <ele>588.35000000000002</ele>
        <time>2019-04-24T09:39:08Z</time>
      </trkpt>
      <trkpt lat="50.503284372389317" lon="6.32034751586616">
        <ele>590.23000000000002</ele>
        <time>2019-04-24T09:39:19Z</time>
      </trkpt>
      <trkpt lat="50.503291329368949" lon="6.320448685437441">
        <ele>590.21000000000004</ele>
        <time>2019-04-24T09:39:23Z</time>
      </trkpt>
      <trkpt lat="50.503289988264441" lon="6.320556728169322">
        <ele>590.22000000000003</ele>
        <time>2019-04-24T09:39:27Z</time>
      </trkpt>
      <trkpt lat="50.503344219177961" lon="6.320941625162959">
        <ele>590.10000000000002</ele>
        <time>2019-04-24T09:39:42Z</time>
      </trkpt>
      <trkpt lat="50.503398198634386" lon="6.321202469989657">
        <ele>590.01999999999998</ele>
        <time>2019-04-24T09:39:53Z</time>
      </trkpt>
      <trkpt lat="50.50345066934824" lon="6.321390056982637">
        <ele>589.97000000000003</ele>
        <time>2019-04-24T09:40:01Z</time>
      </trkpt>
      <trkpt lat="50.503445556387305" lon="6.321482425555587">
        <ele>589.92999999999995</ele>
        <time>2019-04-24T09:40:05Z</time>
      </trkpt>
      <trkpt lat="50.503486376255751" lon="6.321572447195649">
        <ele>589.89999999999998</ele>
        <time>2019-04-24T09:40:09Z</time>
      </trkpt>
      <trkpt lat="50.503509845584631" lon="6.321830945089459">
        <ele>589.79999999999995</ele>
        <time>2019-04-24T09:40:19Z</time>
      </trkpt>
      <trkpt lat="50.503531219437718" lon="6.321958098560572">
        <ele>589.75999999999999</ele>
        <time>2019-04-24T09:40:25Z</time>
      </trkpt>
      <trkpt lat="50.50369743257761" lon="6.323205661028624">
        <ele>590.35000000000002</ele>
        <time>2019-04-24T09:41:13Z</time>
      </trkpt>
      <trkpt lat="50.503719560801983" lon="6.323510175570846">
        <ele>590.32000000000005</ele>
        <time>2019-04-24T09:41:25Z</time>
      </trkpt>
      <trkpt lat="50.503755770623684" lon="6.323788370937109">
        <ele>590.33000000000004</ele>
        <time>2019-04-24T09:41:37Z</time>
      </trkpt>
      <trkpt lat="50.503770438954234" lon="6.323892390355468">
        <ele>590.33000000000004</ele>
        <time>2019-04-24T09:41:42Z</time>
      </trkpt>
      <trkpt lat="50.503824669867754" lon="6.324242753908038">
        <ele>590.30999999999995</ele>
        <time>2019-04-24T09:41:57Z</time>
      </trkpt>
      <trkpt lat="50.503871608525515" lon="6.324536539614201">
        <ele>591.15999999999997</ele>
        <time>2019-04-24T09:42:09Z</time>
      </trkpt>
      <trkpt lat="50.503900609910488" lon="6.324877850711346">
        <ele>591.14999999999998</ele>
        <time>2019-04-24T09:42:21Z</time>
      </trkpt>
      <trkpt lat="50.50391192547977" lon="6.324976924806833">
        <ele>586.82000000000005</ele>
        <time>2019-04-24T09:42:26Z</time>
      </trkpt>
      <trkpt lat="50.503917541354895" lon="6.324989162385464">
        <ele>592.79999999999995</ele>
        <time>2019-04-24T09:42:27Z</time>
      </trkpt>
      <trkpt lat="50.503920391201973" lon="6.325015313923359">
        <ele>592.80999999999995</ele>
        <time>2019-04-24T09:42:28Z</time>
      </trkpt>
      <trkpt lat="50.503895999863744" lon="6.325279092416167">
        <ele>592.79999999999995</ele>
        <time>2019-04-24T09:42:40Z</time>
      </trkpt>
      <trkpt lat="50.503879487514496" lon="6.325385877862573">
        <ele>590.40999999999997</ele>
        <time>2019-04-24T09:42:45Z</time>
      </trkpt>
      <trkpt lat="50.503861214965582" lon="6.32543507963419">
        <ele>590.41999999999996</ele>
        <time>2019-04-24T09:42:47Z</time>
      </trkpt>
      <trkpt lat="50.503733893856406" lon="6.32557924836874">
        <ele>590.44000000000005</ele>
        <time>2019-04-24T09:43:00Z</time>
      </trkpt>
      <trkpt lat="50.503714112564921" lon="6.325598945841193">
        <ele>587.29999999999995</ele>
        <time>2019-04-24T09:43:08Z</time>
      </trkpt>
      <trkpt lat="50.503710675984621" lon="6.325601795688272">
        <ele>592.44000000000005</ele>
        <time>2019-04-24T09:43:09Z</time>
      </trkpt>
      <trkpt lat="50.503709753975272" lon="6.325600538402796">
        <ele>592.44000000000005</ele>
        <time>2019-04-24T09:43:10Z</time>
      </trkpt>
      <trkpt lat="50.503674298524857" lon="6.325663402676582">
        <ele>592.57000000000005</ele>
        <time>2019-04-24T09:43:33Z</time>
      </trkpt>
      <trkpt lat="50.50363783724606" lon="6.325722998008132">
        <ele>592.65999999999997</ele>
        <time>2019-04-24T09:43:45Z</time>
      </trkpt>
      <trkpt lat="50.503611853346229" lon="6.325754849240184">
        <ele>590.58000000000004</ele>
        <time>2019-04-24T09:44:10Z</time>
      </trkpt>
      <trkpt lat="50.503590814769268" lon="6.325799943879247">
        <ele>591.11000000000001</ele>
        <time>2019-04-24T09:44:43Z</time>
      </trkpt>
      <trkpt lat="50.503562651574612" lon="6.325838416814804">
        <ele>590.78999999999996</ele>
        <time>2019-04-24T09:45:19Z</time>
      </trkpt>
      <trkpt lat="50.50356793217361" lon="6.325838081538677">
        <ele>591.33000000000004</ele>
        <time>2019-04-24T09:45:53Z</time>
      </trkpt>
      <trkpt lat="50.503546139225364" lon="6.325861550867558">
        <ele>591.15999999999997</ele>
        <time>2019-04-24T09:46:30Z</time>
      </trkpt>
      <trkpt lat="50.503564244136214" lon="6.325872950255871">
        <ele>591.65999999999997</ele>
        <time>2019-04-24T09:47:02Z</time>
      </trkpt>
      <trkpt lat="50.503577487543225" lon="6.32588217034936">
        <ele>592.16999999999996</ele>
        <time>2019-04-24T09:47:33Z</time>
      </trkpt>
      <trkpt lat="50.503526609390974" lon="6.325978813692927">
        <ele>608.61000000000001</ele>
        <time>2019-04-24T10:05:47Z</time>
      </trkpt>
      <trkpt lat="50.503521747887135" lon="6.32593447342515">
        <ele>608.84000000000003</ele>
        <time>2019-04-24T10:06:17Z</time>
      </trkpt>
      <trkpt lat="50.503518395125866" lon="6.32592860609293">
        <ele>609.13</ele>
        <time>2019-04-24T10:07:04Z</time>
      </trkpt>
      <trkpt lat="50.503525855019689" lon="6.325941095128655">
        <ele>609.39999999999998</ele>
        <time>2019-04-24T10:07:50Z</time>
      </trkpt>
      <trkpt lat="50.503552425652742" lon="6.326077217236161">
        <ele>629.21000000000004</ele>
        <time>2019-04-24T11:01:07Z</time>
      </trkpt>
      <trkpt lat="50.503517976030707" lon="6.326148128136993">
        <ele>626.97000000000003</ele>
        <time>2019-04-24T11:01:15Z</time>
      </trkpt>
      <trkpt lat="50.50352199934423" lon="6.326162209734321">
        <ele>626.97000000000003</ele>
        <time>2019-04-24T11:01:16Z</time>
      </trkpt>
      <trkpt lat="50.50364320166409" lon="6.326437555253506">
        <ele>627.01999999999998</ele>
        <time>2019-04-24T11:01:34Z</time>
      </trkpt>
      <trkpt lat="50.503672789782286" lon="6.326516764238477">
        <ele>629.5</ele>
        <time>2019-04-24T11:01:39Z</time>
      </trkpt>
      <trkpt lat="50.503720818087459" lon="6.326687000691891">
        <ele>629.47000000000003</ele>
        <time>2019-04-24T11:01:51Z</time>
      </trkpt>
      <trkpt lat="50.503714447841048" lon="6.32672019302845">
        <ele>629.49000000000001</ele>
        <time>2019-04-24T11:01:53Z</time>
      </trkpt>
      <trkpt lat="50.503663150593638" lon="6.326946755871177">
        <ele>629.5</ele>
        <time>2019-04-24T11:02:04Z</time>
      </trkpt>
      <trkpt lat="50.50339593552053" lon="6.327360738068819">
        <ele>629.38999999999999</ele>
        <time>2019-04-24T11:02:31Z</time>
      </trkpt>
      <trkpt lat="50.503361485898495" lon="6.327426200732589">
        <ele>626.94000000000005</ele>
        <time>2019-04-24T11:02:37Z</time>
      </trkpt>
      <trkpt lat="50.503323264420033" lon="6.327479425817728">
        <ele>626.96000000000004</ele>
        <time>2019-04-24T11:02:41Z</time>
      </trkpt>
      <trkpt lat="50.503318402916193" lon="6.327493507415056">
        <ele>626.94000000000005</ele>
        <time>2019-04-24T11:02:43Z</time>
      </trkpt>
      <trkpt lat="50.503363749012351" lon="6.327652847394347">
        <ele>626.91999999999996</ele>
        <time>2019-04-24T11:02:51Z</time>
      </trkpt>
      <trkpt lat="50.503421081230044" lon="6.327727194875479">
        <ele>626.89999999999998</ele>
        <time>2019-04-24T11:03:01Z</time>
      </trkpt>
      <trkpt lat="50.503842271864414" lon="6.32810547016561">
        <ele>626.79999999999995</ele>
        <time>2019-04-24T11:03:38Z</time>
      </trkpt>
      <trkpt lat="50.504118707031012" lon="6.328371511772275">
        <ele>626.05999999999995</ele>
        <time>2019-04-24T11:04:02Z</time>
      </trkpt>
      <trkpt lat="50.504408720880747" lon="6.32859212346375">
        <ele>625.29999999999995</ele>
        <time>2019-04-24T11:04:25Z</time>
      </trkpt>
      <trkpt lat="50.50458868034184" lon="6.328756157308817">
        <ele>625.33000000000004</ele>
        <time>2019-04-24T11:04:39Z</time>
      </trkpt>
      <trkpt lat="50.504598151892424" lon="6.328766886144877">
        <ele>625.32000000000005</ele>
        <time>2019-04-24T11:04:41Z</time>
      </trkpt>
      <trkpt lat="50.504860086366534" lon="6.329030832275748">
        <ele>625.34000000000003</ele>
        <time>2019-04-24T11:05:04Z</time>
      </trkpt>
      <trkpt lat="50.505082877352834" lon="6.329336855560541">
        <ele>622.78999999999996</ele>
        <time>2019-04-24T11:05:27Z</time>
      </trkpt>
      <trkpt lat="50.505313882604241" lon="6.329606249928474">
        <ele>621.84000000000003</ele>
        <time>2019-04-24T11:05:43Z</time>
      </trkpt>
      <trkpt lat="50.50549459643662" lon="6.329930713400245">
        <ele>620.25</ele>
        <time>2019-04-24T11:06:04Z</time>
      </trkpt>
      <trkpt lat="50.505626443773508" lon="6.330281915143132">
        <ele>616.98000000000002</ele>
        <time>2019-04-24T11:06:27Z</time>
      </trkpt>
      <trkpt lat="50.505693331360817" lon="6.330468747764826">
        <ele>616.21000000000004</ele>
        <time>2019-04-24T11:06:39Z</time>
      </trkpt>
      <trkpt lat="50.505753764882684" lon="6.330772927030921">
        <ele>613.71000000000004</ele>
        <time>2019-04-24T11:06:57Z</time>
      </trkpt>
      <trkpt lat="50.505818892270327" lon="6.331177353858948">
        <ele>611.14999999999998</ele>
        <time>2019-04-24T11:07:17Z</time>
      </trkpt>
      <trkpt lat="50.505872955545783" lon="6.331467786803842">
        <ele>608.62</ele>
        <time>2019-04-24T11:07:34Z</time>
      </trkpt>
      <trkpt lat="50.505945710465312" lon="6.331827621906996">
        <ele>605.08000000000004</ele>
        <time>2019-04-24T11:07:55Z</time>
      </trkpt>
      <trkpt lat="50.505930203944445" lon="6.33190356194973">
        <ele>604.08000000000004</ele>
        <time>2019-04-24T11:07:59Z</time>
      </trkpt>
      <trkpt lat="50.505891228094697" lon="6.331941448152065">
        <ele>603.90999999999997</ele>
        <time>2019-04-24T11:08:02Z</time>
      </trkpt>
      <trkpt lat="50.505694253370166" lon="6.331895599141717">
        <ele>604.09000000000003</ele>
        <time>2019-04-24T11:08:17Z</time>
      </trkpt>
      <trkpt lat="50.505643207579851" lon="6.331882774829865">
        <ele>606.35000000000002</ele>
        <time>2019-04-24T11:08:21Z</time>
      </trkpt>
      <trkpt lat="50.50548923201859" lon="6.331863915547729">
        <ele>607.10000000000002</ele>
        <time>2019-04-24T11:08:32Z</time>
      </trkpt>
      <trkpt lat="50.505407508462667" lon="6.331850923597813">
        <ele>607.07000000000005</ele>
        <time>2019-04-24T11:08:38Z</time>
      </trkpt>
      <trkpt lat="50.50524590536952" lon="6.331868777051568">
        <ele>607</ele>
        <time>2019-04-24T11:08:51Z</time>
      </trkpt>
      <trkpt lat="50.505075585097075" lon="6.331876739859581">
        <ele>606.94000000000005</ele>
        <time>2019-04-24T11:09:06Z</time>
      </trkpt>
      <trkpt lat="50.505065275356174" lon="6.331884702667594">
        <ele>606.92999999999995</ele>
        <time>2019-04-24T11:09:08Z</time>
      </trkpt>
      <trkpt lat="50.504870228469372" lon="6.331827454268932">
        <ele>607.75</ele>
        <time>2019-04-24T11:09:23Z</time>
      </trkpt>
      <trkpt lat="50.504719186574221" lon="6.331824352964759">
        <ele>607.66999999999996</ele>
        <time>2019-04-24T11:09:34Z</time>
      </trkpt>
      <trkpt lat="50.504355411976576" lon="6.331794681027532">
        <ele>607.5</ele>
        <time>2019-04-24T11:09:56Z</time>
      </trkpt>
      <trkpt lat="50.504115773364902" lon="6.331873387098312">
        <ele>609.11000000000001</ele>
        <time>2019-04-24T11:10:13Z</time>
      </trkpt>
      <trkpt lat="50.50390949472785" lon="6.331991236656904">
        <ele>608.96000000000004</ele>
        <time>2019-04-24T11:10:28Z</time>
      </trkpt>
      <trkpt lat="50.503809247165918" lon="6.332020992413163">
        <ele>611.28999999999996</ele>
        <time>2019-04-24T11:10:37Z</time>
      </trkpt>
      <trkpt lat="50.503632389008999" lon="6.332135908305645">
        <ele>611.08000000000004</ele>
        <time>2019-04-24T11:10:57Z</time>
      </trkpt>
      <trkpt lat="50.503318151459098" lon="6.33221285417676">
        <ele>611.79999999999995</ele>
        <time>2019-04-24T11:11:15Z</time>
      </trkpt>
      <trkpt lat="50.503111872822046" lon="6.332261385396123">
        <ele>615.13999999999999</ele>
        <time>2019-04-24T11:11:26Z</time>
      </trkpt>
      <trkpt lat="50.502745248377323" lon="6.332287285476923">
        <ele>614.92999999999995</ele>
        <time>2019-04-24T11:11:43Z</time>
      </trkpt>
      <trkpt lat="50.502510303631425" lon="6.332408487796783">
        <ele>616.40999999999997</ele>
        <time>2019-04-24T11:11:58Z</time>
      </trkpt>
      <trkpt lat="50.502315675839782" lon="6.33261451497674">
        <ele>616.23000000000002</ele>
        <time>2019-04-24T11:12:13Z</time>
      </trkpt>
      <trkpt lat="50.502126915380359" lon="6.332875359803438">
        <ele>616.85000000000002</ele>
        <time>2019-04-24T11:12:31Z</time>
      </trkpt>
      <trkpt lat="50.501979645341635" lon="6.333097396418452">
        <ele>617.50999999999999</ele>
        <time>2019-04-24T11:12:46Z</time>
      </trkpt>
      <trkpt lat="50.501844696700573" lon="6.333343656733632">
        <ele>617.36000000000001</ele>
        <time>2019-04-24T11:13:01Z</time>
      </trkpt>
      <trkpt lat="50.501806559041142" lon="6.333404509350658">
        <ele>617.32000000000005</ele>
        <time>2019-04-24T11:13:05Z</time>
      </trkpt>
      <trkpt lat="50.501635484397411" lon="6.333861071616411">
        <ele>617.96000000000004</ele>
        <time>2019-04-24T11:13:28Z</time>
      </trkpt>
      <trkpt lat="50.501585863530636" lon="6.334001971408725">
        <ele>618.64999999999998</ele>
        <time>2019-04-24T11:13:36Z</time>
      </trkpt>
      <trkpt lat="50.501526352018118" lon="6.334242196753621">
        <ele>618.55999999999995</ele>
        <time>2019-04-24T11:13:49Z</time>
      </trkpt>
      <trkpt lat="50.501444209367037" lon="6.334416205063462">
        <ele>621.72000000000003</ele>
        <time>2019-04-24T11:14:01Z</time>
      </trkpt>
      <trkpt lat="50.5014375038445" lon="6.334432382136583">
        <ele>621.71000000000004</ele>
        <time>2019-04-24T11:14:02Z</time>
      </trkpt>
      <trkpt lat="50.501402467489243" lon="6.33449524641037">
        <ele>622.96000000000004</ele>
        <time>2019-04-24T11:14:06Z</time>
      </trkpt>
      <trkpt lat="50.501352678984404" lon="6.334690963849425">
        <ele>620.49000000000001</ele>
        <time>2019-04-24T11:14:16Z</time>
      </trkpt>
      <trkpt lat="50.501311691477895" lon="6.335006793960929">
        <ele>620.49000000000001</ele>
        <time>2019-04-24T11:14:30Z</time>
      </trkpt>
      <trkpt lat="50.50126257352531" lon="6.335364952683449">
        <ele>622.70000000000005</ele>
        <time>2019-04-24T11:14:46Z</time>
      </trkpt>
      <trkpt lat="50.501176239922643" lon="6.33570458739996">
        <ele>622.48000000000002</ele>
        <time>2019-04-24T11:15:06Z</time>
      </trkpt>
      <trkpt lat="50.501127038151026" lon="6.336138602346182">
        <ele>624.08000000000004</ele>
        <time>2019-04-24T11:15:24Z</time>
      </trkpt>
      <trkpt lat="50.501122009009123" lon="6.336412942036986">
        <ele>623.97000000000003</ele>
        <time>2019-04-24T11:15:35Z</time>
      </trkpt>
      <trkpt lat="50.501019917428493" lon="6.336824661120772">
        <ele>624.77999999999997</ele>
        <time>2019-04-24T11:15:55Z</time>
      </trkpt>
      <trkpt lat="50.501027712598443" lon="6.336848298087716">
        <ele>624.80999999999995</ele>
        <time>2019-04-24T11:15:57Z</time>
      </trkpt>
      <trkpt lat="50.50113801844418" lon="6.337223052978516">
        <ele>626.23000000000002</ele>
        <time>2019-04-24T11:16:13Z</time>
      </trkpt>
      <trkpt lat="50.501175820827484" lon="6.337357917800546">
        <ele>626.16999999999996</ele>
        <time>2019-04-24T11:16:19Z</time>
      </trkpt>
      <trkpt lat="50.501166097819805" lon="6.337428074330092">
        <ele>626.13</ele>
        <time>2019-04-24T11:16:23Z</time>
      </trkpt>
      <trkpt lat="50.501121003180742" lon="6.33750225417316">
        <ele>622.50999999999999</ele>
        <time>2019-04-24T11:16:27Z</time>
      </trkpt>
      <trkpt lat="50.501107424497604" lon="6.337511474266648">
        <ele>622.46000000000004</ele>
        <time>2019-04-24T11:16:28Z</time>
      </trkpt>
      <trkpt lat="50.501093175262213" lon="6.337516838684678">
        <ele>626.10000000000002</ele>
        <time>2019-04-24T11:16:29Z</time>
      </trkpt>
      <trkpt lat="50.501080183312297" lon="6.337524130940437">
        <ele>626.08000000000004</ele>
        <time>2019-04-24T11:16:30Z</time>
      </trkpt>
      <trkpt lat="50.501031652092934" lon="6.337582049891353">
        <ele>626.07000000000005</ele>
        <time>2019-04-24T11:16:34Z</time>
      </trkpt>
      <trkpt lat="50.501010781154037" lon="6.337633179500699">
        <ele>627.27999999999997</ele>
        <time>2019-04-24T11:16:36Z</time>
      </trkpt>
      <trkpt lat="50.500974738970399" lon="6.337669221684337">
        <ele>628.02999999999997</ele>
        <time>2019-04-24T11:16:39Z</time>
      </trkpt>
      <trkpt lat="50.500820260494947" lon="6.33785848505795">
        <ele>627.85000000000002</ele>
        <time>2019-04-24T11:16:52Z</time>
      </trkpt>
      <trkpt lat="50.500774495303631" lon="6.337929060682654">
        <ele>627.79999999999995</ele>
        <time>2019-04-24T11:16:57Z</time>
      </trkpt>
      <trkpt lat="50.500630494207144" lon="6.338093597441912">
        <ele>627.75999999999999</ele>
        <time>2019-04-24T11:17:12Z</time>
      </trkpt>
      <trkpt lat="50.500381803140044" lon="6.338334158062935">
        <ele>627.44000000000005</ele>
        <time>2019-04-24T11:17:33Z</time>
      </trkpt>
      <trkpt lat="50.50016026943922" lon="6.338505400344729">
        <ele>627.20000000000005</ele>
        <time>2019-04-24T11:17:53Z</time>
      </trkpt>
      <trkpt lat="50.500042922794819" lon="6.338650658726692">
        <ele>625.90999999999997</ele>
        <time>2019-04-24T11:18:02Z</time>
      </trkpt>
      <trkpt lat="50.499936137348413" lon="6.338749481365085">
        <ele>622.51999999999998</ele>
        <time>2019-04-24T11:18:11Z</time>
      </trkpt>
      <trkpt lat="50.499923396855593" lon="6.338758114725351">
        <ele>625.69000000000005</ele>
        <time>2019-04-24T11:18:12Z</time>
      </trkpt>
      <trkpt lat="50.499869668856263" lon="6.338793486356735">
        <ele>623.04999999999995</ele>
        <time>2019-04-24T11:18:16Z</time>
      </trkpt>
      <trkpt lat="50.49973170273006" lon="6.338927932083607">
        <ele>622.90999999999997</ele>
        <time>2019-04-24T11:18:28Z</time>
      </trkpt>
      <trkpt lat="50.499519221484661" lon="6.339186178520322">
        <ele>622.57000000000005</ele>
        <time>2019-04-24T11:18:46Z</time>
      </trkpt>
      <trkpt lat="50.499384524300694" lon="6.339288102462888">
        <ele>622.42999999999995</ele>
        <time>2019-04-24T11:18:58Z</time>
      </trkpt>
      <trkpt lat="50.499181682243943" lon="6.339478204026818">
        <ele>621.35000000000002</ele>
        <time>2019-04-24T11:19:13Z</time>
      </trkpt>
      <trkpt lat="50.499168187379837" lon="6.339491782709956">
        <ele>621.40999999999997</ele>
        <time>2019-04-24T11:19:14Z</time>
      </trkpt>
      <trkpt lat="50.499124685302377" lon="6.33951491676271">
        <ele>624.86000000000001</ele>
        <time>2019-04-24T11:19:17Z</time>
      </trkpt>
      <trkpt lat="50.499069280922413" lon="6.339529668912292">
        <ele>622.25999999999999</ele>
        <time>2019-04-24T11:19:20Z</time>
      </trkpt>
      <trkpt lat="50.498854033648968" lon="6.339707365259528">
        <ele>621.28999999999996</ele>
        <time>2019-04-24T11:19:36Z</time>
      </trkpt>
      <trkpt lat="50.498747332021594" lon="6.339738545939326">
        <ele>621.24000000000001</ele>
        <time>2019-04-24T11:19:43Z</time>
      </trkpt>
      <trkpt lat="50.498639289289713" lon="6.339588006958365">
        <ele>620.20000000000005</ele>
        <time>2019-04-24T11:19:56Z</time>
      </trkpt>
      <trkpt lat="50.498621184378862" lon="6.339550288394094">
        <ele>620.22000000000003</ele>
        <time>2019-04-24T11:19:59Z</time>
      </trkpt>
      <trkpt lat="50.498563349246979" lon="6.339345350861549">
        <ele>617.64999999999998</ele>
        <time>2019-04-24T11:20:11Z</time>
      </trkpt>
      <trkpt lat="50.4984568990767" lon="6.339087355881929">
        <ele>617.64999999999998</ele>
        <time>2019-04-24T11:20:26Z</time>
      </trkpt>
      <trkpt lat="50.498429657891393" lon="6.339018540456891">
        <ele>616.10000000000002</ele>
        <time>2019-04-24T11:20:29Z</time>
      </trkpt>
      <trkpt lat="50.498331673443317" lon="6.338708577677608">
        <ele>615.95000000000005</ele>
        <time>2019-04-24T11:20:44Z</time>
      </trkpt>
      <trkpt lat="50.498236119747162" lon="6.338413953781128">
        <ele>613.97000000000003</ele>
        <time>2019-04-24T11:20:59Z</time>
      </trkpt>
      <trkpt lat="50.498223211616278" lon="6.338381096720696">
        <ele>612.78999999999996</ele>
        <time>2019-04-24T11:21:01Z</time>
      </trkpt>
      <trkpt lat="50.498129753395915" lon="6.338123520836234">
        <ele>612.98000000000002</ele>
        <time>2019-04-24T11:21:15Z</time>
      </trkpt>
      <trkpt lat="50.498059261590242" lon="6.337911710143089">
        <ele>612.00999999999999</ele>
        <time>2019-04-24T11:21:26Z</time>
      </trkpt>
      <trkpt lat="50.498052220791578" lon="6.337894527241588">
        <ele>611.12</ele>
        <time>2019-04-24T11:21:27Z</time>
      </trkpt>
      <trkpt lat="50.498045096173882" lon="6.337876338511705">
        <ele>611.10000000000002</ele>
        <time>2019-04-24T11:21:28Z</time>
      </trkpt>
      <trkpt lat="50.49794677644968" lon="6.337606692686677">
        <ele>608.70000000000005</ele>
        <time>2019-04-24T11:21:43Z</time>
      </trkpt>
      <trkpt lat="50.497934455052018" lon="6.337570063769817">
        <ele>608.71000000000004</ele>
        <time>2019-04-24T11:21:45Z</time>
      </trkpt>
      <trkpt lat="50.497905034571886" lon="6.337478030472994">
        <ele>608.72000000000003</ele>
        <time>2019-04-24T11:21:50Z</time>
      </trkpt>
      <trkpt lat="50.497896485030651" lon="6.337462188676">
        <ele>608.74000000000001</ele>
        <time>2019-04-24T11:21:51Z</time>
      </trkpt>
      <trkpt lat="50.497865052893758" lon="6.337322294712067">
        <ele>607.09000000000003</ele>
        <time>2019-04-24T11:21:59Z</time>
      </trkpt>
      <trkpt lat="50.497860442847013" lon="6.337302848696709">
        <ele>607.07000000000005</ele>
        <time>2019-04-24T11:22:00Z</time>
      </trkpt>
      <trkpt lat="50.497856670990586" lon="6.337277367711067">
        <ele>607.05999999999995</ele>
        <time>2019-04-24T11:22:01Z</time>
      </trkpt>
      <trkpt lat="50.497852228581905" lon="6.337255323305726">
        <ele>607.05999999999995</ele>
        <time>2019-04-24T11:22:02Z</time>
      </trkpt>
      <trkpt lat="50.497846947982907" lon="6.337234620004892">
        <ele>607.02999999999997</ele>
        <time>2019-04-24T11:22:03Z</time>
      </trkpt>
      <trkpt lat="50.497843427583575" lon="6.337210396304727">
        <ele>607.03999999999996</ele>
        <time>2019-04-24T11:22:04Z</time>
      </trkpt>
      <trkpt lat="50.497841918841004" lon="6.337191201746464">
        <ele>607.02999999999997</ele>
        <time>2019-04-24T11:22:05Z</time>
      </trkpt>
      <trkpt lat="50.497755920514464" lon="6.337042842060328">
        <ele>604.36000000000001</ele>
        <time>2019-04-24T11:22:20Z</time>
      </trkpt>
      <trkpt lat="50.49769414588809" lon="6.336953155696392">
        <ele>602.57000000000005</ele>
        <time>2019-04-24T11:22:31Z</time>
      </trkpt>
      <trkpt lat="50.497648464515805" lon="6.336910575628281">
        <ele>602.57000000000005</ele>
        <time>2019-04-24T11:22:34Z</time>
      </trkpt>
      <trkpt lat="50.497355852276087" lon="6.336585860699415">
        <ele>599.23000000000002</ele>
        <time>2019-04-24T11:22:57Z</time>
      </trkpt>
      <trkpt lat="50.497143790125847" lon="6.336217224597931">
        <ele>595.38</ele>
        <time>2019-04-24T11:23:21Z</time>
      </trkpt>
      <trkpt lat="50.496942959725857" lon="6.335900388658047">
        <ele>591.94000000000005</ele>
        <time>2019-04-24T11:23:41Z</time>
      </trkpt>
      <trkpt lat="50.496718240901828" lon="6.335655050352216">
        <ele>590.16999999999996</ele>
        <time>2019-04-24T11:23:58Z</time>
      </trkpt>
      <trkpt lat="50.496532581746578" lon="6.3355384580791">
        <ele>586.65999999999997</ele>
        <time>2019-04-24T11:24:14Z</time>
      </trkpt>
      <trkpt lat="50.496369637548923" lon="6.335582965984941">
        <ele>583.27999999999997</ele>
        <time>2019-04-24T11:24:29Z</time>
      </trkpt>
      <trkpt lat="50.496249860152602" lon="6.335580199956894">
        <ele>581.39999999999998</ele>
        <time>2019-04-24T11:24:37Z</time>
      </trkpt>
      <trkpt lat="50.496064620092511" lon="6.335510294884443">
        <ele>578.28999999999996</ele>
        <time>2019-04-24T11:24:49Z</time>
      </trkpt>
      <trkpt lat="50.496018351987004" lon="6.335476851090789">
        <ele>578.28999999999996</ele>
        <time>2019-04-24T11:24:52Z</time>
      </trkpt>
      <trkpt lat="50.495993038639426" lon="6.335467379540205">
        <ele>577.42999999999995</ele>
        <time>2019-04-24T11:24:53Z</time>
      </trkpt>
      <trkpt lat="50.495849037542939" lon="6.335322875529528">
        <ele>575.48000000000002</ele>
        <time>2019-04-24T11:25:06Z</time>
      </trkpt>
      <trkpt lat="50.495715513825417" lon="6.33512070402503">
        <ele>573.45000000000005</ele>
        <time>2019-04-24T11:25:18Z</time>
      </trkpt>
      <trkpt lat="50.495560197159648" lon="6.334916604682803">
        <ele>571.59000000000003</ele>
        <time>2019-04-24T11:25:30Z</time>
      </trkpt>
      <trkpt lat="50.49555248580873" lon="6.33489690721035">
        <ele>571.59000000000003</ele>
        <time>2019-04-24T11:25:31Z</time>
      </trkpt>
      <trkpt lat="50.495544103905559" lon="6.33487444370985">
        <ele>571.59000000000003</ele>
        <time>2019-04-24T11:25:32Z</time>
      </trkpt>
      <trkpt lat="50.49552901647985" lon="6.334841251373291">
        <ele>570.36000000000001</ele>
        <time>2019-04-24T11:25:34Z</time>
      </trkpt>
      <trkpt lat="50.495415609329939" lon="6.33463790640235">
        <ele>567.63999999999999</ele>
        <time>2019-04-24T11:25:47Z</time>
      </trkpt>
      <trkpt lat="50.495085781440139" lon="6.334034996107221">
        <ele>560.92999999999995</ele>
        <time>2019-04-24T11:26:26Z</time>
      </trkpt>
      <trkpt lat="50.495078070089221" lon="6.334023261442781">
        <ele>560.92999999999995</ele>
        <time>2019-04-24T11:26:27Z</time>
      </trkpt>
      <trkpt lat="50.495063820853829" lon="6.333945309743285">
        <ele>560.90999999999997</ele>
        <time>2019-04-24T11:26:30Z</time>
      </trkpt>
      <trkpt lat="50.495025850832462" lon="6.333792759105563">
        <ele>559.91999999999996</ele>
        <time>2019-04-24T11:26:38Z</time>
      </trkpt>
      <trkpt lat="50.495001543313265" lon="6.333639370277524">
        <ele>558.30999999999995</ele>
        <time>2019-04-24T11:26:45Z</time>
      </trkpt>
      <trkpt lat="50.494895344600081" lon="6.333378357812762">
        <ele>558.00999999999999</ele>
        <time>2019-04-24T11:26:58Z</time>
      </trkpt>
      <trkpt lat="50.493982806801796" lon="6.332025602459908">
        <ele>542.38</ele>
        <time>2019-04-24T11:29:55Z</time>
      </trkpt>
      <trkpt lat="50.493894796818495" lon="6.331982184201479">
        <ele>541.47000000000003</ele>
        <time>2019-04-24T11:30:02Z</time>
      </trkpt>
      <trkpt lat="50.493707880377769" lon="6.332033146172762">
        <ele>538.83000000000004</ele>
        <time>2019-04-24T11:30:15Z</time>
      </trkpt>
      <trkpt lat="50.493271350860596" lon="6.332230707630515">
        <ele>531.70000000000005</ele>
        <time>2019-04-24T11:30:49Z</time>
      </trkpt>
      <trkpt lat="50.493082255125046" lon="6.33225291967392">
        <ele>530.85000000000002</ele>
        <time>2019-04-24T11:31:00Z</time>
      </trkpt>
      <trkpt lat="50.493024587631226" lon="6.332296254113317">
        <ele>530.08000000000004</ele>
        <time>2019-04-24T11:31:04Z</time>
      </trkpt>
      <trkpt lat="50.492878071963787" lon="6.332465903833509">
        <ele>528.92999999999995</ele>
        <time>2019-04-24T11:31:16Z</time>
      </trkpt>
      <trkpt lat="50.492540448904037" lon="6.332756504416466">
        <ele>525.28999999999996</ele>
        <time>2019-04-24T11:31:49Z</time>
      </trkpt>
      <trkpt lat="50.492433831095695" lon="6.332788020372391">
        <ele>521.37</ele>
        <time>2019-04-24T11:31:56Z</time>
      </trkpt>
      <trkpt lat="50.492421174421906" lon="6.332788355648518">
        <ele>521.34000000000003</ele>
        <time>2019-04-24T11:31:57Z</time>
      </trkpt>
      <trkpt lat="50.492383874952793" lon="6.332818949595094">
        <ele>523.69000000000005</ele>
        <time>2019-04-24T11:32:01Z</time>
      </trkpt>
      <trkpt lat="50.492109870538116" lon="6.333050122484565">
        <ele>523.50999999999999</ele>
        <time>2019-04-24T11:32:22Z</time>
      </trkpt>
      <trkpt lat="50.491942819207907" lon="6.333184987306595">
        <ele>520.88</ele>
        <time>2019-04-24T11:32:34Z</time>
      </trkpt>
      <trkpt lat="50.491746766492724" lon="6.333381207659841">
        <ele>520.65999999999997</ele>
        <time>2019-04-24T11:32:49Z</time>
      </trkpt>
      <trkpt lat="50.491616763174534" lon="6.333483131602407">
        <ele>519.74000000000001</ele>
        <time>2019-04-24T11:32:58Z</time>
      </trkpt>
      <trkpt lat="50.491520538926125" lon="6.333531495183706">
        <ele>518.77999999999997</ele>
        <time>2019-04-24T11:33:04Z</time>
      </trkpt>
      <trkpt lat="50.491283498704433" lon="6.333702318370342">
        <ele>517.54999999999995</ele>
        <time>2019-04-24T11:33:22Z</time>
      </trkpt>
      <trkpt lat="50.491110412403941" lon="6.333796111866832">
        <ele>515.66999999999996</ele>
        <time>2019-04-24T11:33:36Z</time>
      </trkpt>
      <trkpt lat="50.490907486528158" lon="6.333952015265822">
        <ele>512.65999999999997</ele>
        <time>2019-04-24T11:33:51Z</time>
      </trkpt>
      <trkpt lat="50.490708081051707" lon="6.334091909229755">
        <ele>512.35000000000002</ele>
        <time>2019-04-24T11:34:05Z</time>
      </trkpt>
      <trkpt lat="50.4905547760427" lon="6.334217302501202">
        <ele>512.11000000000001</ele>
        <time>2019-04-24T11:34:15Z</time>
      </trkpt>
      <trkpt lat="50.490476908162236" lon="6.334266755729914">
        <ele>511.98000000000002</ele>
        <time>2019-04-24T11:34:20Z</time>
      </trkpt>
      <trkpt lat="50.490448409691453" lon="6.334276227280498">
        <ele>510.56999999999999</ele>
        <time>2019-04-24T11:34:22Z</time>
      </trkpt>
      <trkpt lat="50.490408092737198" lon="6.334305061027408">
        <ele>510.5</ele>
        <time>2019-04-24T11:34:25Z</time>
      </trkpt>
      <trkpt lat="50.490297535434365" lon="6.334450403228402">
        <ele>510.23000000000002</ele>
        <time>2019-04-24T11:34:37Z</time>
      </trkpt>
      <trkpt lat="50.490209273993969" lon="6.334549058228731">
        <ele>509.27999999999997</ele>
        <time>2019-04-24T11:34:44Z</time>
      </trkpt>
      <trkpt lat="50.490010203793645" lon="6.334760366007686">
        <ele>507.13999999999999</ele>
        <time>2019-04-24T11:34:58Z</time>
      </trkpt>
      <trkpt lat="50.489885648712516" lon="6.334958765655756">
        <ele>505.13</ele>
        <time>2019-04-24T11:35:14Z</time>
      </trkpt>
      <trkpt lat="50.4898467566818" lon="6.335065886378288">
        <ele>503.60000000000002</ele>
        <time>2019-04-24T11:35:19Z</time>
      </trkpt>
      <trkpt lat="50.489831417798996" lon="6.33513730019331">
        <ele>502.13999999999999</ele>
        <time>2019-04-24T11:35:22Z</time>
      </trkpt>
      <trkpt lat="50.489815324544907" lon="6.335181556642056">
        <ele>504.51999999999998</ele>
        <time>2019-04-24T11:35:24Z</time>
      </trkpt>
      <trkpt lat="50.489770565181971" lon="6.335334442555904">
        <ele>502.30000000000001</ele>
        <time>2019-04-24T11:35:30Z</time>
      </trkpt>
      <trkpt lat="50.489654559642076" lon="6.335772732272744">
        <ele>501.18000000000001</ele>
        <time>2019-04-24T11:35:50Z</time>
      </trkpt>
      <trkpt lat="50.489626564085484" lon="6.336230803281069">
        <ele>499.94</ele>
        <time>2019-04-24T11:36:11Z</time>
      </trkpt>
      <trkpt lat="50.48965129069984" lon="6.336530037224293">
        <ele>499.63</ele>
        <time>2019-04-24T11:36:25Z</time>
      </trkpt>
      <trkpt lat="50.489675346761942" lon="6.336987521499395">
        <ele>498.31999999999999</ele>
        <time>2019-04-24T11:36:43Z</time>
      </trkpt>
      <trkpt lat="50.489672077819705" lon="6.33704200387001">
        <ele>498.25999999999999</ele>
        <time>2019-04-24T11:36:46Z</time>
      </trkpt>
      <trkpt lat="50.489696804434061" lon="6.337385075166822">
        <ele>497.05000000000001</ele>
        <time>2019-04-24T11:37:01Z</time>
      </trkpt>
      <trkpt lat="50.489754304289818" lon="6.337822359055281">
        <ele>496.51999999999998</ele>
        <time>2019-04-24T11:37:21Z</time>
      </trkpt>
      <trkpt lat="50.489790681749582" lon="6.338150259107351">
        <ele>496.14999999999998</ele>
        <time>2019-04-24T11:37:33Z</time>
      </trkpt>
      <trkpt lat="50.489837033674121" lon="6.338486038148403">
        <ele>495.86000000000001</ele>
        <time>2019-04-24T11:37:45Z</time>
      </trkpt>
      <trkpt lat="50.489841056987643" lon="6.338542280718684">
        <ele>495.80000000000001</ele>
        <time>2019-04-24T11:37:47Z</time>
      </trkpt>
      <trkpt lat="50.489868633449078" lon="6.338723078370094">
        <ele>494.73000000000002</ele>
        <time>2019-04-24T11:37:55Z</time>
      </trkpt>
      <trkpt lat="50.489991763606668" lon="6.339049385860562">
        <ele>494.26999999999998</ele>
        <time>2019-04-24T11:38:13Z</time>
      </trkpt>
      <trkpt lat="50.490106595680118" lon="6.339448532089591">
        <ele>493.69999999999999</ele>
        <time>2019-04-24T11:38:32Z</time>
      </trkpt>
      <trkpt lat="50.490146912634373" lon="6.339868465438485">
        <ele>493.13999999999999</ele>
        <time>2019-04-24T11:38:51Z</time>
      </trkpt>
      <trkpt lat="50.49017901532352" lon="6.34022444486618">
        <ele>492.60000000000002</ele>
        <time>2019-04-24T11:39:07Z</time>
      </trkpt>
      <trkpt lat="50.490212375298142" lon="6.340702632442117">
        <ele>490.95999999999998</ele>
        <time>2019-04-24T11:39:26Z</time>
      </trkpt>
      <trkpt lat="50.490211704745889" lon="6.341982716694474">
        <ele>488.36000000000001</ele>
        <time>2019-04-24T11:40:12Z</time>
      </trkpt>
      <trkpt lat="50.490199718624353" lon="6.342137362807989">
        <ele>488.07999999999998</ele>
        <time>2019-04-24T11:40:18Z</time>
      </trkpt>
      <trkpt lat="50.490192761644721" lon="6.342622423544526">
        <ele>487.20999999999998</ele>
        <time>2019-04-24T11:40:38Z</time>
      </trkpt>
      <trkpt lat="50.49019368365407" lon="6.342919813469052">
        <ele>486.54000000000002</ele>
        <time>2019-04-24T11:40:52Z</time>
      </trkpt>
      <trkpt lat="50.490189660340548" lon="6.343335555866361">
        <ele>483.92000000000002</ele>
        <time>2019-04-24T11:41:11Z</time>
      </trkpt>
      <trkpt lat="50.490184966474771" lon="6.343544013798237">
        <ele>483.51999999999998</ele>
        <time>2019-04-24T11:41:19Z</time>
      </trkpt>
      <trkpt lat="50.490182619541883" lon="6.343687009066343">
        <ele>482.37</ele>
        <time>2019-04-24T11:41:27Z</time>
      </trkpt>
      <trkpt lat="50.490153031423688" lon="6.344447918236256">
        <ele>480.12</ele>
        <time>2019-04-24T11:41:56Z</time>
      </trkpt>
      <trkpt lat="50.490150768309832" lon="6.344524025917053">
        <ele>483.49000000000001</ele>
        <time>2019-04-24T11:42:00Z</time>
      </trkpt>
      <trkpt lat="50.490148086100817" lon="6.344557469710708">
        <ele>479.50999999999999</ele>
        <time>2019-04-24T11:42:01Z</time>
      </trkpt>
      <trkpt lat="50.490145655348897" lon="6.34458445943892">
        <ele>482.88</ele>
        <time>2019-04-24T11:42:02Z</time>
      </trkpt>
      <trkpt lat="50.490148002281785" lon="6.344600804150105">
        <ele>482.81</ele>
        <time>2019-04-24T11:42:03Z</time>
      </trkpt>
      <trkpt lat="50.490122940391302" lon="6.344903726130724">
        <ele>482.16000000000003</ele>
        <time>2019-04-24T11:42:17Z</time>
      </trkpt>
      <trkpt lat="50.490121766924858" lon="6.344967093318701">
        <ele>476.06</ele>
        <time>2019-04-24T11:42:19Z</time>
      </trkpt>
      <trkpt lat="50.490118497982621" lon="6.34498905390501">
        <ele>481.48000000000002</ele>
        <time>2019-04-24T11:42:20Z</time>
      </trkpt>
      <trkpt lat="50.490113804116845" lon="6.345011601224542">
        <ele>481.43000000000001</ele>
        <time>2019-04-24T11:42:21Z</time>
      </trkpt>
      <trkpt lat="50.490087568759918" lon="6.345130121335387">
        <ele>481.19999999999999</ele>
        <time>2019-04-24T11:42:26Z</time>
      </trkpt>
      <trkpt lat="50.490060411393642" lon="6.345840990543366">
        <ele>476.26999999999998</ele>
        <time>2019-04-24T11:43:01Z</time>
      </trkpt>
      <trkpt lat="50.490048928186297" lon="6.346251117065549">
        <ele>474.50999999999999</ele>
        <time>2019-04-24T11:43:21Z</time>
      </trkpt>
      <trkpt lat="50.490034092217684" lon="6.34633912704885">
        <ele>473.25999999999999</ele>
        <time>2019-04-24T11:43:24Z</time>
      </trkpt>
      <trkpt lat="50.49003342166543" lon="6.346710780635476">
        <ele>472.47000000000003</ele>
        <time>2019-04-24T11:43:42Z</time>
      </trkpt>
      <trkpt lat="50.490027386695147" lon="6.346832066774368">
        <ele>471.39999999999998</ele>
        <time>2019-04-24T11:43:47Z</time>
      </trkpt>
      <trkpt lat="50.490021100267768" lon="6.346957795321941">
        <ele>471.18000000000001</ele>
        <time>2019-04-24T11:43:52Z</time>
      </trkpt>
      <trkpt lat="50.489858910441399" lon="6.347875781357288">
        <ele>465.37</ele>
        <time>2019-04-24T11:44:39Z</time>
      </trkpt>
      <trkpt lat="50.489765619859099" lon="6.348231676965952">
        <ele>464.82999999999998</ele>
        <time>2019-04-24T11:44:56Z</time>
      </trkpt>
      <trkpt lat="50.489702001214027" lon="6.34853208437562">
        <ele>464.50999999999999</ele>
        <time>2019-04-24T11:45:09Z</time>
      </trkpt>
      <trkpt lat="50.489656068384647" lon="6.348686143755913">
        <ele>464.38999999999999</ele>
        <time>2019-04-24T11:45:14Z</time>
      </trkpt>
      <trkpt lat="50.489654308184981" lon="6.348754456266761">
        <ele>464.33999999999997</ele>
        <time>2019-04-24T11:45:16Z</time>
      </trkpt>
      <trkpt lat="50.489572249352932" lon="6.349068190902472">
        <ele>465.76999999999998</ele>
        <time>2019-04-24T11:45:23Z</time>
      </trkpt>
      <trkpt lat="50.489554731175303" lon="6.349287377670407">
        <ele>465.63</ele>
        <time>2019-04-24T11:45:28Z</time>
      </trkpt>
      <trkpt lat="50.489559089764953" lon="6.349317133426666">
        <ele>465.60000000000002</ele>
        <time>2019-04-24T11:45:29Z</time>
      </trkpt>
      <trkpt lat="50.489308470860124" lon="6.350400075316429">
        <ele>457.75</ele>
        <time>2019-04-24T11:46:03Z</time>
      </trkpt>
      <trkpt lat="50.489254575222731" lon="6.350959148257971">
        <ele>456.44999999999999</ele>
        <time>2019-04-24T11:46:13Z</time>
      </trkpt>
      <trkpt lat="50.489106383174658" lon="6.351597094908357">
        <ele>458.22000000000003</ele>
        <time>2019-04-24T11:46:27Z</time>
      </trkpt>
      <trkpt lat="50.488958107307553" lon="6.352213500067592">
        <ele>458.05000000000001</ele>
        <time>2019-04-24T11:46:31Z</time>
      </trkpt>
      <trkpt lat="50.489088362082839" lon="6.352851362898946">
        <ele>455.49000000000001</ele>
        <time>2019-04-24T11:46:36Z</time>
      </trkpt>
      <trkpt lat="50.489241080358624" lon="6.353553766384721">
        <ele>455.04000000000002</ele>
        <time>2019-04-24T11:47:06Z</time>
      </trkpt>
      <trkpt lat="50.489497063681483" lon="6.354092722758651">
        <ele>449.70999999999998</ele>
        <time>2019-04-24T11:47:43Z</time>
      </trkpt>
      <trkpt lat="50.489506451413035" lon="6.354190120473504">
        <ele>449.62</ele>
        <time>2019-04-24T11:47:46Z</time>
      </trkpt>
      <trkpt lat="50.489586163312197" lon="6.354471920058131">
        <ele>445.66000000000003</ele>
        <time>2019-04-24T11:48:00Z</time>
      </trkpt>
      <trkpt lat="50.48959756270051" lon="6.354568563401699">
        <ele>444.72000000000003</ele>
        <time>2019-04-24T11:48:04Z</time>
      </trkpt>
      <trkpt lat="50.489653721451759" lon="6.354847345501185">
        <ele>444.38999999999999</ele>
        <time>2019-04-24T11:48:15Z</time>
      </trkpt>
      <trkpt lat="50.48974072560668" lon="6.355115231126547">
        <ele>442.24000000000001</ele>
        <time>2019-04-24T11:48:29Z</time>
      </trkpt>
      <trkpt lat="50.489839715883136" lon="6.355410777032375">
        <ele>439.37</ele>
        <time>2019-04-24T11:48:44Z</time>
      </trkpt>
      <trkpt lat="50.489930659532547" lon="6.35575108230114">
        <ele>437.24000000000001</ele>
        <time>2019-04-24T11:49:04Z</time>
      </trkpt>
      <trkpt lat="50.489951614290476" lon="6.356289116665721">
        <ele>435.36000000000001</ele>
        <time>2019-04-24T11:49:27Z</time>
      </trkpt>
      <trkpt lat="50.489986147731543" lon="6.356607461348176">
        <ele>434.86000000000001</ele>
        <time>2019-04-24T11:49:43Z</time>
      </trkpt>
      <trkpt lat="50.489989081397653" lon="6.356625398620963">
        <ele>434.83999999999997</ele>
        <time>2019-04-24T11:49:44Z</time>
      </trkpt>
      <trkpt lat="50.489843571558595" lon="6.357117919251323">
        <ele>434.48000000000002</ele>
        <time>2019-04-24T11:49:56Z</time>
      </trkpt>
      <trkpt lat="50.489760674536228" lon="6.357201486825943">
        <ele>434.33999999999997</ele>
        <time>2019-04-24T11:50:02Z</time>
      </trkpt>
      <trkpt lat="50.489725219085813" lon="6.35718422010541">
        <ele>434.25999999999999</ele>
        <time>2019-04-24T11:50:05Z</time>
      </trkpt>
      <trkpt lat="50.489640729501843" lon="6.357094617560506">
        <ele>434.05000000000001</ele>
        <time>2019-04-24T11:50:15Z</time>
      </trkpt>
      <trkpt lat="50.489599322900176" lon="6.357051618397236">
        <ele>435.48000000000002</ele>
        <time>2019-04-24T11:50:19Z</time>
      </trkpt>
      <trkpt lat="50.489448867738247" lon="6.357025047764182">
        <ele>436.07999999999998</ele>
        <time>2019-04-24T11:50:27Z</time>
      </trkpt>
      <trkpt lat="50.489350967109203" lon="6.356944413855672">
        <ele>435.97000000000003</ele>
        <time>2019-04-24T11:50:33Z</time>
      </trkpt>
      <trkpt lat="50.489212749525905" lon="6.356827151030302">
        <ele>436.76999999999998</ele>
        <time>2019-04-24T11:50:41Z</time>
      </trkpt>
      <trkpt lat="50.489012002944946" lon="6.356713492423296">
        <ele>437.49000000000001</ele>
        <time>2019-04-24T11:50:55Z</time>
      </trkpt>
      <trkpt lat="50.488856937736273" lon="6.356503861024976">
        <ele>437.37</ele>
        <time>2019-04-24T11:51:12Z</time>
      </trkpt>
      <trkpt lat="50.488796252757311" lon="6.356435967609286">
        <ele>439.44</ele>
        <time>2019-04-24T11:51:20Z</time>
      </trkpt>
      <trkpt lat="50.488725174218416" lon="6.356276040896773">
        <ele>439.35000000000002</ele>
        <time>2019-04-24T11:51:31Z</time>
      </trkpt>
      <trkpt lat="50.488698352128267" lon="6.356246368959546">
        <ele>441.63</ele>
        <time>2019-04-24T11:51:34Z</time>
      </trkpt>
      <trkpt lat="50.488667758181691" lon="6.35614737868309">
        <ele>441.61000000000001</ele>
        <time>2019-04-24T11:51:37Z</time>
      </trkpt>
      <trkpt lat="50.48846198245883" lon="6.355719147250056">
        <ele>441.44</ele>
        <time>2019-04-24T11:51:56Z</time>
      </trkpt>
      <trkpt lat="50.488296020776033" lon="6.355266273021698">
        <ele>441.31999999999999</ele>
        <time>2019-04-24T11:52:17Z</time>
      </trkpt>
      <trkpt lat="50.488244304433465" lon="6.355040296912193">
        <ele>442.06</ele>
        <time>2019-04-24T11:52:28Z</time>
      </trkpt>
      <trkpt lat="50.488143637776375" lon="6.354556493461132">
        <ele>442.79000000000002</ele>
        <time>2019-04-24T11:52:49Z</time>
      </trkpt>
      <trkpt lat="50.488039869815111" lon="6.354003036394715">
        <ele>442.74000000000001</ele>
        <time>2019-04-24T11:53:13Z</time>
      </trkpt>
      <trkpt lat="50.487935179844499" lon="6.353668179363012">
        <ele>443.55000000000001</ele>
        <time>2019-04-24T11:53:31Z</time>
      </trkpt>
      <trkpt lat="50.487885642796755" lon="6.353484196588397">
        <ele>443.56</ele>
        <time>2019-04-24T11:53:39Z</time>
      </trkpt>
      <trkpt lat="50.487847756594419" lon="6.352983713150024">
        <ele>443.50999999999999</ele>
        <time>2019-04-24T11:53:59Z</time>
      </trkpt>
      <trkpt lat="50.487890923395753" lon="6.352872652933002">
        <ele>443.49000000000001</ele>
        <time>2019-04-24T11:54:03Z</time>
      </trkpt>
      <trkpt lat="50.487654386088252" lon="6.351433144882321">
        <ele>440.88999999999999</ele>
        <time>2019-04-24T11:55:05Z</time>
      </trkpt>
      <trkpt lat="50.487549528479576" lon="6.350961830466986">
        <ele>440.04000000000002</ele>
        <time>2019-04-24T11:55:28Z</time>
      </trkpt>
      <trkpt lat="50.487426230683923" lon="6.350507447496057">
        <ele>439.98000000000002</ele>
        <time>2019-04-24T11:55:49Z</time>
      </trkpt>
      <trkpt lat="50.487376861274242" lon="6.350189354270697">
        <ele>439.98000000000002</ele>
        <time>2019-04-24T11:56:01Z</time>
      </trkpt>
      <trkpt lat="50.487320786342025" lon="6.349869417026639">
        <ele>439.94</ele>
        <time>2019-04-24T11:56:29Z</time>
      </trkpt>
      <trkpt lat="50.487231016159058" lon="6.349572027102113">
        <ele>439.94</ele>
        <time>2019-04-24T11:56:43Z</time>
      </trkpt>
      <trkpt lat="50.487113166600466" lon="6.349098030477762">
        <ele>440</ele>
        <time>2019-04-24T11:57:06Z</time>
      </trkpt>
      <trkpt lat="50.486997999250889" lon="6.348684215918183">
        <ele>441.49000000000001</ele>
        <time>2019-04-24T11:59:31Z</time>
      </trkpt>
      <trkpt lat="50.486947372555733" lon="6.348599474877119">
        <ele>442.39999999999998</ele>
        <time>2019-04-24T11:59:38Z</time>
      </trkpt>
      <trkpt lat="50.486776800826192" lon="6.348252967000008">
        <ele>443.35000000000002</ele>
        <time>2019-04-24T11:59:57Z</time>
      </trkpt>
      <trkpt lat="50.486584352329373" lon="6.347831189632416">
        <ele>443.50999999999999</ele>
        <time>2019-04-24T12:00:18Z</time>
      </trkpt>
      <trkpt lat="50.486465999856591" lon="6.347454339265823">
        <ele>443.60000000000002</ele>
        <time>2019-04-24T12:00:37Z</time>
      </trkpt>
      <trkpt lat="50.486326524987817" lon="6.347004231065512">
        <ele>444.54000000000002</ele>
        <time>2019-04-24T12:00:59Z</time>
      </trkpt>
      <trkpt lat="50.48616936430335" lon="6.346650933846831">
        <ele>444.56</ele>
        <time>2019-04-24T12:01:18Z</time>
      </trkpt>
      <trkpt lat="50.4859958589077" lon="6.346302665770054">
        <ele>445.37</ele>
        <time>2019-04-24T12:01:39Z</time>
      </trkpt>
      <trkpt lat="50.485844146460295" lon="6.346084987744689">
        <ele>445.33999999999997</ele>
        <time>2019-04-24T12:01:50Z</time>
      </trkpt>
      <trkpt lat="50.485630240291357" lon="6.345887007191777">
        <ele>445.32999999999998</ele>
        <time>2019-04-24T12:02:06Z</time>
      </trkpt>
      <trkpt lat="50.48541197553277" lon="6.345617864280939">
        <ele>445.27999999999997</ele>
        <time>2019-04-24T12:02:22Z</time>
      </trkpt>
      <trkpt lat="50.485261520370841" lon="6.34549523703754">
        <ele>445.22000000000003</ele>
        <time>2019-04-24T12:02:35Z</time>
      </trkpt>
      <trkpt lat="50.485102096572518" lon="6.345243193209171">
        <ele>445.19</ele>
        <time>2019-04-24T12:02:52Z</time>
      </trkpt>
      <trkpt lat="50.484871091321111" lon="6.344947312027216">
        <ele>445.94999999999999</ele>
        <time>2019-04-24T12:03:10Z</time>
      </trkpt>
      <trkpt lat="50.484759863466024" lon="6.344740027561784">
        <ele>446.89999999999998</ele>
        <time>2019-04-24T12:03:22Z</time>
      </trkpt>
      <trkpt lat="50.484682582318783" lon="6.344474907964468">
        <ele>446.87</ele>
        <time>2019-04-24T12:03:36Z</time>
      </trkpt>
      <trkpt lat="50.484526762738824" lon="6.344108786433935">
        <ele>447.56</ele>
        <time>2019-04-24T12:03:55Z</time>
      </trkpt>
      <trkpt lat="50.484336828812957" lon="6.343735875561833">
        <ele>447.58999999999997</ele>
        <time>2019-04-24T12:04:15Z</time>
      </trkpt>
      <trkpt lat="50.484180422499776" lon="6.343471175059676">
        <ele>448.38999999999999</ele>
        <time>2019-04-24T12:04:29Z</time>
      </trkpt>
      <trkpt lat="50.484074810519814" lon="6.343240337446332">
        <ele>448.45999999999998</ele>
        <time>2019-04-24T12:04:41Z</time>
      </trkpt>
      <trkpt lat="50.48395536839962" lon="6.342989969998598">
        <ele>448.44</ele>
        <time>2019-04-24T12:04:53Z</time>
      </trkpt>
      <trkpt lat="50.483884876593947" lon="6.342858877032995">
        <ele>449.19999999999999</ele>
        <time>2019-04-24T12:05:02Z</time>
      </trkpt>
      <trkpt lat="50.483697624877095" lon="6.342607252299786">
        <ele>449.30000000000001</ele>
        <time>2019-04-24T12:05:20Z</time>
      </trkpt>
      <trkpt lat="50.483531830832362" lon="6.342330984771252">
        <ele>449.32999999999998</ele>
        <time>2019-04-24T12:05:36Z</time>
      </trkpt>
      <trkpt lat="50.483278864994645" lon="6.341999731957912">
        <ele>450.25999999999999</ele>
        <time>2019-04-24T12:05:58Z</time>
      </trkpt>
      <trkpt lat="50.483008800074458" lon="6.341653978452086">
        <ele>450.29000000000002</ele>
        <time>2019-04-24T12:06:20Z</time>
      </trkpt>
      <trkpt lat="50.482810400426388" lon="6.341481730341911">
        <ele>450.33999999999997</ele>
        <time>2019-04-24T12:06:33Z</time>
      </trkpt>
      <trkpt lat="50.482743429020047" lon="6.341434037312865">
        <ele>450.36000000000001</ele>
        <time>2019-04-24T12:06:37Z</time>
      </trkpt>
      <trkpt lat="50.482558524236083" lon="6.341376705095172">
        <ele>450.43000000000001</ele>
        <time>2019-04-24T12:06:53Z</time>
      </trkpt>
      <trkpt lat="50.482300277799368" lon="6.341349380090833">
        <ele>450.55000000000001</ele>
        <time>2019-04-24T12:07:13Z</time>
      </trkpt>
      <trkpt lat="50.481983777135611" lon="6.34132725186646">
        <ele>450.63</ele>
        <time>2019-04-24T12:07:32Z</time>
      </trkpt>
      <trkpt lat="50.481827622279525" lon="6.341365892440081">
        <ele>450.69999999999999</ele>
        <time>2019-04-24T12:07:43Z</time>
      </trkpt>
      <trkpt lat="50.481715891510248" lon="6.341425152495503">
        <ele>450.74000000000001</ele>
        <time>2019-04-24T12:07:50Z</time>
      </trkpt>
      <trkpt lat="50.481507685035467" lon="6.341454237699509">
        <ele>450.82999999999998</ele>
        <time>2019-04-24T12:08:03Z</time>
      </trkpt>
      <trkpt lat="50.481434678658843" lon="6.341468906030059">
        <ele>450.82999999999998</ele>
        <time>2019-04-24T12:08:08Z</time>
      </trkpt>
      <trkpt lat="50.481134690344334" lon="6.341525232419372">
        <ele>451.82999999999998</ele>
        <time>2019-04-24T12:08:25Z</time>
      </trkpt>
      <trkpt lat="50.480868732556701" lon="6.341536296531558">
        <ele>452.72000000000003</ele>
        <time>2019-04-24T12:08:38Z</time>
      </trkpt>
      <trkpt lat="50.480593638494611" lon="6.341619277372956">
        <ele>450.07999999999998</ele>
        <time>2019-04-24T12:08:47Z</time>
      </trkpt>
      <trkpt lat="50.480554159730673" lon="6.341641657054424">
        <ele>455.87</ele>
        <time>2019-04-24T12:08:49Z</time>
      </trkpt>
      <trkpt lat="50.480529768392444" lon="6.341653056442738">
        <ele>455.92000000000002</ele>
        <time>2019-04-24T12:08:50Z</time>
      </trkpt>
      <trkpt lat="50.480198012664914" lon="6.341710388660431">
        <ele>455.97000000000003</ele>
        <time>2019-04-24T12:09:01Z</time>
      </trkpt>
      <trkpt lat="50.479865418747067" lon="6.341714998707175">
        <ele>456.17000000000002</ele>
        <time>2019-04-24T12:09:12Z</time>
      </trkpt>
      <trkpt lat="50.47950591892004" lon="6.341685745865107">
        <ele>456.32999999999998</ele>
        <time>2019-04-24T12:09:23Z</time>
      </trkpt>
      <trkpt lat="50.479182880371809" lon="6.341662779450417">
        <ele>456.55000000000001</ele>
        <time>2019-04-24T12:09:34Z</time>
      </trkpt>
      <trkpt lat="50.478852298110723" lon="6.341592203825712">
        <ele>456.69999999999999</ele>
        <time>2019-04-24T12:09:44Z</time>
      </trkpt>
      <trkpt lat="50.478513836860657" lon="6.341598993167281">
        <ele>457.81</ele>
        <time>2019-04-24T12:09:56Z</time>
      </trkpt>
      <trkpt lat="50.47846706584096" lon="6.341594718396664">
        <ele>458.77999999999997</ele>
        <time>2019-04-24T12:09:58Z</time>
      </trkpt>
      <trkpt lat="50.478452229872346" lon="6.341590443626046">
        <ele>458.80000000000001</ele>
        <time>2019-04-24T12:09:59Z</time>
      </trkpt>
      <trkpt lat="50.478423060849309" lon="6.341592622920871">
        <ele>458.80000000000001</ele>
        <time>2019-04-24T12:10:00Z</time>
      </trkpt>
      <trkpt lat="50.478393891826272" lon="6.341594215482473">
        <ele>458.83999999999997</ele>
        <time>2019-04-24T12:10:01Z</time>
      </trkpt>
      <trkpt lat="50.478369249030948" lon="6.341595305129886">
        <ele>458.85000000000002</ele>
        <time>2019-04-24T12:10:02Z</time>
      </trkpt>
      <trkpt lat="50.478339660912752" lon="6.341595640406013">
        <ele>458.88</ele>
        <time>2019-04-24T12:10:03Z</time>
      </trkpt>
      <trkpt lat="50.478309905156493" lon="6.341599998995662">
        <ele>458.89999999999998</ele>
        <time>2019-04-24T12:10:04Z</time>
      </trkpt>
      <trkpt lat="50.478280568495393" lon="6.341606369242072">
        <ele>458.88999999999999</ele>
        <time>2019-04-24T12:10:05Z</time>
      </trkpt>
      <trkpt lat="50.477980161085725" lon="6.341542415320873">
        <ele>459.88999999999999</ele>
        <time>2019-04-24T12:10:15Z</time>
      </trkpt>
      <trkpt lat="50.477686962112784" lon="6.341437976807356">
        <ele>460.11000000000001</ele>
        <time>2019-04-24T12:10:25Z</time>
      </trkpt>
      <trkpt lat="50.477380016818643" lon="6.34134384803474">
        <ele>461.29000000000002</ele>
        <time>2019-04-24T12:10:37Z</time>
      </trkpt>
      <trkpt lat="50.477064438164234" lon="6.34121191687882">
        <ele>462.43000000000001</ele>
        <time>2019-04-24T12:10:49Z</time>
      </trkpt>
      <trkpt lat="50.476757073774934" lon="6.340990466997027">
        <ele>463.63999999999999</ele>
        <time>2019-04-24T12:11:02Z</time>
      </trkpt>
      <trkpt lat="50.476477956399322" lon="6.34082593023777">
        <ele>464.41000000000003</ele>
        <time>2019-04-24T12:11:15Z</time>
      </trkpt>
      <trkpt lat="50.476461695507169" lon="6.340810591354966">
        <ele>464.39999999999998</ele>
        <time>2019-04-24T12:11:16Z</time>
      </trkpt>
      <trkpt lat="50.476447278633714" lon="6.340805310755968">
        <ele>464.39999999999998</ele>
        <time>2019-04-24T12:11:17Z</time>
      </trkpt>
      <trkpt lat="50.476432023569942" lon="6.34078192524612">
        <ele>464.39999999999998</ele>
        <time>2019-04-24T12:11:18Z</time>
      </trkpt>
      <trkpt lat="50.476408721879125" lon="6.340746805071831">
        <ele>464.38999999999999</ele>
        <time>2019-04-24T12:11:19Z</time>
      </trkpt>
      <trkpt lat="50.476391790434718" lon="6.340739093720913">
        <ele>464.38</ele>
        <time>2019-04-24T12:11:20Z</time>
      </trkpt>
      <trkpt lat="50.476366560906172" lon="6.340689053758979">
        <ele>464.37</ele>
        <time>2019-04-24T12:11:21Z</time>
      </trkpt>
      <trkpt lat="50.476351473480463" lon="6.340673295781016">
        <ele>464.36000000000001</ele>
        <time>2019-04-24T12:11:22Z</time>
      </trkpt>
      <trkpt lat="50.476335631683469" lon="6.34064856916666">
        <ele>464.35000000000002</ele>
        <time>2019-04-24T12:11:23Z</time>
      </trkpt>
      <trkpt lat="50.476316185668111" lon="6.340633481740952">
        <ele>464.33999999999997</ele>
        <time>2019-04-24T12:11:24Z</time>
      </trkpt>
      <trkpt lat="50.476298164576292" lon="6.340611102059484">
        <ele>464.32999999999998</ele>
        <time>2019-04-24T12:11:25Z</time>
      </trkpt>
      <trkpt lat="50.476276539266109" lon="6.340594757348299">
        <ele>464.32999999999998</ele>
        <time>2019-04-24T12:11:26Z</time>
      </trkpt>
      <trkpt lat="50.476255416870117" lon="6.340569527819753">
        <ele>464.31999999999999</ele>
        <time>2019-04-24T12:11:27Z</time>
      </trkpt>
      <trkpt lat="50.476239575073123" lon="6.340542286634445">
        <ele>464.31999999999999</ele>
        <time>2019-04-24T12:11:28Z</time>
      </trkpt>
      <trkpt lat="50.476224990561604" lon="6.340515129268169">
        <ele>464.31</ele>
        <time>2019-04-24T12:11:29Z</time>
      </trkpt>
      <trkpt lat="50.476051568984985" lon="6.340355705469847">
        <ele>465.31</ele>
        <time>2019-04-24T12:11:42Z</time>
      </trkpt>
      <trkpt lat="50.47595894895494" lon="6.340261911973357">
        <ele>465.26999999999998</ele>
        <time>2019-04-24T12:11:46Z</time>
      </trkpt>
      <trkpt lat="50.475948806852102" lon="6.340242717415094">
        <ele>465.27999999999997</ele>
        <time>2019-04-24T12:11:47Z</time>
      </trkpt>
      <trkpt lat="50.475931707769632" lon="6.340231318026781">
        <ele>465.30000000000001</ele>
        <time>2019-04-24T12:11:48Z</time>
      </trkpt>
      <trkpt lat="50.475914441049099" lon="6.340216649696231">
        <ele>465.31</ele>
        <time>2019-04-24T12:11:49Z</time>
      </trkpt>
      <trkpt lat="50.475892564281821" lon="6.340199634432793">
        <ele>465.29000000000002</ele>
        <time>2019-04-24T12:11:50Z</time>
      </trkpt>
      <trkpt lat="50.475875968113542" lon="6.340189995244145">
        <ele>465.30000000000001</ele>
        <time>2019-04-24T12:11:51Z</time>
      </trkpt>
      <trkpt lat="50.475861886516213" lon="6.34018094278872">
        <ele>465.32999999999998</ele>
        <time>2019-04-24T12:11:52Z</time>
      </trkpt>
      <trkpt lat="50.475848894566298" lon="6.340168872848153">
        <ele>465.32999999999998</ele>
        <time>2019-04-24T12:11:53Z</time>
      </trkpt>
      <trkpt lat="50.475836908444762" lon="6.340158227831125">
        <ele>465.31</ele>
        <time>2019-04-24T12:11:54Z</time>
      </trkpt>
      <trkpt lat="50.475697433575988" lon="6.340031661093235">
        <ele>466.19</ele>
        <time>2019-04-24T12:12:06Z</time>
      </trkpt>
      <trkpt lat="50.475562904030085" lon="6.339822448790073">
        <ele>466.19999999999999</ele>
        <time>2019-04-24T12:12:19Z</time>
      </trkpt>
      <trkpt lat="50.475395685061812" lon="6.339598735794425">
        <ele>466.29000000000002</ele>
        <time>2019-04-24T12:12:35Z</time>
      </trkpt>
      <trkpt lat="50.47514196485281" lon="6.339257592335343">
        <ele>468.05000000000001</ele>
        <time>2019-04-24T12:12:59Z</time>
      </trkpt>
      <trkpt lat="50.474885143339634" lon="6.338912677019835">
        <ele>467.94999999999999</ele>
        <time>2019-04-24T12:13:15Z</time>
      </trkpt>
      <trkpt lat="50.47479604370892" lon="6.338794743642211">
        <ele>467.97000000000003</ele>
        <time>2019-04-24T12:13:22Z</time>
      </trkpt>
      <trkpt lat="50.474618514999747" lon="6.338620400056243">
        <ele>467.94</ele>
        <time>2019-04-24T12:13:36Z</time>
      </trkpt>
      <trkpt lat="50.474481889978051" lon="6.338516380637884">
        <ele>467.98000000000002</ele>
        <time>2019-04-24T12:13:48Z</time>
      </trkpt>
      <trkpt lat="50.47431031242013" lon="6.338411355391145">
        <ele>468.04000000000002</ele>
        <time>2019-04-24T12:14:00Z</time>
      </trkpt>
      <trkpt lat="50.474169244989753" lon="6.338340863585472">
        <ele>468.91000000000003</ele>
        <time>2019-04-24T12:14:12Z</time>
      </trkpt>
      <trkpt lat="50.473991213366389" lon="6.338304989039898">
        <ele>469.02999999999997</ele>
        <time>2019-04-24T12:14:24Z</time>
      </trkpt>
      <trkpt lat="50.473920721560717" lon="6.338305156677961">
        <ele>469.04000000000002</ele>
        <time>2019-04-24T12:14:28Z</time>
      </trkpt>
      <trkpt lat="50.473738750442863" lon="6.33828847669065">
        <ele>469.95999999999998</ele>
        <time>2019-04-24T12:14:40Z</time>
      </trkpt>
      <trkpt lat="50.473727518692613" lon="6.338284704834223">
        <ele>469.97000000000003</ele>
        <time>2019-04-24T12:14:41Z</time>
      </trkpt>
      <trkpt lat="50.473688626661897" lon="6.338269952684641">
        <ele>470.00999999999999</ele>
        <time>2019-04-24T12:14:44Z</time>
      </trkpt>
      <trkpt lat="50.473491149023175" lon="6.338352179154754">
        <ele>470.88</ele>
        <time>2019-04-24T12:14:58Z</time>
      </trkpt>
      <trkpt lat="50.473230639472604" lon="6.338470196351409">
        <ele>471.06999999999999</ele>
        <time>2019-04-24T12:15:13Z</time>
      </trkpt>
      <trkpt lat="50.47304137609899" lon="6.33857823908329">
        <ele>472.31</ele>
        <time>2019-04-24T12:15:26Z</time>
      </trkpt>
      <trkpt lat="50.473029222339392" lon="6.338585866615176">
        <ele>472.33999999999997</ele>
        <time>2019-04-24T12:15:27Z</time>
      </trkpt>
      <trkpt lat="50.473013548180461" lon="6.338595170527697">
        <ele>472.33999999999997</ele>
        <time>2019-04-24T12:15:28Z</time>
      </trkpt>
      <trkpt lat="50.472996616736054" lon="6.338602630421519">
        <ele>472.33999999999997</ele>
        <time>2019-04-24T12:15:29Z</time>
      </trkpt>
      <trkpt lat="50.472983624786139" lon="6.338609419763088">
        <ele>472.33999999999997</ele>
        <time>2019-04-24T12:15:30Z</time>
      </trkpt>
      <trkpt lat="50.472971219569445" lon="6.338617885485292">
        <ele>472.36000000000001</ele>
        <time>2019-04-24T12:15:31Z</time>
      </trkpt>
      <trkpt lat="50.472957054153085" lon="6.33862660266459">
        <ele>472.37</ele>
        <time>2019-04-24T12:15:32Z</time>
      </trkpt>
      <trkpt lat="50.472942804917693" lon="6.338638169690967">
        <ele>472.38999999999999</ele>
        <time>2019-04-24T12:15:33Z</time>
      </trkpt>
      <trkpt lat="50.472930064424872" lon="6.338649988174439">
        <ele>472.39999999999998</ele>
        <time>2019-04-24T12:15:34Z</time>
      </trkpt>
      <trkpt lat="50.472915396094322" lon="6.338660130277276">
        <ele>469.87</ele>
        <time>2019-04-24T12:15:35Z</time>
      </trkpt>
      <trkpt lat="50.472860913723707" lon="6.338706398382783">
        <ele>469.72000000000003</ele>
        <time>2019-04-24T12:15:39Z</time>
      </trkpt>
      <trkpt lat="50.472786650061607" lon="6.338782589882612">
        <ele>472.13</ele>
        <time>2019-04-24T12:15:45Z</time>
      </trkpt>
      <trkpt lat="50.472702495753765" lon="6.338860541582108">
        <ele>472.25</ele>
        <time>2019-04-24T12:15:52Z</time>
      </trkpt>
      <trkpt lat="50.472689587622881" lon="6.338868839666247">
        <ele>472.25999999999999</ele>
        <time>2019-04-24T12:15:53Z</time>
      </trkpt>
      <trkpt lat="50.472678942605853" lon="6.338882334530354">
        <ele>472.26999999999998</ele>
        <time>2019-04-24T12:15:54Z</time>
      </trkpt>
      <trkpt lat="50.472668716683984" lon="6.338894404470921">
        <ele>472.27999999999997</ele>
        <time>2019-04-24T12:15:55Z</time>
      </trkpt>
      <trkpt lat="50.4726592451334" lon="6.338905887678266">
        <ele>472.27999999999997</ele>
        <time>2019-04-24T12:15:56Z</time>
      </trkpt>
      <trkpt lat="50.472650025039911" lon="6.338921645656228">
        <ele>472.30000000000001</ele>
        <time>2019-04-24T12:15:57Z</time>
      </trkpt>
      <trkpt lat="50.472641726955771" lon="6.338933296501637">
        <ele>472.27999999999997</ele>
        <time>2019-04-24T12:15:58Z</time>
      </trkpt>
      <trkpt lat="50.472631249576807" lon="6.33894762955606">
        <ele>472.27999999999997</ele>
        <time>2019-04-24T12:15:59Z</time>
      </trkpt>
      <trkpt lat="50.472619850188494" lon="6.338963638991118">
        <ele>472.30000000000001</ele>
        <time>2019-04-24T12:16:00Z</time>
      </trkpt>
      <trkpt lat="50.472611133009195" lon="6.338981157168746">
        <ele>472.33999999999997</ele>
        <time>2019-04-24T12:16:01Z</time>
      </trkpt>
      <trkpt lat="50.472605181857944" lon="6.338998675346375">
        <ele>472.35000000000002</ele>
        <time>2019-04-24T12:16:02Z</time>
      </trkpt>
      <trkpt lat="50.472600152716041" lon="6.339017366990447">
        <ele>472.37</ele>
        <time>2019-04-24T12:16:03Z</time>
      </trkpt>
      <trkpt lat="50.472531002014875" lon="6.339244600385428">
        <ele>472.45999999999998</ele>
        <time>2019-04-24T12:16:14Z</time>
      </trkpt>
      <trkpt lat="50.472526224330068" lon="6.339263962581754">
        <ele>472.50999999999999</ele>
        <time>2019-04-24T12:16:15Z</time>
      </trkpt>
      <trkpt lat="50.472522117197514" lon="6.33928575553">
        <ele>472.50999999999999</ele>
        <time>2019-04-24T12:16:16Z</time>
      </trkpt>
      <trkpt lat="50.472512813284993" lon="6.339322300627828">
        <ele>472.54000000000002</ele>
        <time>2019-04-24T12:16:18Z</time>
      </trkpt>
      <trkpt lat="50.472502168267965" lon="6.339369742199779">
        <ele>472.51999999999998</ele>
        <time>2019-04-24T12:16:21Z</time>
      </trkpt>
      <trkpt lat="50.4724330175668" lon="6.339664114639163">
        <ele>473.63999999999999</ele>
        <time>2019-04-24T12:16:36Z</time>
      </trkpt>
      <trkpt lat="50.472375182434916" lon="6.339885648339987">
        <ele>471.31</ele>
        <time>2019-04-24T12:16:50Z</time>
      </trkpt>
      <trkpt lat="50.472303098067641" lon="6.340331062674522">
        <ele>471.37</ele>
        <time>2019-04-24T12:17:05Z</time>
      </trkpt>
      <trkpt lat="50.472307205200195" lon="6.340396357700229">
        <ele>471.43000000000001</ele>
        <time>2019-04-24T12:17:07Z</time>
      </trkpt>
      <trkpt lat="50.472311731427908" lon="6.340430555865169">
        <ele>471.42000000000002</ele>
        <time>2019-04-24T12:17:08Z</time>
      </trkpt>
      <trkpt lat="50.472319191321731" lon="6.340463412925601">
        <ele>471.45999999999998</ele>
        <time>2019-04-24T12:17:09Z</time>
      </trkpt>
      <trkpt lat="50.472335452213883" lon="6.34048973210156">
        <ele>471.43000000000001</ele>
        <time>2019-04-24T12:17:10Z</time>
      </trkpt>
      <trkpt lat="50.472337463870645" lon="6.340513871982694">
        <ele>470.20999999999998</ele>
        <time>2019-04-24T12:17:11Z</time>
      </trkpt>
      <trkpt lat="50.47233872115612" lon="6.340538095682859">
        <ele>470.24000000000001</ele>
        <time>2019-04-24T12:17:12Z</time>
      </trkpt>
      <trkpt lat="50.472340062260628" lon="6.340567683801055">
        <ele>470.26999999999998</ele>
        <time>2019-04-24T12:17:13Z</time>
      </trkpt>
      <trkpt lat="50.472335619851947" lon="6.340593583881855">
        <ele>470.26999999999998</ele>
        <time>2019-04-24T12:17:14Z</time>
      </trkpt>
      <trkpt lat="50.472331345081329" lon="6.340625267475843">
        <ele>470.26999999999998</ele>
        <time>2019-04-24T12:17:15Z</time>
      </trkpt>
      <trkpt lat="50.472339643165469" lon="6.340672122314572">
        <ele>470.29000000000002</ele>
        <time>2019-04-24T12:17:18Z</time>
      </trkpt>
      <trkpt lat="50.47234165482223" lon="6.340708583593369">
        <ele>470.25999999999999</ele>
        <time>2019-04-24T12:17:19Z</time>
      </trkpt>
      <trkpt lat="50.47234651632607" lon="6.34072819724679">
        <ele>470.25</ele>
        <time>2019-04-24T12:17:20Z</time>
      </trkpt>
      <trkpt lat="50.472346851602197" lon="6.340750157833099">
        <ele>472.73000000000002</ele>
        <time>2019-04-24T12:17:21Z</time>
      </trkpt>
      <trkpt lat="50.472341403365135" lon="6.34077119641006">
        <ele>472.74000000000001</ele>
        <time>2019-04-24T12:17:22Z</time>
      </trkpt>
      <trkpt lat="50.472337380051613" lon="6.340788044035435">
        <ele>472.73000000000002</ele>
        <time>2019-04-24T12:17:23Z</time>
      </trkpt>
      <trkpt lat="50.472335536032915" lon="6.340806484222412">
        <ele>472.73000000000002</ele>
        <time>2019-04-24T12:17:24Z</time>
      </trkpt>
      <trkpt lat="50.472219530493021" lon="6.341110663488507">
        <ele>472.81</ele>
        <time>2019-04-24T12:17:37Z</time>
      </trkpt>
      <trkpt lat="50.472091119736433" lon="6.341321635991335">
        <ele>472.74000000000001</ele>
        <time>2019-04-24T12:17:55Z</time>
      </trkpt>
      <trkpt lat="50.471845027059317" lon="6.34163411334157">
        <ele>473.54000000000002</ele>
        <time>2019-04-24T12:18:12Z</time>
      </trkpt>
      <trkpt lat="50.47158912755549" lon="6.341970898211002">
        <ele>474.41000000000003</ele>
        <time>2019-04-24T12:18:27Z</time>
      </trkpt>
      <trkpt lat="50.47141520306468" lon="6.342142559587956">
        <ele>475.24000000000001</ele>
        <time>2019-04-24T12:18:39Z</time>
      </trkpt>
      <trkpt lat="50.471241949126124" lon="6.342326039448381">
        <ele>476.10000000000002</ele>
        <time>2019-04-24T12:18:53Z</time>
      </trkpt>
      <trkpt lat="50.471055954694748" lon="6.342613035812974">
        <ele>476.99000000000001</ele>
        <time>2019-04-24T12:19:08Z</time>
      </trkpt>
      <trkpt lat="50.470863338559866" lon="6.342853428795934">
        <ele>477.04000000000002</ele>
        <time>2019-04-24T12:19:23Z</time>
      </trkpt>
      <trkpt lat="50.470711877569556" lon="6.343031628057361">
        <ele>477.13</ele>
        <time>2019-04-24T12:19:35Z</time>
      </trkpt>
      <trkpt lat="50.470696622505784" lon="6.343042859807611">
        <ele>477.13</ele>
        <time>2019-04-24T12:19:36Z</time>
      </trkpt>
      <trkpt lat="50.47066024504602" lon="6.343100527301431">
        <ele>477.16000000000003</ele>
        <time>2019-04-24T12:19:40Z</time>
      </trkpt>
      <trkpt lat="50.470650438219309" lon="6.343124248087406">
        <ele>477.16000000000003</ele>
        <time>2019-04-24T12:19:41Z</time>
      </trkpt>
      <trkpt lat="50.470079546794295" lon="6.343436557799578">
        <ele>478.58999999999997</ele>
        <time>2019-04-24T12:20:22Z</time>
      </trkpt>
      <trkpt lat="50.469790119677782" lon="6.343591036275029">
        <ele>478.76999999999998</ele>
        <time>2019-04-24T12:20:43Z</time>
      </trkpt>
      <trkpt lat="50.46956330537796" lon="6.343655493110418">
        <ele>478.82999999999998</ele>
        <time>2019-04-24T12:20:58Z</time>
      </trkpt>
      <trkpt lat="50.469441851601005" lon="6.343768313527107">
        <ele>478.92000000000002</ele>
        <time>2019-04-24T12:21:15Z</time>
      </trkpt>
      <trkpt lat="50.469399271532893" lon="6.3437894359231">
        <ele>479.69999999999999</ele>
        <time>2019-04-24T12:22:34Z</time>
      </trkpt>
      <trkpt lat="50.469389129430056" lon="6.343788094818592">
        <ele>479.88999999999999</ele>
        <time>2019-04-24T12:22:55Z</time>
      </trkpt>
      <trkpt lat="50.469373539090157" lon="6.343791615217924">
        <ele>480.25</ele>
        <time>2019-04-24T12:23:25Z</time>
      </trkpt>
      <trkpt lat="50.46936834231019" lon="6.343787591904402">
        <ele>480.42000000000002</ele>
        <time>2019-04-24T12:23:40Z</time>
      </trkpt>
      <trkpt lat="50.46935711055994" lon="6.34378457441926">
        <ele>480.42000000000002</ele>
        <time>2019-04-24T12:23:41Z</time>
      </trkpt>
      <trkpt lat="50.469344202429056" lon="6.343782981857657">
        <ele>480.43000000000001</ele>
        <time>2019-04-24T12:23:42Z</time>
      </trkpt>
      <trkpt lat="50.469329450279474" lon="6.343784825876355">
        <ele>480.44999999999999</ele>
        <time>2019-04-24T12:23:43Z</time>
      </trkpt>
      <trkpt lat="50.469312770292163" lon="6.343786418437958">
        <ele>480.47000000000003</ele>
        <time>2019-04-24T12:23:44Z</time>
      </trkpt>
      <trkpt lat="50.469245715066791" lon="6.343809887766838">
        <ele>480.50999999999999</ele>
        <time>2019-04-24T12:23:49Z</time>
      </trkpt>
      <trkpt lat="50.469228280708194" lon="6.343811731785536">
        <ele>480.54000000000002</ele>
        <time>2019-04-24T12:23:50Z</time>
      </trkpt>
      <trkpt lat="50.46912451274693" lon="6.343872165307403">
        <ele>478.25</ele>
        <time>2019-04-24T12:23:57Z</time>
      </trkpt>
      <trkpt lat="50.468925107270479" lon="6.34389110840857">
        <ele>478.43000000000001</ele>
        <time>2019-04-24T12:24:10Z</time>
      </trkpt>
      <trkpt lat="50.468748584389687" lon="6.343946428969502">
        <ele>478.51999999999998</ele>
        <time>2019-04-24T12:24:22Z</time>
      </trkpt>
      <trkpt lat="50.468619503080845" lon="6.34394726715982">
        <ele>478.55000000000001</ele>
        <time>2019-04-24T12:24:29Z</time>
      </trkpt>
      <trkpt lat="50.468603577464819" lon="6.343941735103726">
        <ele>478.56</ele>
        <time>2019-04-24T12:24:30Z</time>
      </trkpt>
      <trkpt lat="50.468585640192032" lon="6.343939388170838">
        <ele>478.56</ele>
        <time>2019-04-24T12:24:31Z</time>
      </trkpt>
      <trkpt lat="50.468566948547959" lon="6.343938382342458">
        <ele>478.56999999999999</ele>
        <time>2019-04-24T12:24:32Z</time>
      </trkpt>
      <trkpt lat="50.468550436198711" lon="6.343939388170838">
        <ele>478.57999999999998</ele>
        <time>2019-04-24T12:24:33Z</time>
      </trkpt>
      <trkpt lat="50.468535432592034" lon="6.343942070379853">
        <ele>478.57999999999998</ele>
        <time>2019-04-24T12:24:34Z</time>
      </trkpt>
      <trkpt lat="50.468520848080516" lon="6.343941735103726">
        <ele>478.58999999999997</ele>
        <time>2019-04-24T12:24:35Z</time>
      </trkpt>
      <trkpt lat="50.468507772311568" lon="6.343937795609236">
        <ele>478.60000000000002</ele>
        <time>2019-04-24T12:24:36Z</time>
      </trkpt>
      <trkpt lat="50.468492852523923" lon="6.343926144763827">
        <ele>478.60000000000002</ele>
        <time>2019-04-24T12:24:37Z</time>
      </trkpt>
      <trkpt lat="50.468327226117253" lon="6.343900077044964">
        <ele>478.69</ele>
        <time>2019-04-24T12:24:49Z</time>
      </trkpt>
      <trkpt lat="50.468314653262496" lon="6.343896556645632">
        <ele>481.16000000000003</ele>
        <time>2019-04-24T12:24:50Z</time>
      </trkpt>
      <trkpt lat="50.468301493674517" lon="6.343895299360156">
        <ele>481.14999999999998</ele>
        <time>2019-04-24T12:24:51Z</time>
      </trkpt>
      <trkpt lat="50.468288501724601" lon="6.343889934942126">
        <ele>481.14999999999998</ele>
        <time>2019-04-24T12:24:52Z</time>
      </trkpt>
      <trkpt lat="50.46827626414597" lon="6.34388130158186">
        <ele>481.16000000000003</ele>
        <time>2019-04-24T12:24:53Z</time>
      </trkpt>
      <trkpt lat="50.468225050717592" lon="6.343870656564832">
        <ele>478.11000000000001</ele>
        <time>2019-04-24T12:24:57Z</time>
      </trkpt>
      <trkpt lat="50.46820929273963" lon="6.343863699585199">
        <ele>483.29000000000002</ele>
        <time>2019-04-24T12:24:58Z</time>
      </trkpt>
      <trkpt lat="50.468193702399731" lon="6.343850959092379">
        <ele>483.27999999999997</ele>
        <time>2019-04-24T12:24:59Z</time>
      </trkpt>
      <trkpt lat="50.468138633295894" lon="6.343829752877355">
        <ele>483.29000000000002</ele>
        <time>2019-04-24T12:25:03Z</time>
      </trkpt>
      <trkpt lat="50.468123462051153" lon="6.343823214992881">
        <ele>483.29000000000002</ele>
        <time>2019-04-24T12:25:04Z</time>
      </trkpt>
      <trkpt lat="50.468109548091888" lon="6.343825729563832">
        <ele>483.29000000000002</ele>
        <time>2019-04-24T12:25:05Z</time>
      </trkpt>
      <trkpt lat="50.468093287199736" lon="6.343823214992881">
        <ele>483.29000000000002</ele>
        <time>2019-04-24T12:25:06Z</time>
      </trkpt>
      <trkpt lat="50.468078870326281" lon="6.343814162537456">
        <ele>483.30000000000001</ele>
        <time>2019-04-24T12:25:07Z</time>
      </trkpt>
      <trkpt lat="50.468061184510589" lon="6.343804439529777">
        <ele>483.29000000000002</ele>
        <time>2019-04-24T12:25:08Z</time>
      </trkpt>
      <trkpt lat="50.468044755980372" lon="6.34379873983562">
        <ele>483.27999999999997</ele>
        <time>2019-04-24T12:25:09Z</time>
      </trkpt>
      <trkpt lat="50.468029752373695" lon="6.343796728178859">
        <ele>483.29000000000002</ele>
        <time>2019-04-24T12:25:10Z</time>
      </trkpt>
      <trkpt lat="50.468012904748321" lon="6.343790525570512">
        <ele>483.29000000000002</ele>
        <time>2019-04-24T12:25:11Z</time>
      </trkpt>
      <trkpt lat="50.467998571693897" lon="6.3437894359231">
        <ele>483.29000000000002</ele>
        <time>2019-04-24T12:25:12Z</time>
      </trkpt>
      <trkpt lat="50.467983316630125" lon="6.343783820047975">
        <ele>483.29000000000002</ele>
        <time>2019-04-24T12:25:13Z</time>
      </trkpt>
      <trkpt lat="50.467966888099909" lon="6.343777282163501">
        <ele>483.29000000000002</ele>
        <time>2019-04-24T12:25:14Z</time>
      </trkpt>
      <trkpt lat="50.467949286103249" lon="6.343765296041966">
        <ele>483.27999999999997</ele>
        <time>2019-04-24T12:25:15Z</time>
      </trkpt>
      <trkpt lat="50.467934533953667" lon="6.343761440366507">
        <ele>483.27999999999997</ele>
        <time>2019-04-24T12:25:16Z</time>
      </trkpt>
      <trkpt lat="50.467917267233133" lon="6.343747694045305">
        <ele>483.27999999999997</ele>
        <time>2019-04-24T12:25:17Z</time>
      </trkpt>
      <trkpt lat="50.467900335788727" lon="6.343735540285707">
        <ele>483.27999999999997</ele>
        <time>2019-04-24T12:25:18Z</time>
      </trkpt>
      <trkpt lat="50.467709312215447" lon="6.343628084287047">
        <ele>483.25999999999999</ele>
        <time>2019-04-24T12:25:31Z</time>
      </trkpt>
      <trkpt lat="50.467545026913285" lon="6.34357494302094">
        <ele>483.22000000000003</ele>
        <time>2019-04-24T12:25:44Z</time>
      </trkpt>
      <trkpt lat="50.467339251190424" lon="6.343505792319775">
        <ele>483.18000000000001</ele>
        <time>2019-04-24T12:25:57Z</time>
      </trkpt>
      <trkpt lat="50.467213438823819" lon="6.343423230573535">
        <ele>483.18000000000001</ele>
        <time>2019-04-24T12:26:05Z</time>
      </trkpt>
      <trkpt lat="50.466822842136025" lon="6.343233967199922">
        <ele>483.06</ele>
        <time>2019-04-24T12:26:54Z</time>
      </trkpt>
      <trkpt lat="50.466796355322003" lon="6.34320312179625">
        <ele>483.05000000000001</ele>
        <time>2019-04-24T12:26:56Z</time>
      </trkpt>
      <trkpt lat="50.466783698648214" lon="6.343198930844665">
        <ele>483.06</ele>
        <time>2019-04-24T12:26:57Z</time>
      </trkpt>
      <trkpt lat="50.466769281774759" lon="6.343192392960191">
        <ele>483.05000000000001</ele>
        <time>2019-04-24T12:26:58Z</time>
      </trkpt>
      <trkpt lat="50.466755451634526" lon="6.343193482607603">
        <ele>483.05000000000001</ele>
        <time>2019-04-24T12:26:59Z</time>
      </trkpt>
      <trkpt lat="50.46674145385623" lon="6.343196835368872">
        <ele>483.05000000000001</ele>
        <time>2019-04-24T12:27:00Z</time>
      </trkpt>
      <trkpt lat="50.466725947335362" lon="6.343189962208271">
        <ele>483.06</ele>
        <time>2019-04-24T12:27:01Z</time>
      </trkpt>
      <trkpt lat="50.466714631766081" lon="6.343192979693413">
        <ele>483.05000000000001</ele>
        <time>2019-04-24T12:27:02Z</time>
      </trkpt>
      <trkpt lat="50.466700131073594" lon="6.343183843418956">
        <ele>483.88</ele>
        <time>2019-04-24T12:27:03Z</time>
      </trkpt>
      <trkpt lat="50.466684121638536" lon="6.343177892267704">
        <ele>483.87</ele>
        <time>2019-04-24T12:27:04Z</time>
      </trkpt>
      <trkpt lat="50.466669285669923" lon="6.343168839812279">
        <ele>483.87</ele>
        <time>2019-04-24T12:27:05Z</time>
      </trkpt>
      <trkpt lat="50.466655623167753" lon="6.343159535899758">
        <ele>483.87</ele>
        <time>2019-04-24T12:27:06Z</time>
      </trkpt>
      <trkpt lat="50.466488488018513" lon="6.343084685504437">
        <ele>483.88999999999999</ele>
        <time>2019-04-24T12:27:19Z</time>
      </trkpt>
      <trkpt lat="50.466214399784803" lon="6.342933727428317">
        <ele>485.51999999999998</ele>
        <time>2019-04-24T12:27:39Z</time>
      </trkpt>
      <trkpt lat="50.466059083119035" lon="6.342877987772226">
        <ele>486.39999999999998</ele>
        <time>2019-04-24T12:27:50Z</time>
      </trkpt>
      <trkpt lat="50.465826904401183" lon="6.342754689976573">
        <ele>487.13999999999999</ele>
        <time>2019-04-24T12:28:06Z</time>
      </trkpt>
      <trkpt lat="50.465815253555775" lon="6.342745218425989">
        <ele>487.14999999999998</ele>
        <time>2019-04-24T12:28:07Z</time>
      </trkpt>
      <trkpt lat="50.465762447565794" lon="6.342668188735843">
        <ele>487.13</ele>
        <time>2019-04-24T12:28:11Z</time>
      </trkpt>
      <trkpt lat="50.465738140046597" lon="6.342641869559884">
        <ele>487.13</ele>
        <time>2019-04-24T12:28:13Z</time>
      </trkpt>
      <trkpt lat="50.465563628822565" lon="6.342485630884767">
        <ele>488.63999999999999</ele>
        <time>2019-04-24T12:28:27Z</time>
      </trkpt>
      <trkpt lat="50.465510403737426" lon="6.342444643378258">
        <ele>488.63</ele>
        <time>2019-04-24T12:28:32Z</time>
      </trkpt>
      <trkpt lat="50.465425914153457" lon="6.342365015298128">
        <ele>485.30000000000001</ele>
        <time>2019-04-24T12:28:39Z</time>
      </trkpt>
      <trkpt lat="50.465405462309718" lon="6.342340791597962">
        <ele>489.25</ele>
        <time>2019-04-24T12:28:40Z</time>
      </trkpt>
      <trkpt lat="50.465388111770153" lon="6.342330733314157">
        <ele>489.24000000000001</ele>
        <time>2019-04-24T12:28:41Z</time>
      </trkpt>
      <trkpt lat="50.465373527258635" lon="6.342325452715159">
        <ele>489.23000000000002</ele>
        <time>2019-04-24T12:28:42Z</time>
      </trkpt>
      <trkpt lat="50.465193148702383" lon="6.342195281758905">
        <ele>489.42000000000002</ele>
        <time>2019-04-24T12:28:55Z</time>
      </trkpt>
      <trkpt lat="50.464954515919089" lon="6.342187318950892">
        <ele>491.32999999999998</ele>
        <time>2019-04-24T12:29:10Z</time>
      </trkpt>
      <trkpt lat="50.464904559776187" lon="6.342163011431694">
        <ele>492.16000000000003</ele>
        <time>2019-04-24T12:29:14Z</time>
      </trkpt>
      <trkpt lat="50.464708339422941" lon="6.342147421091795">
        <ele>493.68000000000001</ele>
        <time>2019-04-24T12:29:27Z</time>
      </trkpt>
      <trkpt lat="50.46452309936285" lon="6.342049771919847">
        <ele>494.35000000000002</ele>
        <time>2019-04-24T12:29:41Z</time>
      </trkpt>
      <trkpt lat="50.46437700279057" lon="6.341921528801322">
        <ele>495.05000000000001</ele>
        <time>2019-04-24T12:29:54Z</time>
      </trkpt>
      <trkpt lat="50.464244736358523" lon="6.341803846880794">
        <ele>495.73000000000002</ele>
        <time>2019-04-24T12:30:07Z</time>
      </trkpt>
      <trkpt lat="50.463974922895432" lon="6.34150804951787">
        <ele>495.52999999999997</ele>
        <time>2019-04-24T12:30:28Z</time>
      </trkpt>
      <trkpt lat="50.463942904025316" lon="6.341480892151594">
        <ele>496.43000000000001</ele>
        <time>2019-04-24T12:30:30Z</time>
      </trkpt>
      <trkpt lat="50.463928151875734" lon="6.341458931565285">
        <ele>496.43000000000001</ele>
        <time>2019-04-24T12:30:31Z</time>
      </trkpt>
      <trkpt lat="50.463813990354538" lon="6.34128768928349">
        <ele>496.31999999999999</ele>
        <time>2019-04-24T12:30:40Z</time>
      </trkpt>
      <trkpt lat="50.463626570999622" lon="6.341085685417056">
        <ele>497</ele>
        <time>2019-04-24T12:30:55Z</time>
      </trkpt>
      <trkpt lat="50.4634153470397" lon="6.340911677107215">
        <ele>497.69</ele>
        <time>2019-04-24T12:31:10Z</time>
      </trkpt>
      <trkpt lat="50.463174786418676" lon="6.340803382918239">
        <ele>497.57999999999998</ele>
        <time>2019-04-24T12:31:25Z</time>
      </trkpt>
      <trkpt lat="50.462973536923528" lon="6.340742530301213">
        <ele>497.49000000000001</ele>
        <time>2019-04-24T12:31:39Z</time>
      </trkpt>
      <trkpt lat="50.462793158367276" lon="6.340674553066492">
        <ele>497.42000000000002</ele>
        <time>2019-04-24T12:31:52Z</time>
      </trkpt>
      <trkpt lat="50.462725181132555" lon="6.340658711269498">
        <ele>498.61000000000001</ele>
        <time>2019-04-24T12:31:56Z</time>
      </trkpt>
      <trkpt lat="50.462705567479134" lon="6.340648904442787">
        <ele>498.62</ele>
        <time>2019-04-24T12:31:57Z</time>
      </trkpt>
      <trkpt lat="50.462688384577632" lon="6.340635493397713">
        <ele>498.61000000000001</ele>
        <time>2019-04-24T12:31:58Z</time>
      </trkpt>
      <trkpt lat="50.462500378489494" lon="6.340641193091869">
        <ele>498.55000000000001</ele>
        <time>2019-04-24T12:32:13Z</time>
      </trkpt>
      <trkpt lat="50.462376913055778" lon="6.34067103266716">
        <ele>498.60000000000002</ele>
        <time>2019-04-24T12:32:28Z</time>
      </trkpt>
      <trkpt lat="50.462369285523891" lon="6.340690981596708">
        <ele>498.61000000000001</ele>
        <time>2019-04-24T12:32:29Z</time>
      </trkpt>
      <trkpt lat="50.462355958297849" lon="6.340711181983352">
        <ele>498.62</ele>
        <time>2019-04-24T12:32:30Z</time>
      </trkpt>
      <trkpt lat="50.462344978004694" lon="6.340721659362316">
        <ele>499.45999999999998</ele>
        <time>2019-04-24T12:32:31Z</time>
      </trkpt>
      <trkpt lat="50.462333327159286" lon="6.340732304379344">
        <ele>499.45999999999998</ele>
        <time>2019-04-24T12:32:32Z</time>
      </trkpt>
      <trkpt lat="50.462147919461131" lon="6.340932715684176">
        <ele>499.54000000000002</ele>
        <time>2019-04-24T12:32:47Z</time>
      </trkpt>
      <trkpt lat="50.462012719362974" lon="6.341080823913217">
        <ele>499.66000000000003</ele>
        <time>2019-04-24T12:33:00Z</time>
      </trkpt>
      <trkpt lat="50.461847260594368" lon="6.341291125863791">
        <ele>499.80000000000001</ele>
        <time>2019-04-24T12:33:14Z</time>
      </trkpt>
      <trkpt lat="50.461736200377345" lon="6.341498075053096">
        <ele>500.73000000000002</ele>
        <time>2019-04-24T12:33:25Z</time>
      </trkpt>
      <trkpt lat="50.461726896464825" lon="6.341516934335232">
        <ele>500.74000000000001</ele>
        <time>2019-04-24T12:33:26Z</time>
      </trkpt>
      <trkpt lat="50.461572669446468" lon="6.341895796358585">
        <ele>500.85000000000002</ele>
        <time>2019-04-24T12:33:36Z</time>
      </trkpt>
      <trkpt lat="50.461445935070515" lon="6.342329895123839">
        <ele>501.69</ele>
        <time>2019-04-24T12:33:44Z</time>
      </trkpt>
      <trkpt lat="50.461432356387377" lon="6.342380186542869">
        <ele>501.69999999999999</ele>
        <time>2019-04-24T12:33:45Z</time>
      </trkpt>
      <trkpt lat="50.46141148544848" lon="6.342443721368909">
        <ele>501.68000000000001</ele>
        <time>2019-04-24T12:33:46Z</time>
      </trkpt>
      <trkpt lat="50.461379466578364" lon="6.342551345005631">
        <ele>501.69999999999999</ele>
        <time>2019-04-24T12:33:47Z</time>
      </trkpt>
      <trkpt lat="50.461341412737966" lon="6.342667602002621">
        <ele>501.70999999999998</ele>
        <time>2019-04-24T12:33:48Z</time>
      </trkpt>
      <trkpt lat="50.461306124925613" lon="6.342771705240011">
        <ele>501.75</ele>
        <time>2019-04-24T12:33:49Z</time>
      </trkpt>
      <trkpt lat="50.461216773837805" lon="6.343041015788913">
        <ele>502.5</ele>
        <time>2019-04-24T12:33:52Z</time>
      </trkpt>
      <trkpt lat="50.461140079423785" lon="6.343223992735148">
        <ele>500.19</ele>
        <time>2019-04-24T12:33:54Z</time>
      </trkpt>
      <trkpt lat="50.461063971742988" lon="6.343385512009263">
        <ele>502.60000000000002</ele>
        <time>2019-04-24T12:33:56Z</time>
      </trkpt>
      <trkpt lat="50.460847383365035" lon="6.343814833089709">
        <ele>502.64999999999998</ele>
        <time>2019-04-24T12:34:02Z</time>
      </trkpt>
      <trkpt lat="50.46076063066721" lon="6.343942824751139">
        <ele>504.97000000000003</ele>
        <time>2019-04-24T12:34:05Z</time>
      </trkpt>
      <trkpt lat="50.460601458325982" lon="6.344198221340776">
        <ele>505.85000000000002</ele>
        <time>2019-04-24T12:34:11Z</time>
      </trkpt>
      <trkpt lat="50.460523003712296" lon="6.344288997352123">
        <ele>506.69</ele>
        <time>2019-04-24T12:34:13Z</time>
      </trkpt>
      <trkpt lat="50.46048360876739" lon="6.344326632097364">
        <ele>506.67000000000002</ele>
        <time>2019-04-24T12:34:14Z</time>
      </trkpt>
      <trkpt lat="50.460436586290598" lon="6.3443558011204">
        <ele>506.69</ele>
        <time>2019-04-24T12:34:15Z</time>
      </trkpt>
      <trkpt lat="50.460384953767061" lon="6.344386143609881">
        <ele>506.70999999999998</ele>
        <time>2019-04-24T12:34:16Z</time>
      </trkpt>
      <trkpt lat="50.460333740338683" lon="6.344412127509713">
        <ele>506.73000000000002</ele>
        <time>2019-04-24T12:34:17Z</time>
      </trkpt>
      <trkpt lat="50.460282526910305" lon="6.344428807497025">
        <ele>506.74000000000001</ele>
        <time>2019-04-24T12:34:18Z</time>
      </trkpt>
      <trkpt lat="50.460235336795449" lon="6.344439620152116">
        <ele>506.76999999999998</ele>
        <time>2019-04-24T12:34:19Z</time>
      </trkpt>
      <trkpt lat="50.460183201357722" lon="6.344464346766472">
        <ele>506.79000000000002</ele>
        <time>2019-04-24T12:34:20Z</time>
      </trkpt>
      <trkpt lat="50.460132323205471" lon="6.34449502453208">
        <ele>506.81999999999999</ele>
        <time>2019-04-24T12:34:21Z</time>
      </trkpt>
      <trkpt lat="50.46002964489162" lon="6.344564342871308">
        <ele>507.72000000000003</ele>
        <time>2019-04-24T12:34:23Z</time>
      </trkpt>
      <trkpt lat="50.45988111756742" lon="6.344699375331402">
        <ele>507.75999999999999</ele>
        <time>2019-04-24T12:34:26Z</time>
      </trkpt>
      <trkpt lat="50.459645669907331" lon="6.345016295090318">
        <ele>509.37</ele>
        <time>2019-04-24T12:34:32Z</time>
      </trkpt>
      <trkpt lat="50.459574675187469" lon="6.345121907070279">
        <ele>509.41000000000003</ele>
        <time>2019-04-24T12:34:34Z</time>
      </trkpt>
      <trkpt lat="50.459533436223865" lon="6.34517421014607">
        <ele>509.43000000000001</ele>
        <time>2019-04-24T12:34:35Z</time>
      </trkpt>
      <trkpt lat="50.459490604698658" lon="6.345234224572778">
        <ele>509.44999999999999</ele>
        <time>2019-04-24T12:34:36Z</time>
      </trkpt>
      <trkpt lat="50.459421453997493" lon="6.345342351123691">
        <ele>507.13</ele>
        <time>2019-04-24T12:34:38Z</time>
      </trkpt>
      <trkpt lat="50.459386752918363" lon="6.345402533188462">
        <ele>510.04000000000002</ele>
        <time>2019-04-24T12:34:39Z</time>
      </trkpt>
      <trkpt lat="50.459356242790818" lon="6.345463301986456">
        <ele>510.05000000000001</ele>
        <time>2019-04-24T12:34:40Z</time>
      </trkpt>
      <trkpt lat="50.459254570305347" lon="6.345655415207148">
        <ele>510.11000000000001</ele>
        <time>2019-04-24T12:34:43Z</time>
      </trkpt>
      <trkpt lat="50.459217689931393" lon="6.345724565908313">
        <ele>510.13999999999999</ele>
        <time>2019-04-24T12:34:44Z</time>
      </trkpt>
      <trkpt lat="50.459186173975468" lon="6.345790196210146">
        <ele>511.16000000000003</ele>
        <time>2019-04-24T12:34:45Z</time>
      </trkpt>
      <trkpt lat="50.459104953333735" lon="6.346003012731671">
        <ele>511.22000000000003</ele>
        <time>2019-04-24T12:34:48Z</time>
      </trkpt>
      <trkpt lat="50.459091626107693" lon="6.346073253080249">
        <ele>511.26999999999998</ele>
        <time>2019-04-24T12:34:49Z</time>
      </trkpt>
      <trkpt lat="50.45907779596746" lon="6.34614466689527">
        <ele>512.55999999999995</ele>
        <time>2019-04-24T12:34:50Z</time>
      </trkpt>
      <trkpt lat="50.459063798189163" lon="6.346217170357704">
        <ele>512.60000000000002</ele>
        <time>2019-04-24T12:34:51Z</time>
      </trkpt>
      <trkpt lat="50.459050722420216" lon="6.346287997439504">
        <ele>512.59000000000003</ele>
        <time>2019-04-24T12:34:52Z</time>
      </trkpt>
      <trkpt lat="50.459040245041251" lon="6.346366787329316">
        <ele>512.59000000000003</ele>
        <time>2019-04-24T12:34:53Z</time>
      </trkpt>
      <trkpt lat="50.459012920036912" lon="6.346582034602761">
        <ele>512.66999999999996</ele>
        <time>2019-04-24T12:34:56Z</time>
      </trkpt>
      <trkpt lat="50.459006549790502" lon="6.346629811450839">
        <ele>512.70000000000005</ele>
        <time>2019-04-24T12:34:57Z</time>
      </trkpt>
      <trkpt lat="50.459019038826227" lon="6.346901217475534">
        <ele>512.71000000000004</ele>
        <time>2019-04-24T12:35:01Z</time>
      </trkpt>
      <trkpt lat="50.459012249484658" lon="6.34697875007987">
        <ele>512.72000000000003</ele>
        <time>2019-04-24T12:35:02Z</time>
      </trkpt>
      <trkpt lat="50.459012165665627" lon="6.347054271027446">
        <ele>512.73000000000002</ele>
        <time>2019-04-24T12:35:03Z</time>
      </trkpt>
      <trkpt lat="50.458997748792171" lon="6.347146136686206">
        <ele>512.74000000000001</ele>
        <time>2019-04-24T12:35:04Z</time>
      </trkpt>
      <trkpt lat="50.458986097946763" lon="6.347226686775684">
        <ele>512.75</ele>
        <time>2019-04-24T12:35:05Z</time>
      </trkpt>
      <trkpt lat="50.458972686901689" lon="6.347297178581357">
        <ele>514.15999999999997</ele>
        <time>2019-04-24T12:35:06Z</time>
      </trkpt>
      <trkpt lat="50.458960868418217" lon="6.347359456121922">
        <ele>514.19000000000005</ele>
        <time>2019-04-24T12:35:07Z</time>
      </trkpt>
      <trkpt lat="50.458820555359125" lon="6.347747957333922">
        <ele>515.03999999999996</ele>
        <time>2019-04-24T12:35:17Z</time>
      </trkpt>
      <trkpt lat="50.458693653345108" lon="6.347984494641423">
        <ele>515.03999999999996</ele>
        <time>2019-04-24T12:35:26Z</time>
      </trkpt>
      <trkpt lat="50.458673369139433" lon="6.348035288974643">
        <ele>515.04999999999995</ele>
        <time>2019-04-24T12:35:28Z</time>
      </trkpt>
      <trkpt lat="50.458579240366817" lon="6.348264114931226">
        <ele>515.04999999999995</ele>
        <time>2019-04-24T12:35:40Z</time>
      </trkpt>
      <trkpt lat="50.458380924537778" lon="6.348603582009673">
        <ele>515.05999999999995</ele>
        <time>2019-04-24T12:35:54Z</time>
      </trkpt>
      <trkpt lat="50.458309929817915" lon="6.348756970837712">
        <ele>511.79000000000002</ele>
        <time>2019-04-24T12:36:00Z</time>
      </trkpt>
      <trkpt lat="50.458293249830604" lon="6.348790833726525">
        <ele>516.23000000000002</ele>
        <time>2019-04-24T12:36:02Z</time>
      </trkpt>
      <trkpt lat="50.458223763853312" lon="6.348867528140545">
        <ele>517.72000000000003</ele>
        <time>2019-04-24T12:36:08Z</time>
      </trkpt>
      <trkpt lat="50.458191409707069" lon="6.348905833438039">
        <ele>517.74000000000001</ele>
        <time>2019-04-24T12:36:11Z</time>
      </trkpt>
      <trkpt lat="50.458025280386209" lon="6.34924303740263">
        <ele>517.79999999999995</ele>
        <time>2019-04-24T12:36:27Z</time>
      </trkpt>
      <trkpt lat="50.457965433597565" lon="6.349346721544862">
        <ele>517.80999999999995</ele>
        <time>2019-04-24T12:36:32Z</time>
      </trkpt>
      <trkpt lat="50.457947244867682" lon="6.349375387653709">
        <ele>517.83000000000004</ele>
        <time>2019-04-24T12:36:33Z</time>
      </trkpt>
      <trkpt lat="50.457836268469691" lon="6.349477143958211">
        <ele>517.87</ele>
        <time>2019-04-24T12:36:41Z</time>
      </trkpt>
      <trkpt lat="50.457824030891061" lon="6.34949223138392">
        <ele>517.88</ele>
        <time>2019-04-24T12:36:42Z</time>
      </trkpt>
      <trkpt lat="50.457571400329471" lon="6.349656265228987">
        <ele>518.82000000000005</ele>
        <time>2019-04-24T12:37:00Z</time>
      </trkpt>
      <trkpt lat="50.457456484436989" lon="6.349688954651356">
        <ele>518.90999999999997</ele>
        <time>2019-04-24T12:37:12Z</time>
      </trkpt>
      <trkpt lat="50.457203183323145" lon="6.349868830293417">
        <ele>519.09000000000003</ele>
        <time>2019-04-24T12:37:33Z</time>
      </trkpt>
      <trkpt lat="50.457007549703121" lon="6.350133614614606">
        <ele>520.74000000000001</ele>
        <time>2019-04-24T12:37:49Z</time>
      </trkpt>
      <trkpt lat="50.456942254677415" lon="6.350228916853666">
        <ele>520.77999999999997</ele>
        <time>2019-04-24T12:37:57Z</time>
      </trkpt>
      <trkpt lat="50.456883581355214" lon="6.350360261276364">
        <ele>522.11000000000001</ele>
        <time>2019-04-24T12:38:04Z</time>
      </trkpt>
      <trkpt lat="50.456796241924167" lon="6.350551787763834">
        <ele>522.16999999999996</ele>
        <time>2019-04-24T12:38:13Z</time>
      </trkpt>
      <trkpt lat="50.45678517781198" lon="6.350576849654317">
        <ele>522.16999999999996</ele>
        <time>2019-04-24T12:38:14Z</time>
      </trkpt>
      <trkpt lat="50.45677981339395" lon="6.350601995363832">
        <ele>522.17999999999995</ele>
        <time>2019-04-24T12:38:15Z</time>
      </trkpt>
      <trkpt lat="50.456764306873083" lon="6.350703332573175">
        <ele>522.20000000000005</ele>
        <time>2019-04-24T12:38:19Z</time>
      </trkpt>
      <trkpt lat="50.456763049587607" lon="6.35075094178319">
        <ele>522.21000000000004</ele>
        <time>2019-04-24T12:38:21Z</time>
      </trkpt>
      <trkpt lat="50.456762379035354" lon="6.350777931511402">
        <ele>522.21000000000004</ele>
        <time>2019-04-24T12:38:22Z</time>
      </trkpt>
      <trkpt lat="50.456714266911149" lon="6.351407915353775">
        <ele>522.25</ele>
        <time>2019-04-24T12:38:42Z</time>
      </trkpt>
      <trkpt lat="50.456677973270416" lon="6.351844696328044">
        <ele>523.20000000000005</ele>
        <time>2019-04-24T12:38:59Z</time>
      </trkpt>
      <trkpt lat="50.456659784540534" lon="6.351888030767441">
        <ele>523.20000000000005</ele>
        <time>2019-04-24T12:39:02Z</time>
      </trkpt>
      <trkpt lat="50.45664343982935" lon="6.351963132619858">
        <ele>523.19000000000005</ele>
        <time>2019-04-24T12:39:05Z</time>
      </trkpt>
      <trkpt lat="50.456638662144542" lon="6.351996576413512">
        <ele>523.19000000000005</ele>
        <time>2019-04-24T12:39:06Z</time>
      </trkpt>
      <trkpt lat="50.456635560840368" lon="6.35203555226326">
        <ele>523.19000000000005</ele>
        <time>2019-04-24T12:39:07Z</time>
      </trkpt>
      <trkpt lat="50.456631034612656" lon="6.35209858417511">
        <ele>523.17999999999995</ele>
        <time>2019-04-24T12:39:10Z</time>
      </trkpt>
      <trkpt lat="50.456630615517497" lon="6.352115515619516">
        <ele>523.17999999999995</ele>
        <time>2019-04-24T12:39:11Z</time>
      </trkpt>
      <trkpt lat="50.456655342131853" lon="6.352434363216162">
        <ele>524.19000000000005</ele>
        <time>2019-04-24T12:39:22Z</time>
      </trkpt>
      <trkpt lat="50.45667034573853" lon="6.352512482553721">
        <ele>521.38999999999999</ele>
        <time>2019-04-24T12:39:25Z</time>
      </trkpt>
      <trkpt lat="50.45666791498661" lon="6.352535448968411">
        <ele>521.39999999999998</ele>
        <time>2019-04-24T12:39:26Z</time>
      </trkpt>
      <trkpt lat="50.456662131473422" lon="6.352584315463901">
        <ele>521.38999999999999</ele>
        <time>2019-04-24T12:39:28Z</time>
      </trkpt>
      <trkpt lat="50.456658778712153" lon="6.352630499750376">
        <ele>521.38999999999999</ele>
        <time>2019-04-24T12:39:29Z</time>
      </trkpt>
      <trkpt lat="50.45665618032217" lon="6.352671319618821">
        <ele>521.38</ele>
        <time>2019-04-24T12:39:30Z</time>
      </trkpt>
      <trkpt lat="50.45665567740798" lon="6.35269470512867">
        <ele>521.37</ele>
        <time>2019-04-24T12:39:31Z</time>
      </trkpt>
      <trkpt lat="50.456651905551553" lon="6.352723957970738">
        <ele>521.37</ele>
        <time>2019-04-24T12:39:32Z</time>
      </trkpt>
      <trkpt lat="50.456649474799633" lon="6.352794030681253">
        <ele>521.36000000000001</ele>
        <time>2019-04-24T12:39:34Z</time>
      </trkpt>
      <trkpt lat="50.456657689064741" lon="6.352848848327994">
        <ele>523.67999999999995</ele>
        <time>2019-04-24T12:39:37Z</time>
      </trkpt>
      <trkpt lat="50.456662885844707" lon="6.352975582703948">
        <ele>524.49000000000001</ele>
        <time>2019-04-24T12:39:41Z</time>
      </trkpt>
      <trkpt lat="50.456667579710484" lon="6.353000309318304">
        <ele>524.49000000000001</ele>
        <time>2019-04-24T12:39:42Z</time>
      </trkpt>
      <trkpt lat="50.456683672964573" lon="6.353053618222475">
        <ele>524.47000000000003</ele>
        <time>2019-04-24T12:39:44Z</time>
      </trkpt>
      <trkpt lat="50.456688953563571" lon="6.353157889097929">
        <ele>524.44000000000005</ele>
        <time>2019-04-24T12:39:48Z</time>
      </trkpt>
      <trkpt lat="50.456694820895791" lon="6.35318772867322">
        <ele>525.24000000000001</ele>
        <time>2019-04-24T12:39:49Z</time>
      </trkpt>
      <trkpt lat="50.456697335466743" lon="6.353222848847508">
        <ele>525.22000000000003</ele>
        <time>2019-04-24T12:39:50Z</time>
      </trkpt>
      <trkpt lat="50.456703454256058" lon="6.353288311511278">
        <ele>525.20000000000005</ele>
        <time>2019-04-24T12:39:52Z</time>
      </trkpt>
      <trkpt lat="50.456704627722502" lon="6.353315552696586">
        <ele>525.20000000000005</ele>
        <time>2019-04-24T12:39:53Z</time>
      </trkpt>
      <trkpt lat="50.456771682947874" lon="6.35395341552794">
        <ele>523.05999999999995</ele>
        <time>2019-04-24T12:40:28Z</time>
      </trkpt>
      <trkpt lat="50.456744441762567" lon="6.35434384457767">
        <ele>523.01999999999998</ele>
        <time>2019-04-24T12:40:42Z</time>
      </trkpt>
      <trkpt lat="50.456726755946875" lon="6.354434872046113">
        <ele>525.34000000000003</ele>
        <time>2019-04-24T12:40:46Z</time>
      </trkpt>
      <trkpt lat="50.456745866686106" lon="6.354649197310209">
        <ele>527.47000000000003</ele>
        <time>2019-04-24T12:40:56Z</time>
      </trkpt>
      <trkpt lat="50.456745615229011" lon="6.354673840105534">
        <ele>523.21000000000004</ele>
        <time>2019-04-24T12:40:57Z</time>
      </trkpt>
      <trkpt lat="50.456751063466072" lon="6.354695884510875">
        <ele>528.16999999999996</ele>
        <time>2019-04-24T12:40:58Z</time>
      </trkpt>
      <trkpt lat="50.456758690997958" lon="6.354932840913534">
        <ele>528.13</ele>
        <time>2019-04-24T12:41:07Z</time>
      </trkpt>
      <trkpt lat="50.456751985475421" lon="6.354972152039409">
        <ele>528.21000000000004</ele>
        <time>2019-04-24T12:41:08Z</time>
      </trkpt>
      <trkpt lat="50.456750560551882" lon="6.355000482872129">
        <ele>528.11000000000001</ele>
        <time>2019-04-24T12:41:09Z</time>
      </trkpt>
      <trkpt lat="50.456755254417658" lon="6.355023449286819">
        <ele>528.21000000000004</ele>
        <time>2019-04-24T12:41:10Z</time>
      </trkpt>
      <trkpt lat="50.456751734018326" lon="6.355065023526549">
        <ele>528.20000000000005</ele>
        <time>2019-04-24T12:41:11Z</time>
      </trkpt>
      <trkpt lat="50.456748800352216" lon="6.355080613866448">
        <ele>528.14999999999998</ele>
        <time>2019-04-24T12:41:12Z</time>
      </trkpt>
      <trkpt lat="50.456742765381932" lon="6.355128139257431">
        <ele>528.09000000000003</ele>
        <time>2019-04-24T12:41:13Z</time>
      </trkpt>
      <trkpt lat="50.456720888614655" lon="6.355430139228702">
        <ele>528.08000000000004</ele>
        <time>2019-04-24T12:41:25Z</time>
      </trkpt>
      <trkpt lat="50.456703538075089" lon="6.355730630457401">
        <ele>528.09000000000003</ele>
        <time>2019-04-24T12:41:39Z</time>
      </trkpt>
      <trkpt lat="50.456703621894121" lon="6.355859125033021">
        <ele>528.09000000000003</ele>
        <time>2019-04-24T12:41:43Z</time>
      </trkpt>
      <trkpt lat="50.456699095666409" lon="6.355988457798958">
        <ele>528.91999999999996</ele>
        <time>2019-04-24T12:41:49Z</time>
      </trkpt>
      <trkpt lat="50.456681409850717" lon="6.356010418385267">
        <ele>528.97000000000003</ele>
        <time>2019-04-24T12:41:50Z</time>
      </trkpt>
      <trkpt lat="50.456660119816661" lon="6.356068253517151">
        <ele>529.86000000000001</ele>
        <time>2019-04-24T12:41:52Z</time>
      </trkpt>
      <trkpt lat="50.456658694893122" lon="6.356496904045343">
        <ele>529.91999999999996</ele>
        <time>2019-04-24T12:42:11Z</time>
      </trkpt>
      <trkpt lat="50.456565991044044" lon="6.356725813820958">
        <ele>530.02999999999997</ele>
        <time>2019-04-24T12:42:24Z</time>
      </trkpt>
      <trkpt lat="50.45647244900465" lon="6.357002332806587">
        <ele>532.25</ele>
        <time>2019-04-24T12:42:43Z</time>
      </trkpt>
      <trkpt lat="50.456412769854069" lon="6.357153709977865">
        <ele>532.29999999999995</ele>
        <time>2019-04-24T12:42:52Z</time>
      </trkpt>
      <trkpt lat="50.456309923902154" lon="6.357609182596207">
        <ele>532.40999999999997</ele>
        <time>2019-04-24T12:43:14Z</time>
      </trkpt>
      <trkpt lat="50.45612895861268" lon="6.358053674921393">
        <ele>532.58000000000004</ele>
        <time>2019-04-24T12:43:35Z</time>
      </trkpt>
      <trkpt lat="50.456025777384639" lon="6.35825333185494">
        <ele>532.53999999999996</ele>
        <time>2019-04-24T12:43:43Z</time>
      </trkpt>
      <trkpt lat="50.456014294177294" lon="6.358271101489663">
        <ele>532.62</ele>
        <time>2019-04-24T12:43:44Z</time>
      </trkpt>
      <trkpt lat="50.456002727150917" lon="6.358284344896674">
        <ele>532.63999999999999</ele>
        <time>2019-04-24T12:43:45Z</time>
      </trkpt>
      <trkpt lat="50.455994764342904" lon="6.358308317139745">
        <ele>532.64999999999998</ele>
        <time>2019-04-24T12:43:46Z</time>
      </trkpt>
      <trkpt lat="50.455880770459771" lon="6.358574777841568">
        <ele>532.72000000000003</ele>
        <time>2019-04-24T12:43:58Z</time>
      </trkpt>
      <trkpt lat="50.455745402723551" lon="6.358755743131042">
        <ele>534.94000000000005</ele>
        <time>2019-04-24T12:44:07Z</time>
      </trkpt>
      <trkpt lat="50.455728136003017" lon="6.358774267137051">
        <ele>535.05999999999995</ele>
        <time>2019-04-24T12:44:08Z</time>
      </trkpt>
      <trkpt lat="50.455713383853436" lon="6.358789773657918">
        <ele>535.07000000000005</ele>
        <time>2019-04-24T12:44:09Z</time>
      </trkpt>
      <trkpt lat="50.455579105764627" lon="6.359030501917005">
        <ele>534.99000000000001</ele>
        <time>2019-04-24T12:44:23Z</time>
      </trkpt>
      <trkpt lat="50.455442061647773" lon="6.359177017584443">
        <ele>535.07000000000005</ele>
        <time>2019-04-24T12:44:33Z</time>
      </trkpt>
      <trkpt lat="50.45542580075562" lon="6.359194284304977">
        <ele>535.12</ele>
        <time>2019-04-24T12:44:34Z</time>
      </trkpt>
      <trkpt lat="50.455298563465476" lon="6.359396874904633">
        <ele>535.32000000000005</ele>
        <time>2019-04-24T12:44:44Z</time>
      </trkpt>
      <trkpt lat="50.455264449119568" lon="6.359428893774748">
        <ele>536.11000000000001</ele>
        <time>2019-04-24T12:44:46Z</time>
      </trkpt>
      <trkpt lat="50.45523720793426" lon="6.359480191022158">
        <ele>536.08000000000004</ele>
        <time>2019-04-24T12:44:49Z</time>
      </trkpt>
      <trkpt lat="50.455226814374328" lon="6.359497457742691">
        <ele>536.15999999999997</ele>
        <time>2019-04-24T12:44:50Z</time>
      </trkpt>
      <trkpt lat="50.455196555703878" lon="6.359542133286595">
        <ele>536.21000000000004</ele>
        <time>2019-04-24T12:44:53Z</time>
      </trkpt>
      <trkpt lat="50.455093961209059" lon="6.359740700572729">
        <ele>536.32000000000005</ele>
        <time>2019-04-24T12:45:13Z</time>
      </trkpt>
      <trkpt lat="50.454945098608732" lon="6.360116796568036">
        <ele>536.54999999999995</ele>
        <time>2019-04-24T12:45:32Z</time>
      </trkpt>
      <trkpt lat="50.454776622354984" lon="6.360605629161">
        <ele>539.46000000000004</ele>
        <time>2019-04-24T12:45:54Z</time>
      </trkpt>
      <trkpt lat="50.454767905175686" lon="6.360623817890883">
        <ele>539.47000000000003</ele>
        <time>2019-04-24T12:45:55Z</time>
      </trkpt>
      <trkpt lat="50.454732282087207" lon="6.360767064616084">
        <ele>539.48000000000002</ele>
        <time>2019-04-24T12:46:00Z</time>
      </trkpt>
      <trkpt lat="50.454666819423437" lon="6.360909808427095">
        <ele>539.50999999999999</ele>
        <time>2019-04-24T12:46:06Z</time>
      </trkpt>
      <trkpt lat="50.454511502757668" lon="6.361344661563635">
        <ele>539.63</ele>
        <time>2019-04-24T12:46:27Z</time>
      </trkpt>
      <trkpt lat="50.454372614622116" lon="6.361917816102505">
        <ele>539.66999999999996</ele>
        <time>2019-04-24T12:46:47Z</time>
      </trkpt>
      <trkpt lat="50.454304637387395" lon="6.362213110551238">
        <ele>539.70000000000005</ele>
        <time>2019-04-24T12:46:57Z</time>
      </trkpt>
      <trkpt lat="50.454199109226465" lon="6.362451240420342">
        <ele>539.73000000000002</ele>
        <time>2019-04-24T12:47:08Z</time>
      </trkpt>
      <trkpt lat="50.454184859991074" lon="6.362471776083112">
        <ele>539.75</ele>
        <time>2019-04-24T12:47:09Z</time>
      </trkpt>
      <trkpt lat="50.454173879697919" lon="6.362494239583612">
        <ele>539.75</ele>
        <time>2019-04-24T12:47:10Z</time>
      </trkpt>
      <trkpt lat="50.454166084527969" lon="6.36251368559897">
        <ele>539.75</ele>
        <time>2019-04-24T12:47:11Z</time>
      </trkpt>
      <trkpt lat="50.454123755916953" lon="6.362609574571252">
        <ele>539.76999999999998</ele>
        <time>2019-04-24T12:47:17Z</time>
      </trkpt>
      <trkpt lat="50.454082265496254" lon="6.362730609253049">
        <ele>539.78999999999996</ele>
        <time>2019-04-24T12:47:22Z</time>
      </trkpt>
      <trkpt lat="50.454070279374719" lon="6.362762292847037">
        <ele>539.79999999999995</ele>
        <time>2019-04-24T12:47:23Z</time>
      </trkpt>
      <trkpt lat="50.454058460891247" lon="6.36279908940196">
        <ele>539.80999999999995</ele>
        <time>2019-04-24T12:47:24Z</time>
      </trkpt>
      <trkpt lat="50.454043624922633" lon="6.36282155290246">
        <ele>539.80999999999995</ele>
        <time>2019-04-24T12:47:25Z</time>
      </trkpt>
      <trkpt lat="50.454011438414454" lon="6.362921884283423">
        <ele>540.62</ele>
        <time>2019-04-24T12:47:30Z</time>
      </trkpt>
      <trkpt lat="50.453998781740665" lon="6.362933116033673">
        <ele>540.61000000000001</ele>
        <time>2019-04-24T12:47:31Z</time>
      </trkpt>
      <trkpt lat="50.453973049297929" lon="6.362949796020985">
        <ele>540.61000000000001</ele>
        <time>2019-04-24T12:47:32Z</time>
      </trkpt>
      <trkpt lat="50.453958129510283" lon="6.362955160439014">
        <ele>540.60000000000002</ele>
        <time>2019-04-24T12:47:33Z</time>
      </trkpt>
      <trkpt lat="50.453943377360702" lon="6.362968571484089">
        <ele>540.63</ele>
        <time>2019-04-24T12:47:34Z</time>
      </trkpt>
      <trkpt lat="50.453849332407117" lon="6.363030094653368">
        <ele>540.58000000000004</ele>
        <time>2019-04-24T12:47:47Z</time>
      </trkpt>
      <trkpt lat="50.453798873350024" lon="6.363052306696773">
        <ele>540.74000000000001</ele>
        <time>2019-04-24T12:47:58Z</time>
      </trkpt>
      <trkpt lat="50.453806584700942" lon="6.363157751038671">
        <ele>541.99000000000001</ele>
        <time>2019-04-24T12:49:21Z</time>
      </trkpt>
      <trkpt lat="50.453833490610123" lon="6.363256741315126">
        <ele>544.15999999999997</ele>
        <time>2019-04-24T12:49:26Z</time>
      </trkpt>
      <trkpt lat="50.453842123970389" lon="6.363292196765542">
        <ele>544.17999999999995</ele>
        <time>2019-04-24T12:49:28Z</time>
      </trkpt>
      <trkpt lat="50.453855032101274" lon="6.36336294002831">
        <ele>545.05999999999995</ele>
        <time>2019-04-24T12:49:32Z</time>
      </trkpt>
      <trkpt lat="50.453868946060538" lon="6.363441897556186">
        <ele>545.95000000000005</ele>
        <time>2019-04-24T12:49:37Z</time>
      </trkpt>
      <trkpt lat="50.453901970759034" lon="6.363505683839321">
        <ele>548.14999999999998</ele>
        <time>2019-04-24T12:49:42Z</time>
      </trkpt>
      <trkpt lat="50.453996183350682" lon="6.364191826432943">
        <ele>558.91999999999996</ele>
        <time>2019-04-24T12:50:14Z</time>
      </trkpt>
      <trkpt lat="50.454009845852852" lon="6.364299785345793">
        <ele>559.53999999999996</ele>
        <time>2019-04-24T12:50:19Z</time>
      </trkpt>
      <trkpt lat="50.454013366252184" lon="6.36440958827734">
        <ele>561.12</ele>
        <time>2019-04-24T12:50:22Z</time>
      </trkpt>
      <trkpt lat="50.454023592174053" lon="6.364526683464646">
        <ele>561.89999999999998</ele>
        <time>2019-04-24T12:50:26Z</time>
      </trkpt>
      <trkpt lat="50.454019904136658" lon="6.364556690678001">
        <ele>563.21000000000004</ele>
        <time>2019-04-24T12:50:28Z</time>
      </trkpt>
      <trkpt lat="50.454023508355021" lon="6.364592565223575">
        <ele>563.16999999999996</ele>
        <time>2019-04-24T12:50:30Z</time>
      </trkpt>
      <trkpt lat="50.454083355143666" lon="6.364985341206193">
        <ele>566.72000000000003</ele>
        <time>2019-04-24T12:50:46Z</time>
      </trkpt>
      <trkpt lat="50.454087797552347" lon="6.365066478028894">
        <ele>566.74000000000001</ele>
        <time>2019-04-24T12:50:49Z</time>
      </trkpt>
      <trkpt lat="50.454116631299257" lon="6.365285580977798">
        <ele>568.51999999999998</ele>
        <time>2019-04-24T12:51:01Z</time>
      </trkpt>
      <trkpt lat="50.454163067042828" lon="6.365712219849229">
        <ele>571.14999999999998</ele>
        <time>2019-04-24T12:51:18Z</time>
      </trkpt>
      <trkpt lat="50.454170946031809" lon="6.366016902029514">
        <ele>573.71000000000004</ele>
        <time>2019-04-24T12:51:31Z</time>
      </trkpt>
      <trkpt lat="50.454357275739312" lon="6.367059024050832">
        <ele>576.77999999999997</ele>
        <time>2019-04-24T12:52:18Z</time>
      </trkpt>
      <trkpt lat="50.454500606283545" lon="6.367812557145953">
        <ele>579.72000000000003</ele>
        <time>2019-04-24T12:52:49Z</time>
      </trkpt>
      <trkpt lat="50.454744268208742" lon="6.368855936452746">
        <ele>578.88</ele>
        <time>2019-04-24T12:53:51Z</time>
      </trkpt>
      <trkpt lat="50.454775365069509" lon="6.368963476270437">
        <ele>581.17999999999995</ele>
        <time>2019-04-24T12:53:58Z</time>
      </trkpt>
      <trkpt lat="50.45485457405448" lon="6.369392042979598">
        <ele>583.08000000000004</ele>
        <time>2019-04-24T12:54:17Z</time>
      </trkpt>
      <trkpt lat="50.454904949292541" lon="6.369648613035679">
        <ele>583.76999999999998</ele>
        <time>2019-04-24T12:54:26Z</time>
      </trkpt>
      <trkpt lat="50.45504123903811" lon="6.370199639350176">
        <ele>585.64999999999998</ele>
        <time>2019-04-24T12:54:50Z</time>
      </trkpt>
      <trkpt lat="50.455065881833434" lon="6.370290499180555">
        <ele>586.41999999999996</ele>
        <time>2019-04-24T12:54:54Z</time>
      </trkpt>
      <trkpt lat="50.455080885440111" lon="6.370333749800921">
        <ele>587.64999999999998</ele>
        <time>2019-04-24T12:54:56Z</time>
      </trkpt>
      <trkpt lat="50.455139223486185" lon="6.370626697316766">
        <ele>588.65999999999997</ele>
        <time>2019-04-24T12:55:08Z</time>
      </trkpt>
      <trkpt lat="50.455196890980005" lon="6.370880082249641">
        <ele>588.55999999999995</ele>
        <time>2019-04-24T12:55:20Z</time>
      </trkpt>
      <trkpt lat="50.455206111073494" lon="6.370966751128435">
        <ele>589.48000000000002</ele>
        <time>2019-04-24T12:55:25Z</time>
      </trkpt>
      <trkpt lat="50.4552196059376" lon="6.371013270691037">
        <ele>590.23000000000002</ele>
        <time>2019-04-24T12:55:27Z</time>
      </trkpt>
      <trkpt lat="50.455233436077833" lon="6.371150147169828">
        <ele>590.22000000000003</ele>
        <time>2019-04-24T12:55:32Z</time>
      </trkpt>
      <trkpt lat="50.455381544306874" lon="6.372154718264937">
        <ele>594.89999999999998</ele>
        <time>2019-04-24T12:56:23Z</time>
      </trkpt>
      <trkpt lat="50.455349441617727" lon="6.37224717065692">
        <ele>594.79999999999995</ele>
        <time>2019-04-24T12:56:30Z</time>
      </trkpt>
      <trkpt lat="50.455335946753621" lon="6.372290253639221">
        <ele>594.67999999999995</ele>
        <time>2019-04-24T12:56:39Z</time>
      </trkpt>
      <trkpt lat="50.454855831339955" lon="6.372843123972416">
        <ele>596.59000000000003</ele>
        <time>2019-04-24T12:57:30Z</time>
      </trkpt>
      <trkpt lat="50.454686600714922" lon="6.372933145612478">
        <ele>596.63999999999999</ele>
        <time>2019-04-24T12:57:49Z</time>
      </trkpt>
      <trkpt lat="50.454644104465842" lon="6.372982012107968">
        <ele>596.63999999999999</ele>
        <time>2019-04-24T12:57:53Z</time>
      </trkpt>
      <trkpt lat="50.454573193565011" lon="6.373073793947697">
        <ele>596.66999999999996</ele>
        <time>2019-04-24T12:58:00Z</time>
      </trkpt>
      <trkpt lat="50.454360041767359" lon="6.373242102563381">
        <ele>596.83000000000004</ele>
        <time>2019-04-24T12:58:19Z</time>
      </trkpt>
      <trkpt lat="50.454337578266859" lon="6.373309241607785">
        <ele>596.87</ele>
        <time>2019-04-24T12:58:25Z</time>
      </trkpt>
      <trkpt lat="50.454102884978056" lon="6.373520214110613">
        <ele>598</ele>
        <time>2019-04-24T12:58:45Z</time>
      </trkpt>
      <trkpt lat="50.453899288550019" lon="6.373677290976048">
        <ele>598.17999999999995</ele>
        <time>2019-04-24T12:59:01Z</time>
      </trkpt>
      <trkpt lat="50.45364330522716" lon="6.373829254880548">
        <ele>598.47000000000003</ele>
        <time>2019-04-24T12:59:21Z</time>
      </trkpt>
      <trkpt lat="50.453358655795455" lon="6.374062020331621">
        <ele>598.67999999999995</ele>
        <time>2019-04-24T12:59:38Z</time>
      </trkpt>
      <trkpt lat="50.453190011903644" lon="6.37415723875165">
        <ele>598.85000000000002</ele>
        <time>2019-04-24T12:59:50Z</time>
      </trkpt>
      <trkpt lat="50.453009130433202" lon="6.374313477426767">
        <ele>599.05999999999995</ele>
        <time>2019-04-24T13:00:07Z</time>
      </trkpt>
      <trkpt lat="50.452697658911347" lon="6.374501399695873">
        <ele>599.28999999999996</ele>
        <time>2019-04-24T13:00:25Z</time>
      </trkpt>
      <trkpt lat="50.452499845996499" lon="6.374676916748285">
        <ele>600.41999999999996</ele>
        <time>2019-04-24T13:00:44Z</time>
      </trkpt>
      <trkpt lat="50.452298345044255" lon="6.374992746859789">
        <ele>600.62</ele>
        <time>2019-04-24T13:01:03Z</time>
      </trkpt>
      <trkpt lat="50.452175298705697" lon="6.375259542837739">
        <ele>600.75999999999999</ele>
        <time>2019-04-24T13:01:15Z</time>
      </trkpt>
      <trkpt lat="50.45214612968266" lon="6.375314947217703">
        <ele>600.79999999999995</ele>
        <time>2019-04-24T13:01:18Z</time>
      </trkpt>
      <trkpt lat="50.452016545459628" lon="6.37555668130517">
        <ele>600.92999999999995</ele>
        <time>2019-04-24T13:01:30Z</time>
      </trkpt>
      <trkpt lat="50.451968433335423" lon="6.375941829755902">
        <ele>601.03999999999996</ele>
        <time>2019-04-24T13:01:44Z</time>
      </trkpt>
      <trkpt lat="50.451938007026911" lon="6.37624173425138">
        <ele>601.21000000000004</ele>
        <time>2019-04-24T13:01:58Z</time>
      </trkpt>
      <trkpt lat="50.451935408636928" lon="6.376299066469073">
        <ele>598.94000000000005</ele>
        <time>2019-04-24T13:02:00Z</time>
      </trkpt>
      <trkpt lat="50.451910011470318" lon="6.376629145815969">
        <ele>599.11000000000001</ele>
        <time>2019-04-24T13:02:16Z</time>
      </trkpt>
      <trkpt lat="50.451901126652956" lon="6.376944556832314">
        <ele>599.14999999999998</ele>
        <time>2019-04-24T13:02:29Z</time>
      </trkpt>
      <trkpt lat="50.451921327039599" lon="6.377298440784216">
        <ele>599.15999999999997</ele>
        <time>2019-04-24T13:02:43Z</time>
      </trkpt>
      <trkpt lat="50.451940856873989" lon="6.377422660589218">
        <ele>599.13</ele>
        <time>2019-04-24T13:02:48Z</time>
      </trkpt>
      <trkpt lat="50.452004307880998" lon="6.377512766048312">
        <ele>599.15999999999997</ele>
        <time>2019-04-24T13:02:53Z</time>
      </trkpt>
      <trkpt lat="50.452239839360118" lon="6.377589795738459">
        <ele>597.66999999999996</ele>
        <time>2019-04-24T13:03:07Z</time>
      </trkpt>
      <trkpt lat="50.452416194602847" lon="6.377573870122433">
        <ele>597.01999999999998</ele>
        <time>2019-04-24T13:03:19Z</time>
      </trkpt>
      <trkpt lat="50.452662035822868" lon="6.377576133236289">
        <ele>596.38999999999999</ele>
        <time>2019-04-24T13:03:35Z</time>
      </trkpt>
      <trkpt lat="50.452900752425194" lon="6.377569511532784">
        <ele>594.88999999999999</ele>
        <time>2019-04-24T13:03:49Z</time>
      </trkpt>
      <trkpt lat="50.453083226457238" lon="6.377576049417257">
        <ele>594.29999999999995</ele>
        <time>2019-04-24T13:04:03Z</time>
      </trkpt>
      <trkpt lat="50.453316662460566" lon="6.377673950046301">
        <ele>594.61000000000001</ele>
        <time>2019-04-24T13:04:19Z</time>
      </trkpt>
      <trkpt lat="50.453457897529006" lon="6.377701023593545">
        <ele>593.92999999999995</ele>
        <time>2019-04-24T13:04:31Z</time>
      </trkpt>
      <trkpt lat="50.453610699623823" lon="6.377793895080686">
        <ele>594.16999999999996</ele>
        <time>2019-04-24T13:04:44Z</time>
      </trkpt>
      <trkpt lat="50.453753778710961" lon="6.377901770174503">
        <ele>594.40999999999997</ele>
        <time>2019-04-24T13:04:57Z</time>
      </trkpt>
      <trkpt lat="50.453854613006115" lon="6.378035377711058">
        <ele>594.73000000000002</ele>
        <time>2019-04-24T13:05:15Z</time>
      </trkpt>
      <trkpt lat="50.453978748992085" lon="6.378263868391514">
        <ele>594.91999999999996</ele>
        <time>2019-04-24T13:05:27Z</time>
      </trkpt>
      <trkpt lat="50.454004732891917" lon="6.378298066556454">
        <ele>594.94000000000005</ele>
        <time>2019-04-24T13:05:29Z</time>
      </trkpt>
      <trkpt lat="50.454080337658525" lon="6.378444917500019">
        <ele>595.05999999999995</ele>
        <time>2019-04-24T13:05:38Z</time>
      </trkpt>
      <trkpt lat="50.454153595492244" lon="6.378732500597835">
        <ele>594.49000000000001</ele>
        <time>2019-04-24T13:05:54Z</time>
      </trkpt>
      <trkpt lat="50.45418226160109" lon="6.378920674324036">
        <ele>594.60000000000002</ele>
        <time>2019-04-24T13:06:03Z</time>
      </trkpt>
      <trkpt lat="50.454191984608769" lon="6.378960656002164">
        <ele>594.62</ele>
        <time>2019-04-24T13:06:05Z</time>
      </trkpt>
      <trkpt lat="50.454187542200089" lon="6.379229966551065">
        <ele>594.72000000000003</ele>
        <time>2019-04-24T13:06:16Z</time>
      </trkpt>
      <trkpt lat="50.454210760071874" lon="6.379411602392793">
        <ele>594.76999999999998</ele>
        <time>2019-04-24T13:06:24Z</time>
      </trkpt>
      <trkpt lat="50.454228948801756" lon="6.379639757797122">
        <ele>594.84000000000003</ele>
        <time>2019-04-24T13:06:33Z</time>
      </trkpt>
      <trkpt lat="50.454254094511271" lon="6.379925748333335">
        <ele>594.91999999999996</ele>
        <time>2019-04-24T13:06:47Z</time>
      </trkpt>
      <trkpt lat="50.454265912994742" lon="6.380105875432491">
        <ele>594.96000000000004</ele>
        <time>2019-04-24T13:06:55Z</time>
      </trkpt>
      <trkpt lat="50.454286867752671" lon="6.380188437178731">
        <ele>594.98000000000002</ele>
        <time>2019-04-24T13:06:59Z</time>
      </trkpt>
      <trkpt lat="50.454309917986393" lon="6.380503764376044">
        <ele>595.00999999999999</ele>
        <time>2019-04-24T13:07:12Z</time>
      </trkpt>
      <trkpt lat="50.45433958992362" lon="6.380816912278533">
        <ele>595.03999999999996</ele>
        <time>2019-04-24T13:07:26Z</time>
      </trkpt>
      <trkpt lat="50.454347468912601" lon="6.381079768761993">
        <ele>596.33000000000004</ele>
        <time>2019-04-24T13:07:38Z</time>
      </trkpt>
      <trkpt lat="50.454369764775038" lon="6.381297195330262">
        <ele>596.33000000000004</ele>
        <time>2019-04-24T13:07:48Z</time>
      </trkpt>
      <trkpt lat="50.454384768381715" lon="6.381402472034097">
        <ele>597.11000000000001</ele>
        <time>2019-04-24T13:07:52Z</time>
      </trkpt>
      <trkpt lat="50.454403879120946" lon="6.381505150347948">
        <ele>597.11000000000001</ele>
        <time>2019-04-24T13:07:57Z</time>
      </trkpt>
      <trkpt lat="50.4544563498348" lon="6.381881330162287">
        <ele>597.99000000000001</ele>
        <time>2019-04-24T13:08:12Z</time>
      </trkpt>
      <trkpt lat="50.454461043700576" lon="6.382037987932563">
        <ele>597.96000000000004</ele>
        <time>2019-04-24T13:08:19Z</time>
      </trkpt>
      <trkpt lat="50.454469257965684" lon="6.382336132228375">
        <ele>598.67999999999995</ele>
        <time>2019-04-24T13:08:32Z</time>
      </trkpt>
      <trkpt lat="50.454231295734644" lon="6.382585074752569">
        <ele>596.24000000000001</ele>
        <time>2019-04-24T13:08:54Z</time>
      </trkpt>
      <trkpt lat="50.4540747217834" lon="6.382594965398312">
        <ele>594.22000000000003</ele>
        <time>2019-04-24T13:09:07Z</time>
      </trkpt>
      <trkpt lat="50.45401755720377" lon="6.382604688405991">
        <ele>594.34000000000003</ele>
        <time>2019-04-24T13:09:12Z</time>
      </trkpt>
      <trkpt lat="50.453969109803438" lon="6.382623799145222">
        <ele>592.65999999999997</ele>
        <time>2019-04-24T13:09:17Z</time>
      </trkpt>
      <trkpt lat="50.453761573880911" lon="6.382795879617333">
        <ele>590.86000000000001</ele>
        <time>2019-04-24T13:09:34Z</time>
      </trkpt>
      <trkpt lat="50.453698961064219" lon="6.382806776091456">
        <ele>590.98000000000002</ele>
        <time>2019-04-24T13:09:41Z</time>
      </trkpt>
      <trkpt lat="50.45353576540947" lon="6.38296720571816">
        <ele>588.90999999999997</ele>
        <time>2019-04-24T13:09:57Z</time>
      </trkpt>
      <trkpt lat="50.453425291925669" lon="6.383122354745865">
        <ele>587.77999999999997</ele>
        <time>2019-04-24T13:10:09Z</time>
      </trkpt>
      <trkpt lat="50.453362427651882" lon="6.383194858208299">
        <ele>586.10000000000002</ele>
        <time>2019-04-24T13:10:13Z</time>
      </trkpt>
      <trkpt lat="50.453326301649213" lon="6.383238779380918">
        <ele>588.48000000000002</ele>
        <time>2019-04-24T13:10:16Z</time>
      </trkpt>
      <trkpt lat="50.453210715204477" lon="6.383433407172561">
        <ele>586.27999999999997</ele>
        <time>2019-04-24T13:10:26Z</time>
      </trkpt>
      <trkpt lat="50.453098062425852" lon="6.38366206549108">
        <ele>585.72000000000003</ele>
        <time>2019-04-24T13:10:39Z</time>
      </trkpt>
      <trkpt lat="50.452979123219848" lon="6.383944535627961">
        <ele>583.97000000000003</ele>
        <time>2019-04-24T13:10:52Z</time>
      </trkpt>
      <trkpt lat="50.45294601470232" lon="6.384051572531462">
        <ele>585.5</ele>
        <time>2019-04-24T13:10:58Z</time>
      </trkpt>
      <trkpt lat="50.452935369685292" lon="6.384099936112762">
        <ele>583.05999999999995</ele>
        <time>2019-04-24T13:11:01Z</time>
      </trkpt>
      <trkpt lat="50.452892454341054" lon="6.384176798164845">
        <ele>583.15999999999997</ele>
        <time>2019-04-24T13:11:05Z</time>
      </trkpt>
      <trkpt lat="50.452800169587135" lon="6.38444627635181">
        <ele>583.34000000000003</ele>
        <time>2019-04-24T13:11:21Z</time>
      </trkpt>
      <trkpt lat="50.452686343342066" lon="6.384755065664649">
        <ele>583.51999999999998</ele>
        <time>2019-04-24T13:11:38Z</time>
      </trkpt>
      <trkpt lat="50.452659269794822" lon="6.385101154446602">
        <ele>583.64999999999998</ele>
        <time>2019-04-24T13:11:52Z</time>
      </trkpt>
      <trkpt lat="50.452658263966441" lon="6.385261500254273">
        <ele>586.07000000000005</ele>
        <time>2019-04-24T13:11:58Z</time>
      </trkpt>
      <trkpt lat="50.45263571664691" lon="6.385623849928379">
        <ele>587.62</ele>
        <time>2019-04-24T13:12:12Z</time>
      </trkpt>
      <trkpt lat="50.452666729688644" lon="6.3860665820539">
        <ele>590.16999999999996</ele>
        <time>2019-04-24T13:12:29Z</time>
      </trkpt>
      <trkpt lat="50.45270754955709" lon="6.386464890092611">
        <ele>591.76999999999998</ele>
        <time>2019-04-24T13:12:44Z</time>
      </trkpt>
      <trkpt lat="50.452758092433214" lon="6.386807039380074">
        <ele>593.39999999999998</ele>
        <time>2019-04-24T13:12:59Z</time>
      </trkpt>
      <trkpt lat="50.452769659459591" lon="6.387015329673886">
        <ele>594.21000000000004</ele>
        <time>2019-04-24T13:13:14Z</time>
      </trkpt>
      <trkpt lat="50.452798325568438" lon="6.387523440644145">
        <ele>596.39999999999998</ele>
        <time>2019-04-24T13:13:38Z</time>
      </trkpt>
      <trkpt lat="50.452809222042561" lon="6.388066755607724">
        <ele>596.53999999999996</ele>
        <time>2019-04-24T13:14:01Z</time>
      </trkpt>
      <trkpt lat="50.452884407714009" lon="6.388605209067464">
        <ele>597.58000000000004</ele>
        <time>2019-04-24T13:14:24Z</time>
      </trkpt>
      <trkpt lat="50.452911229804158" lon="6.38897736556828">
        <ele>597.70000000000005</ele>
        <time>2019-04-24T13:14:39Z</time>
      </trkpt>
      <trkpt lat="50.452912906184793" lon="6.389000918716192">
        <ele>597.71000000000004</ele>
        <time>2019-04-24T13:14:40Z</time>
      </trkpt>
      <trkpt lat="50.45291475020349" lon="6.389022627845407">
        <ele>591.45000000000005</ele>
        <time>2019-04-24T13:14:41Z</time>
      </trkpt>
      <trkpt lat="50.452916091307998" lon="6.389044253155589">
        <ele>598.63</ele>
        <time>2019-04-24T13:14:42Z</time>
      </trkpt>
      <trkpt lat="50.452916845679283" lon="6.389066968113184">
        <ele>598.62</ele>
        <time>2019-04-24T13:14:43Z</time>
      </trkpt>
      <trkpt lat="50.452937800437212" lon="6.389365447685123">
        <ele>594.60000000000002</ele>
        <time>2019-04-24T13:14:56Z</time>
      </trkpt>
      <trkpt lat="50.452940398827195" lon="6.389386653900147">
        <ele>598.46000000000004</ele>
        <time>2019-04-24T13:14:57Z</time>
      </trkpt>
      <trkpt lat="50.452958755195141" lon="6.389681529253721">
        <ele>596.27999999999997</ele>
        <time>2019-04-24T13:15:10Z</time>
      </trkpt>
      <trkpt lat="50.452970657497644" lon="6.390000795945525">
        <ele>595.65999999999997</ele>
        <time>2019-04-24T13:15:24Z</time>
      </trkpt>
      <trkpt lat="50.452971076592803" lon="6.390121998265386">
        <ele>596.21000000000004</ele>
        <time>2019-04-24T13:15:29Z</time>
      </trkpt>
      <trkpt lat="50.452972250059247" lon="6.390144461765885">
        <ele>596.21000000000004</ele>
        <time>2019-04-24T13:15:30Z</time>
      </trkpt>
      <trkpt lat="50.453000580891967" lon="6.390448808670044">
        <ele>596.38</ele>
        <time>2019-04-24T13:15:44Z</time>
      </trkpt>
      <trkpt lat="50.45295431278646" lon="6.390546290203929">
        <ele>594.17999999999995</ele>
        <time>2019-04-24T13:15:50Z</time>
      </trkpt>
      <trkpt lat="50.452772676944733" lon="6.39064310118556">
        <ele>593.39999999999998</ele>
        <time>2019-04-24T13:16:05Z</time>
      </trkpt>
      <trkpt lat="50.452550640329719" lon="6.390750892460346">
        <ele>590.75999999999999</ele>
        <time>2019-04-24T13:16:24Z</time>
      </trkpt>
      <trkpt lat="50.452364813536406" lon="6.390820881351829">
        <ele>589.35000000000002</ele>
        <time>2019-04-24T13:16:41Z</time>
      </trkpt>
      <trkpt lat="50.452305972576141" lon="6.390839321538806">
        <ele>587.25</ele>
        <time>2019-04-24T13:16:45Z</time>
      </trkpt>
      <trkpt lat="50.452099191024899" lon="6.390919452533126">
        <ele>585.45000000000005</ele>
        <time>2019-04-24T13:17:01Z</time>
      </trkpt>
      <trkpt lat="50.451941611245275" lon="6.390913920477033">
        <ele>583.70000000000005</ele>
        <time>2019-04-24T13:17:13Z</time>
      </trkpt>
      <trkpt lat="50.451784618198872" lon="6.390809481963515">
        <ele>585.35000000000002</ele>
        <time>2019-04-24T13:17:24Z</time>
      </trkpt>
      <trkpt lat="50.451745893806219" lon="6.390767656266689">
        <ele>582.59000000000003</ele>
        <time>2019-04-24T13:17:27Z</time>
      </trkpt>
      <trkpt lat="50.451705073937774" lon="6.3906807359308">
        <ele>583.44000000000005</ele>
        <time>2019-04-24T13:17:42Z</time>
      </trkpt>
      <trkpt lat="50.451707001775503" lon="6.390705462545157">
        <ele>583.50999999999999</ele>
        <time>2019-04-24T13:17:49Z</time>
      </trkpt>
      <trkpt lat="50.451637096703053" lon="6.390379406511784">
        <ele>582.09000000000003</ele>
        <time>2019-04-24T13:18:37Z</time>
      </trkpt>
      <trkpt lat="50.451619075611234" lon="6.390305478125811">
        <ele>579.83000000000004</ele>
        <time>2019-04-24T13:18:41Z</time>
      </trkpt>
      <trkpt lat="50.451601222157478" lon="6.390219898894429">
        <ele>579.00999999999999</ele>
        <time>2019-04-24T13:18:46Z</time>
      </trkpt>
      <trkpt lat="50.451561911031604" lon="6.39005234465003">
        <ele>575.63999999999999</ele>
        <time>2019-04-24T13:19:00Z</time>
      </trkpt>
      <trkpt lat="50.451542800292373" lon="6.390000628307462">
        <ele>574.77999999999997</ele>
        <time>2019-04-24T13:19:03Z</time>
      </trkpt>
      <trkpt lat="50.45145470649004" lon="6.389699634164572">
        <ele>574.05999999999995</ele>
        <time>2019-04-24T13:19:19Z</time>
      </trkpt>
      <trkpt lat="50.451410030946136" lon="6.389457397162914">
        <ele>571.25999999999999</ele>
        <time>2019-04-24T13:19:32Z</time>
      </trkpt>
      <trkpt lat="50.451360493898392" lon="6.389165706932545">
        <ele>568.88999999999999</ele>
        <time>2019-04-24T13:19:52Z</time>
      </trkpt>
      <trkpt lat="50.451344065368176" lon="6.388820623978972">
        <ele>566.42999999999995</ele>
        <time>2019-04-24T13:20:14Z</time>
      </trkpt>
      <trkpt lat="50.451360074803233" lon="6.388439750298858">
        <ele>563.78999999999996</ele>
        <time>2019-04-24T13:20:38Z</time>
      </trkpt>
      <trkpt lat="50.451334090903401" lon="6.387946475297213">
        <ele>562.02999999999997</ele>
        <time>2019-04-24T13:20:57Z</time>
      </trkpt>
      <trkpt lat="50.451329397037625" lon="6.387943290174007">
        <ele>561.26999999999998</ele>
        <time>2019-04-24T13:20:58Z</time>
      </trkpt>
      <trkpt lat="50.451321015134454" lon="6.387915210798383">
        <ele>561.25999999999999</ele>
        <time>2019-04-24T13:21:00Z</time>
      </trkpt>
      <trkpt lat="50.451268292963505" lon="6.387857710942626">
        <ele>556.75</ele>
        <time>2019-04-24T13:21:10Z</time>
      </trkpt>
      <trkpt lat="50.451207607984543" lon="6.387830385938287">
        <ele>553.58000000000004</ele>
        <time>2019-04-24T13:21:18Z</time>
      </trkpt>
      <trkpt lat="50.451174415647984" lon="6.387225212529302">
        <ele>555.05999999999995</ele>
        <time>2019-04-24T13:22:34Z</time>
      </trkpt>
      <trkpt lat="50.451209954917431" lon="6.387156564742327">
        <ele>558.11000000000001</ele>
        <time>2019-04-24T13:22:37Z</time>
      </trkpt>
      <trkpt lat="50.451218253001571" lon="6.387117924168706">
        <ele>558.40999999999997</ele>
        <time>2019-04-24T13:22:39Z</time>
      </trkpt>
      <trkpt lat="50.451235352084041" lon="6.387011641636491">
        <ele>555.92999999999995</ele>
        <time>2019-04-24T13:22:43Z</time>
      </trkpt>
      <trkpt lat="50.451197633519769" lon="6.386651806533337">
        <ele>554.17999999999995</ele>
        <time>2019-04-24T13:22:59Z</time>
      </trkpt>
      <trkpt lat="50.451184893026948" lon="6.386574693024159">
        <ele>554.19000000000005</ele>
        <time>2019-04-24T13:23:02Z</time>
      </trkpt>
      <trkpt lat="50.450883815065026" lon="6.386301023885608">
        <ele>556.49000000000001</ele>
        <time>2019-04-24T13:23:30Z</time>
      </trkpt>
      <trkpt lat="50.450777783989906" lon="6.386386100202799">
        <ele>558.23000000000002</ele>
        <time>2019-04-24T13:23:39Z</time>
      </trkpt>
      <trkpt lat="50.450745765119791" lon="6.386410240083933">
        <ele>558.70000000000005</ele>
        <time>2019-04-24T13:23:41Z</time>
      </trkpt>
      <trkpt lat="50.450566643849015" lon="6.386698577553034">
        <ele>558.63</ele>
        <time>2019-04-24T13:23:59Z</time>
      </trkpt>
      <trkpt lat="50.450450973585248" lon="6.386943832039833">
        <ele>558.52999999999997</ele>
        <time>2019-04-24T13:24:14Z</time>
      </trkpt>
      <trkpt lat="50.4503274243325" lon="6.387447500601411">
        <ele>560.14999999999998</ele>
        <time>2019-04-24T13:24:33Z</time>
      </trkpt>
      <trkpt lat="50.450290879234672" lon="6.387551100924611">
        <ele>562.52999999999997</ele>
        <time>2019-04-24T13:24:40Z</time>
      </trkpt>
      <trkpt lat="50.450285766273737" lon="6.387565182521939">
        <ele>559.29999999999995</ele>
        <time>2019-04-24T13:24:41Z</time>
      </trkpt>
      <trkpt lat="50.449688639491796" lon="6.388783995062113">
        <ele>571.15999999999997</ele>
        <time>2019-04-24T13:26:04Z</time>
      </trkpt>
      <trkpt lat="50.44968830421567" lon="6.388783156871796">
        <ele>571.15999999999997</ele>
        <time>2019-04-24T13:26:05Z</time>
      </trkpt>
      <trkpt lat="50.449618818238378" lon="6.389026399701834">
        <ele>571.23000000000002</ele>
        <time>2019-04-24T13:26:25Z</time>
      </trkpt>
      <trkpt lat="50.449648490175605" lon="6.38944935053587">
        <ele>569.45000000000005</ele>
        <time>2019-04-24T13:26:48Z</time>
      </trkpt>
      <trkpt lat="50.449645724147558" lon="6.389540461823344">
        <ele>569.5</ele>
        <time>2019-04-24T13:26:53Z</time>
      </trkpt>
      <trkpt lat="50.449639102444053" lon="6.389640206471086">
        <ele>570.71000000000004</ele>
        <time>2019-04-24T13:26:58Z</time>
      </trkpt>
      <trkpt lat="50.449640024453402" lon="6.389682199805975">
        <ele>569.50999999999999</ele>
        <time>2019-04-24T13:27:00Z</time>
      </trkpt>
      <trkpt lat="50.449642119929194" lon="6.389808934181929">
        <ele>571.29999999999995</ele>
        <time>2019-04-24T13:27:07Z</time>
      </trkpt>
      <trkpt lat="50.449581686407328" lon="6.390775870531797">
        <ele>564.96000000000004</ele>
        <time>2019-04-24T13:27:58Z</time>
      </trkpt>
      <trkpt lat="50.449582356959581" lon="6.390815684571862">
        <ele>564.96000000000004</ele>
        <time>2019-04-24T13:28:00Z</time>
      </trkpt>
      <trkpt lat="50.449576154351234" lon="6.39102472923696">
        <ele>563.33000000000004</ele>
        <time>2019-04-24T13:28:12Z</time>
      </trkpt>
      <trkpt lat="50.449539106339216" lon="6.391396131366491">
        <ele>560.69000000000005</ele>
        <time>2019-04-24T13:28:29Z</time>
      </trkpt>
      <trkpt lat="50.449504321441054" lon="6.391670471057296">
        <ele>559.03999999999996</ele>
        <time>2019-04-24T13:28:43Z</time>
      </trkpt>
      <trkpt lat="50.449493005871773" lon="6.391835594549775">
        <ele>556.69000000000005</ele>
        <time>2019-04-24T13:28:51Z</time>
      </trkpt>
      <trkpt lat="50.449478002265096" lon="6.392013290897012">
        <ele>556.70000000000005</ele>
        <time>2019-04-24T13:28:57Z</time>
      </trkpt>
      <trkpt lat="50.449439277872443" lon="6.392352590337396">
        <ele>554.03999999999996</ele>
        <time>2019-04-24T13:29:12Z</time>
      </trkpt>
      <trkpt lat="50.449366942048073" lon="6.39274905435741">
        <ele>552.48000000000002</ele>
        <time>2019-04-24T13:29:30Z</time>
      </trkpt>
      <trkpt lat="50.44933651573956" lon="6.393158929422498">
        <ele>550.02999999999997</ele>
        <time>2019-04-24T13:29:47Z</time>
      </trkpt>
      <trkpt lat="50.44927247799933" lon="6.393556147813797">
        <ele>547.69000000000005</ele>
        <time>2019-04-24T13:30:03Z</time>
      </trkpt>
      <trkpt lat="50.449237190186977" lon="6.393778519704938">
        <ele>546.87</ele>
        <time>2019-04-24T13:30:15Z</time>
      </trkpt>
      <trkpt lat="50.449201315641403" lon="6.393791763111949">
        <ele>547.10000000000002</ele>
        <time>2019-04-24T13:30:31Z</time>
      </trkpt>
      <trkpt lat="50.449117077514529" lon="6.393698053434491">
        <ele>550.26999999999998</ele>
        <time>2019-04-24T13:30:40Z</time>
      </trkpt>
      <trkpt lat="50.449106516316533" lon="6.393688330426812">
        <ele>550.28999999999996</ele>
        <time>2019-04-24T13:30:41Z</time>
      </trkpt>
      <trkpt lat="50.449023619294167" lon="6.39361834153533">
        <ele>550.32000000000005</ele>
        <time>2019-04-24T13:30:48Z</time>
      </trkpt>
      <trkpt lat="50.448861261829734" lon="6.393466712906957">
        <ele>551.21000000000004</ele>
        <time>2019-04-24T13:31:01Z</time>
      </trkpt>
      <trkpt lat="50.448773000389338" lon="6.393382893875241">
        <ele>552.87</ele>
        <time>2019-04-24T13:31:09Z</time>
      </trkpt>
      <trkpt lat="50.448655067011714" lon="6.393178375437856">
        <ele>554.60000000000002</ele>
        <time>2019-04-24T13:31:24Z</time>
      </trkpt>
      <trkpt lat="50.448646685108542" lon="6.39315901324153">
        <ele>555.64999999999998</ele>
        <time>2019-04-24T13:31:25Z</time>
      </trkpt>
      <trkpt lat="50.448617683723569" lon="6.393061028793454">
        <ele>556.42999999999995</ele>
        <time>2019-04-24T13:31:29Z</time>
      </trkpt>
      <trkpt lat="50.448093479499221" lon="6.392464069649577">
        <ele>558.08000000000004</ele>
        <time>2019-04-24T13:32:09Z</time>
      </trkpt>
      <trkpt lat="50.447934810072184" lon="6.392359044402838">
        <ele>557.34000000000003</ele>
        <time>2019-04-24T13:32:22Z</time>
      </trkpt>
      <trkpt lat="50.447886111214757" lon="6.392371449619532">
        <ele>557.37</ele>
        <time>2019-04-24T13:32:26Z</time>
      </trkpt>
      <trkpt lat="50.447817128151655" lon="6.392469014972448">
        <ele>557.46000000000004</ele>
        <time>2019-04-24T13:32:33Z</time>
      </trkpt>
      <trkpt lat="50.447825426235795" lon="6.392802111804485">
        <ele>555.04999999999995</ele>
        <time>2019-04-24T13:32:49Z</time>
      </trkpt>
      <trkpt lat="50.447827018797398" lon="6.392826419323683">
        <ele>555.05999999999995</ele>
        <time>2019-04-24T13:32:50Z</time>
      </trkpt>
      <trkpt lat="50.44782810844481" lon="6.392849469557405">
        <ele>559.34000000000003</ele>
        <time>2019-04-24T13:32:51Z</time>
      </trkpt>
      <trkpt lat="50.447831880301237" lon="6.392872268334031">
        <ele>559.33000000000004</ele>
        <time>2019-04-24T13:32:52Z</time>
      </trkpt>
      <trkpt lat="50.447886614128947" lon="6.39325775206089">
        <ele>559.40999999999997</ele>
        <time>2019-04-24T13:33:08Z</time>
      </trkpt>
      <trkpt lat="50.447941850870848" lon="6.393632171675563">
        <ele>559.52999999999997</ele>
        <time>2019-04-24T13:33:25Z</time>
      </trkpt>
      <trkpt lat="50.448016198351979" lon="6.393973734229803">
        <ele>559.64999999999998</ele>
        <time>2019-04-24T13:33:42Z</time>
      </trkpt>
      <trkpt lat="50.448091551661491" lon="6.394311944022775">
        <ele>561.37</ele>
        <time>2019-04-24T13:33:59Z</time>
      </trkpt>
      <trkpt lat="50.448098508641124" lon="6.394328288733959">
        <ele>561.38</ele>
        <time>2019-04-24T13:34:00Z</time>
      </trkpt>
      <trkpt lat="50.448156008496881" lon="6.394564909860492">
        <ele>562.27999999999997</ele>
        <time>2019-04-24T13:34:12Z</time>
      </trkpt>
      <trkpt lat="50.448248209431767" lon="6.394932707771659">
        <ele>562.38999999999999</ele>
        <time>2019-04-24T13:34:30Z</time>
      </trkpt>
      <trkpt lat="50.448336889967322" lon="6.395230516791344">
        <ele>563.50999999999999</ele>
        <time>2019-04-24T13:34:45Z</time>
      </trkpt>
      <trkpt lat="50.448348792269826" lon="6.395264212042093">
        <ele>563.52999999999997</ele>
        <time>2019-04-24T13:34:47Z</time>
      </trkpt>
      <trkpt lat="50.448446776717901" lon="6.395507454872131">
        <ele>565.17999999999995</ele>
        <time>2019-04-24T13:35:02Z</time>
      </trkpt>
      <trkpt lat="50.448503354564309" lon="6.395899560302496">
        <ele>566.88</ele>
        <time>2019-04-24T13:35:19Z</time>
      </trkpt>
      <trkpt lat="50.448549035936594" lon="6.396294515579939">
        <ele>568.87</ele>
        <time>2019-04-24T13:35:36Z</time>
      </trkpt>
      <trkpt lat="50.448574936017394" lon="6.396676981821656">
        <ele>569.64999999999998</ele>
        <time>2019-04-24T13:35:52Z</time>
      </trkpt>
      <trkpt lat="50.448567057028413" lon="6.397133963182569">
        <ele>571.40999999999997</ele>
        <time>2019-04-24T13:36:11Z</time>
      </trkpt>
      <trkpt lat="50.448568230494857" lon="6.397560769692063">
        <ele>573.98000000000002</ele>
        <time>2019-04-24T13:36:29Z</time>
      </trkpt>
      <trkpt lat="50.448608044534922" lon="6.397771239280701">
        <ele>575.25999999999999</ele>
        <time>2019-04-24T13:36:39Z</time>
      </trkpt>
      <trkpt lat="50.448694797232747" lon="6.398102743551135">
        <ele>577.01999999999998</ele>
        <time>2019-04-24T13:36:56Z</time>
      </trkpt>
      <trkpt lat="50.448773168027401" lon="6.398408766835928">
        <ele>578.84000000000003</ele>
        <time>2019-04-24T13:37:11Z</time>
      </trkpt>
      <trkpt lat="50.448831338435411" lon="6.39874261803925">
        <ele>580.5</ele>
        <time>2019-04-24T13:37:28Z</time>
      </trkpt>
      <trkpt lat="50.448865033686161" lon="6.398918302729726">
        <ele>580.58000000000004</ele>
        <time>2019-04-24T13:37:37Z</time>
      </trkpt>
      <trkpt lat="50.448925634846091" lon="6.399163389578462">
        <ele>583.24000000000001</ele>
        <time>2019-04-24T13:37:52Z</time>
      </trkpt>
      <trkpt lat="50.448936363682151" lon="6.399440998211503">
        <ele>585.08000000000004</ele>
        <time>2019-04-24T13:38:05Z</time>
      </trkpt>
      <trkpt lat="50.448904680088162" lon="6.399679966270924">
        <ele>585.78999999999996</ele>
        <time>2019-04-24T13:38:15Z</time>
      </trkpt>
      <trkpt lat="50.448876181617379" lon="6.399750877171755">
        <ele>585.76999999999998</ele>
        <time>2019-04-24T13:38:19Z</time>
      </trkpt>
      <trkpt lat="50.448782304301858" lon="6.400092272087932">
        <ele>585.79999999999995</ele>
        <time>2019-04-24T13:38:35Z</time>
      </trkpt>
      <trkpt lat="50.448624053969979" lon="6.400376334786415">
        <ele>585.82000000000005</ele>
        <time>2019-04-24T13:38:51Z</time>
      </trkpt>
      <trkpt lat="50.448448788374662" lon="6.400417573750019">
        <ele>583.51999999999998</ele>
        <time>2019-04-24T13:39:04Z</time>
      </trkpt>
      <trkpt lat="50.448366897180676" lon="6.400404581800103">
        <ele>583.51999999999998</ele>
        <time>2019-04-24T13:39:11Z</time>
      </trkpt>
      <trkpt lat="50.448287352919579" lon="6.400402318686247">
        <ele>586.89999999999998</ele>
        <time>2019-04-24T13:39:22Z</time>
      </trkpt>
      <trkpt lat="50.448287520557642" lon="6.400401731953025">
        <ele>586.90999999999997</ele>
        <time>2019-04-24T13:39:23Z</time>
      </trkpt>
      <trkpt lat="50.44828643091023" lon="6.400398630648851">
        <ele>584.49000000000001</ele>
        <time>2019-04-24T13:39:25Z</time>
      </trkpt>
      <trkpt lat="50.448249969631433" lon="6.400415897369385">
        <ele>583.86000000000001</ele>
        <time>2019-04-24T13:39:50Z</time>
      </trkpt>
      <trkpt lat="50.448231110349298" lon="6.400424027815461">
        <ele>582.88999999999999</ele>
        <time>2019-04-24T13:40:18Z</time>
      </trkpt>
      <trkpt lat="50.448232619091868" lon="6.400427967309952">
        <ele>585.35000000000002</ele>
        <time>2019-04-24T13:40:24Z</time>
      </trkpt>
      <trkpt lat="50.448214178904891" lon="6.400456801056862">
        <ele>585.55999999999995</ele>
        <time>2019-04-24T13:40:52Z</time>
      </trkpt>
      <trkpt lat="50.448215520009398" lon="6.400465937331319">
        <ele>585.75</ele>
        <time>2019-04-24T13:41:18Z</time>
      </trkpt>
      <trkpt lat="50.448152152821422" lon="6.40048161149025">
        <ele>585.82000000000005</ele>
        <time>2019-04-24T13:41:31Z</time>
      </trkpt>
      <trkpt lat="50.448052156716585" lon="6.400597784668207">
        <ele>585.90999999999997</ele>
        <time>2019-04-24T13:41:44Z</time>
      </trkpt>
      <trkpt lat="50.447949226945639" lon="6.40073474496603">
        <ele>586.02999999999997</ele>
        <time>2019-04-24T13:42:00Z</time>
      </trkpt>
      <trkpt lat="50.447907568886876" lon="6.400776989758015">
        <ele>586.07000000000005</ele>
        <time>2019-04-24T13:42:05Z</time>
      </trkpt>
      <trkpt lat="50.447777649387717" lon="6.40090967528522">
        <ele>586.16999999999996</ele>
        <time>2019-04-24T13:42:19Z</time>
      </trkpt>
      <trkpt lat="50.447588721290231" lon="6.400973042473197">
        <ele>586.33000000000004</ele>
        <time>2019-04-24T13:42:35Z</time>
      </trkpt>
      <trkpt lat="50.447547063231468" lon="6.40097513794899">
        <ele>584.01999999999998</ele>
        <time>2019-04-24T13:42:39Z</time>
      </trkpt>
      <trkpt lat="50.447466345503926" lon="6.400940353050828">
        <ele>584.07000000000005</ele>
        <time>2019-04-24T13:42:47Z</time>
      </trkpt>
      <trkpt lat="50.447373976930976" lon="6.4008744712919">
        <ele>584.13999999999999</ele>
        <time>2019-04-24T13:42:55Z</time>
      </trkpt>
      <trkpt lat="50.447353525087237" lon="6.400861563161016">
        <ele>585.12</ele>
        <time>2019-04-24T13:42:57Z</time>
      </trkpt>
      <trkpt lat="50.447301808744669" lon="6.400840105488896">
        <ele>585.20000000000005</ele>
        <time>2019-04-24T13:43:02Z</time>
      </trkpt>
      <trkpt lat="50.447214972227812" lon="6.400785455480218">
        <ele>586.75999999999999</ele>
        <time>2019-04-24T13:43:11Z</time>
      </trkpt>
      <trkpt lat="50.447133919224143" lon="6.400614799931645">
        <ele>586.58000000000004</ele>
        <time>2019-04-24T13:43:23Z</time>
      </trkpt>
      <trkpt lat="50.446900986135006" lon="6.40046258457005">
        <ele>588.50999999999999</ele>
        <time>2019-04-24T13:43:53Z</time>
      </trkpt>
      <trkpt lat="50.446792859584093" lon="6.400358313694596">
        <ele>589.50999999999999</ele>
        <time>2019-04-24T13:44:33Z</time>
      </trkpt>
      <trkpt lat="50.446639051660895" lon="6.400150442495942">
        <ele>590.40999999999997</ele>
        <time>2019-04-24T13:44:52Z</time>
      </trkpt>
      <trkpt lat="50.446551628410816" lon="6.400172905996442">
        <ele>590.50999999999999</ele>
        <time>2019-04-24T13:45:09Z</time>
      </trkpt>
      <trkpt lat="50.446479376405478" lon="6.400358648970723">
        <ele>590.72000000000003</ele>
        <time>2019-04-24T13:45:31Z</time>
      </trkpt>
      <trkpt lat="50.446450877934694" lon="6.400395361706615">
        <ele>590.88999999999999</ele>
        <time>2019-04-24T13:46:08Z</time>
      </trkpt>
      <trkpt lat="50.446488261222839" lon="6.400488233193755">
        <ele>588.63</ele>
        <time>2019-04-24T13:46:13Z</time>
      </trkpt>
      <trkpt lat="50.446460265666246" lon="6.400746898725629">
        <ele>588.00999999999999</ele>
        <time>2019-04-24T13:46:33Z</time>
      </trkpt>
    </trkseg>
  </trk>

</gpx>